[[{"header":{"parameterUnit":"m.s-1","parameterCategory":1,"la1":31.0,"la2":29.5877,"lo1":-88.7671,"lo2":-86.6584,"dx":0.0162,"dy":0.0185,"nx":115,"ny":88,"refTime":"2022-11-11T18:00:00:Z","depth":0,"parameterNumber":2,"parameterNumberName":"U-component_of_WINDS"},"data":[0.0,0.0,0.0,0.0,0.0,0.0,0.0,0.0,0.0,0.0,0.0,0.0,0.0,0.0,0.0,0.0,0.0,0.0,0.0,0.0,0.0,0.0,0.0,0.0,0.0,0.0,0.0,0.0,0.0,0.0,0.0,0.0,0.0,0.0,0.0,0.0,0.0,0.0,0.0,0.0,0.0,0.0,0.0,0.0,0.0,0.0,0.0,0.0,0.0,0.0,0.0,0.0,0.0,0.0,0.0,0.0,0.0,0.0,0.0,0.0,0.0,0.0,0.0,0.0,0.0,0.0,0.0,0.0,0.0,0.0,0.0,0.0,0.0,0.0,0.0,0.0,0.0,0.0,0.0,0.0,0.0,0.0,0.0,0.0,0.0,0.0,0.0,0.0,0.0,0.0,0.0,0.0,0.0,0.0,0.0,0.0,0.0,0.0,0.0,0.0,0.0,0.0,0.0,0.0,0.0,0.0,0.0,0.0,0.0,0.0,0.0,0.0,0.0,0.0,0.0,0.0,0.0,0.0,0.0,0.0,0.0,0.0,0.0,0.0,0.0,0.0,0.0,0.0,0.0,0.0,0.0,0.0,0.0,0.0,0.0,0.0,0.0,0.0,0.0,0.0,0.0,0.0,0.0,0.0,0.0,0.0,0.0,0.0,0.0,0.0,0.0,0.0,0.0,0.0,0.0,0.0,0.0,0.0,0.0,0.0,0.0,0.0,0.0,0.0,0.0,0.0,0.0,0.0,0.0,0.0,0.0,0.0,0.0,0.0,0.0,0.0,0.0,0.0,0.0,0.0,0.0,0.0,0.0,0.0,0.0,0.0,0.0,0.0,0.0,0.0,0.0,0.0,0.0,0.0,0.0,0.0,0.0,0.0,0.0,0.0,0.0,0.0,0.0,0.0,0.0,0.0,0.0,0.0,0.0,0.0,0.0,0.0,0.0,0.0,0.0,0.0,0.0,0.0,0.0,0.0,0.0,0.0,0.0,0.0,0.0,0.0,0.0,0.0,0.0,0.0,0.0,0.0,0.0,0.0,0.0,0.0,0.0,0.0,0.0,0.0,0.0,0.0,0.0,0.0,0.0,0.0,0.0,0.0,0.0,0.0,0.0,0.0,0.0,0.0,0.0,0.0,0.0,0.0,0.0,0.0,0.0,0.0,0.0,0.0,0.0,0.0,0.0,0.0,0.0,0.0,0.0,0.0,0.0,0.0,0.0,0.0,0.0,0.0,0.0,0.0,0.0,0.0,0.0,0.0,0.0,0.0,0.0,0.0,0.0,0.0,0.0,0.0,0.0,0.0,0.0,0.0,0.0,0.0,0.0,0.0,0.0,0.0,0.0,0.0,0.0,0.0,0.0,0.0,0.0,0.0,0.0,0.0,0.0,0.0,0.0,0.0,0.0,0.0,0.0,0.0,0.0,0.0,0.0,0.0,0.0,0.0,0.0,0.0,0.0,0.0,0.0,0.0,0.0,0.0,0.0,0.0,0.0,0.0,0.0,0.0,0.0,0.0,0.0,0.0,0.0,0.0,0.0,0.0,0.0,0.0,0.0,0.0,0.0,0.0,0.0,0.0,0.0,0.0,0.0,0.0,0.0,0.0,0.0,0.0,0.0,0.0,0.0,0.0,0.0,0.0,0.0,0.0,0.0,0.0,0.0,0.0,0.0,0.0,0.0,0.0,0.0,0.0,0.0,0.0,0.0,0.0,0.0,0.0,0.0,0.0,0.0,0.0,0.0,0.0,0.0,0.0,0.0,0.0,0.0,0.0,0.0,0.0,0.0,0.0,0.0,0.0,0.0,0.0,0.0,0.0,0.0,0.0,0.0,0.0,0.0,0.0,0.0,0.0,0.0,0.0,0.0,0.0,0.0,0.0,0.0,0.0,0.0,0.0,0.0,0.0,0.0,0.0,0.0,0.0,0.0,0.0,0.0,0.0,0.0,0.0,0.0,0.0,0.0,0.0,0.0,0.0,0.0,0.0,0.0,0.0,0.0,0.0,0.0,0.0,0.0,0.0,0.0,0.0,0.0,0.0,0.0,0.0,0.0,0.0,0.0,0.0,0.0,0.0,0.0,0.0,0.0,0.0,0.0,0.0,0.0,0.0,0.0,0.0,0.0,0.0,0.0,0.0,0.0,0.0,0.0,0.0,0.0,0.0,0.0,0.0,0.0,0.0,0.0,0.0,0.0,0.0,0.0,0.0,0.0,0.0,0.0,0.0,0.0,0.0,0.0,0.0,0.0,0.0,0.0,0.0,0.0,0.0,0.0,0.0,0.0,0.0,0.0,0.0,0.0,0.0,0.0,0.0,0.0,0.0,0.0,0.0,0.0,0.0,0.0,0.0,0.0,0.0,0.0,0.0,0.0,0.0,0.0,0.0,0.0,0.0,0.0,0.0,0.0,0.0,0.0,0.0,0.0,0.0,0.0,0.0,0.0,0.0,0.0,0.0,0.0,0.0,0.0,0.0,0.0,0.0,0.0,0.0,0.0,0.0,0.0,0.0,0.0,0.0,0.0,0.0,0.0,0.0,0.0,0.0,0.0,0.0,0.0,0.0,0.0,0.0,0.0,0.0,0.0,0.0,0.0,0.0,0.0,0.0,0.0,0.0,0.0,0.0,0.0,0.0,0.0,0.0,0.0,0.0,0.0,0.0,0.0,0.0,0.0,0.0,0.0,0.0,0.0,0.0,0.0,0.0,0.0,0.0,0.0,0.0,0.0,0.0,0.0,0.0,0.0,0.0,0.0,0.0,0.0,0.0,0.0,0.0,0.0,0.0,0.0,0.0,0.0,0.0,0.0,0.0,0.0,0.0,0.0,0.0,0.0,0.0,0.0,0.0,0.0,0.0,0.0,0.0,0.0,0.0,0.0,0.0,0.0,0.0,0.0,0.0,0.0,0.0,0.0,0.0,0.0,0.0,0.0,0.0,0.0,0.0,0.0,0.0,0.0,0.0,0.0,0.0,0.0,0.0,0.0,0.0,0.0,0.0,0.0,0.0,0.0,0.0,0.0,0.0,0.0,0.0,0.0,0.0,0.0,0.0,0.0,0.0,0.0,0.0,0.0,0.0,0.0,0.0,0.0,0.0,0.0,0.0,0.0,0.0,0.0,0.0,0.0,0.0,0.0,0.0,0.0,0.0,0.0,0.0,0.0,0.0,0.0,0.0,0.0,0.0,0.0,0.0,0.0,0.0,0.0,0.0,0.0,0.0,0.0,0.0,0.0,0.0,0.0,0.0,0.0,0.0,0.0,0.0,0.0,0.0,0.0,0.0,0.0,0.0,0.0,0.0,0.0,0.0,0.0,0.0,0.0,0.0,0.0,0.0,0.0,0.0,0.0,0.0,0.0,0.0,0.0,0.0,0.0,0.0,0.0,0.0,0.0,0.0,0.0,0.0,0.0,0.0,0.0,0.0,0.0,0.0,0.0,0.0,0.0,0.0,0.0,0.0,0.0,0.0,0.0,0.0,0.0,0.0,0.0,0.0,0.0,0.0,0.0,0.0,0.0,0.0,0.0,0.0,0.0,0.0,0.0,0.0,0.0,0.0,0.0,0.0,0.0,0.0,0.0,0.0,0.0,0.0,0.0,0.0,0.0,0.0,0.0,0.0,0.0,0.0,0.0,0.0,0.0,0.0,0.0,0.0,0.0,0.0,0.0,0.0,0.0,0.0,0.0,0.0,0.0,0.0,0.0,0.0,0.0,0.0,0.0,0.0,0.0,0.0,0.0,0.0,0.0,0.0,0.0,0.0,0.0,0.0,0.0,0.0,0.0,0.0,0.0,0.0,0.0,0.0,0.0,0.0,0.0,0.0,0.0,0.0,0.0,0.0,0.0,0.0,0.0,0.0,0.0,0.0,0.0,0.0,0.0,0.0,0.0,0.0,0.0,0.0,0.0,0.0,0.0,0.0,0.0,0.0,0.0,0.0,0.0,0.0,0.0,0.0,0.0,0.0,0.0,0.0,0.0,0.0,0.0,0.0,0.0,0.0,0.0,0.0,0.0,0.0,0.0,0.0,0.0,0.0,0.0,0.0,0.0,0.0,0.0,0.0,0.0,0.0,0.0,0.0,0.0,0.0,0.0,0.0,0.0,0.0,0.0,0.0,0.0,0.0,0.0,0.0,0.0,0.0,0.0,0.0,0.0,0.0,0.0,0.0,0.0,0.0,0.0,0.0,0.0,0.0,0.0,0.0,0.0,0.0,0.0,0.0,0.0,0.0,0.0,0.0,0.0,0.0,0.0,0.0,0.0,0.0,5.6434,0.0,0.0,0.0,5.63,0.0,0.0,0.0,0.0,0.0,0.0,0.0,0.0,0.0,0.0,0.0,0.0,0.0,0.0,0.0,0.0,0.0,0.0,0.0,0.0,0.0,0.0,0.0,0.0,0.0,0.0,0.0,0.0,0.0,0.0,0.0,0.0,0.0,0.0,0.0,0.0,0.0,0.0,0.0,0.0,0.0,0.0,0.0,0.0,0.0,0.0,0.0,0.0,0.0,0.0,0.0,0.0,0.0,0.0,0.0,0.0,0.0,0.0,0.0,0.0,0.0,0.0,0.0,0.0,0.0,0.0,0.0,0.0,0.0,0.0,0.0,0.0,0.0,0.0,0.0,0.0,0.0,0.0,0.0,0.0,0.0,0.0,0.0,0.0,0.0,0.0,0.0,0.0,0.0,0.0,0.0,0.0,0.0,0.0,0.0,0.0,0.0,0.0,0.0,0.0,0.0,0.0,0.0,0.0,0.0,0.0,0.0,0.0,0.0,0.0,5.6709,5.7167,5.7425,5.7244,5.6501,0.0,0.0,0.0,0.0,0.0,0.0,0.0,0.0,0.0,0.0,0.0,0.0,0.0,0.0,0.0,0.0,0.0,0.0,0.0,0.0,0.0,0.0,0.0,0.0,0.0,0.0,0.0,0.0,0.0,0.0,0.0,0.0,0.0,0.0,0.0,0.0,0.0,0.0,0.0,0.0,0.0,0.0,0.0,0.0,0.0,0.0,0.0,0.0,0.0,0.0,0.0,0.0,0.0,0.0,0.0,0.0,0.0,0.0,0.0,0.0,0.0,0.0,0.0,0.0,0.0,0.0,0.0,0.0,0.0,0.0,0.0,0.0,0.0,0.0,0.0,0.0,0.0,0.0,0.0,0.0,0.0,0.0,0.0,0.0,0.0,0.0,0.0,0.0,0.0,0.0,0.0,0.0,0.0,0.0,0.0,0.0,0.0,0.0,0.0,0.0,0.0,0.0,0.0,0.0,0.0,0.0,0.0,0.0,0.0,0.0,0.0,0.0,5.8052,5.7642,5.6654,0.0,0.0,0.0,0.0,0.0,0.0,0.0,0.0,0.0,0.0,0.0,0.0,0.0,0.0,0.0,0.0,0.0,0.0,0.0,0.0,0.0,0.0,0.0,0.0,0.0,0.0,0.0,0.0,0.0,0.0,0.0,0.0,0.0,0.0,0.0,0.0,0.0,0.0,0.0,0.0,0.0,0.0,0.0,0.0,0.0,0.0,0.0,0.0,0.0,0.0,0.0,0.0,0.0,0.0,0.0,0.0,0.0,0.0,0.0,0.0,0.0,0.0,0.0,0.0,0.0,0.0,0.0,0.0,0.0,0.0,0.0,0.0,0.0,0.0,0.0,0.0,0.0,0.0,0.0,0.0,0.0,0.0,0.0,0.0,0.0,0.0,0.0,0.0,0.0,0.0,0.0,0.0,0.0,0.0,0.0,0.0,0.0,0.0,0.0,0.0,0.0,0.0,0.0,0.0,0.0,0.0,0.0,0.0,0.0,0.0,5.8728,5.8767,5.9429,0.0,5.7384,0.0,0.0,0.0,0.0,0.0,0.0,0.0,0.0,0.0,0.0,0.0,0.0,0.0,0.0,0.0,0.0,0.0,0.0,0.0,0.0,0.0,0.0,0.0,0.0,0.0,0.0,0.0,0.0,0.0,0.0,0.0,0.0,0.0,0.0,0.0,0.0,0.0,0.0,0.0,0.0,0.0,0.0,0.0,0.0,0.0,0.0,0.0,0.0,0.0,0.0,0.0,0.0,0.0,0.0,0.0,0.0,0.0,0.0,0.0,0.0,0.0,0.0,0.0,0.0,0.0,0.0,0.0,0.0,0.0,0.0,0.0,0.0,0.0,0.0,0.0,0.0,0.0,0.0,0.0,0.0,0.0,0.0,0.0,0.0,0.0,0.0,0.0,0.0,0.0,0.0,0.0,0.0,0.0,0.0,0.0,0.0,0.0,0.0,0.0,0.0,0.0,0.0,0.0,0.0,0.0,0.0,0.0,0.0,0.0,0.0,5.9488,5.9488,5.9305,5.8856,0.0,0.0,0.0,0.0,0.0,0.0,0.0,0.0,0.0,0.0,0.0,0.0,0.0,0.0,0.0,0.0,0.0,0.0,0.0,0.0,0.0,0.0,0.0,0.0,0.0,0.0,0.0,0.0,0.0,0.0,0.0,0.0,0.0,0.0,0.0,0.0,0.0,0.0,0.0,0.0,0.0,0.0,0.0,0.0,0.0,0.0,0.0,0.0,0.0,0.0,0.0,0.0,0.0,0.0,0.0,0.0,0.0,0.0,0.0,0.0,0.0,0.0,0.0,0.0,0.0,0.0,0.0,0.0,0.0,0.0,0.0,0.0,0.0,0.0,0.0,0.0,0.0,0.0,0.0,0.0,0.0,0.0,0.0,0.0,0.0,0.0,0.0,0.0,0.0,0.0,0.0,0.0,0.0,0.0,0.0,0.0,0.0,0.0,0.0,0.0,0.0,0.0,0.0,0.0,0.0,0.0,0.0,0.0,0.0,0.0,5.9696,6.0226,6.0226,5.9853,5.9176,5.8169,0.0,0.0,0.0,0.0,0.0,0.0,0.0,0.0,0.0,0.0,0.0,0.0,0.0,0.0,0.0,0.0,0.0,0.0,0.0,0.0,0.0,0.0,0.0,0.0,0.0,0.0,0.0,0.0,0.0,0.0,0.0,0.0,0.0,0.0,0.0,0.0,0.0,0.0,0.0,0.0,0.0,0.0,0.0,0.0,0.0,0.0,0.0,0.0,0.0,0.0,0.0,0.0,0.0,0.0,0.0,0.0,0.0,0.0,0.0,0.0,0.0,0.0,0.0,0.0,0.0,0.0,0.0,0.0,0.0,0.0,0.0,0.0,0.0,0.0,0.0,0.0,0.0,0.0,0.0,0.0,0.0,0.0,0.0,0.0,0.0,0.0,0.0,0.0,0.0,0.0,0.0,0.0,0.0,0.0,0.0,0.0,0.0,0.0,0.0,0.0,0.0,0.0,0.0,0.0,0.0,0.0,0.0,0.0,5.8748,6.0264,6.106,6.1098,6.1678,6.0513,0.0,0.0,0.0,0.0,0.0,0.0,0.0,0.0,0.0,0.0,0.0,0.0,0.0,0.0,0.0,0.0,0.0,0.0,0.0,0.0,0.0,0.0,0.0,0.0,0.0,0.0,0.0,0.0,0.0,0.0,0.0,0.0,0.0,0.0,0.0,0.0,0.0,0.0,0.0,0.0,0.0,0.0,0.0,0.0,0.0,0.0,0.0,0.0,0.0,0.0,0.0,0.0,0.0,0.0,0.0,0.0,0.0,0.0,0.0,0.0,0.0,0.0,0.0,0.0,0.0,0.0,0.0,0.0,0.0,0.0,0.0,0.0,0.0,0.0,0.0,0.0,0.0,0.0,0.0,0.0,0.0,0.0,0.0,0.0,0.0,0.0,0.0,0.0,0.0,0.0,0.0,0.0,0.0,0.0,0.0,0.0,0.0,0.0,0.0,0.0,0.0,0.0,0.0,0.0,0.0,0.0,0.0,0.0,0.0,6.0226,6.1363,6.2463,6.3448,6.2239,6.0619,0.0,0.0,0.0,0.0,0.0,0.0,0.0,0.0,0.0,0.0,0.0,0.0,0.0,0.0,0.0,0.0,0.0,0.0,0.0,0.0,0.0,0.0,0.0,0.0,0.0,0.0,0.0,0.0,0.0,0.0,0.0,0.0,0.0,0.0,0.0,0.0,0.0,0.0,0.0,0.0,0.0,0.0,0.0,0.0,0.0,0.0,0.0,0.0,0.0,0.0,0.0,0.0,0.0,0.0,0.0,0.0,0.0,0.0,0.0,0.0,0.0,0.0,0.0,0.0,0.0,0.0,0.0,0.0,0.0,0.0,0.0,0.0,0.0,0.0,0.0,0.0,0.0,0.0,0.0,0.0,0.0,0.0,0.0,0.0,0.0,0.0,0.0,0.0,0.0,0.0,0.0,0.0,0.0,0.0,0.0,0.0,0.0,0.0,0.0,0.0,0.0,0.0,0.0,0.0,0.0,0.0,0.0,0.0,0.0,6.2235,6.2917,6.3751,6.4775,6.2959,6.1035,0.0,0.0,0.0,0.0,0.0,0.0,0.0,0.0,0.0,0.0,0.0,0.0,0.0,0.0,0.0,0.0,0.0,0.0,0.0,0.0,0.0,0.0,0.0,0.0,0.0,0.0,0.0,0.0,0.0,0.0,0.0,0.0,0.0,0.0,0.0,0.0,0.0,0.0,0.0,0.0,0.0,0.0,0.0,0.0,0.0,0.0,0.0,0.0,0.0,0.0,0.0,0.0,0.0,0.0,0.0,0.0,0.0,0.0,0.0,0.0,0.0,0.0,0.0,0.0,0.0,0.0,0.0,0.0,0.0,0.0,0.0,0.0,0.0,0.0,0.0,0.0,0.0,0.0,0.0,0.0,0.0,0.0,0.0,0.0,0.0,0.0,0.0,0.0,0.0,0.0,0.0,0.0,0.0,0.0,0.0,0.0,0.0,0.0,0.0,0.0,0.0,0.0,0.0,0.0,0.0,0.0,0.0,0.0,6.2387,6.4737,6.4888,6.4964,6.4926,6.4022,6.1911,0.0,0.0,0.0,0.0,0.0,0.0,0.0,0.0,0.0,0.0,0.0,0.0,0.0,0.0,0.0,0.0,0.0,0.0,0.0,0.0,0.0,0.0,0.0,0.0,0.0,0.0,0.0,0.0,0.0,0.0,0.0,0.0,0.0,0.0,0.0,0.0,0.0,0.0,0.0,0.0,0.0,0.0,0.0,0.0,0.0,0.0,0.0,0.0,0.0,0.0,0.0,0.0,0.0,0.0,0.0,0.0,0.0,0.0,0.0,0.0,0.0,0.0,0.0,0.0,0.0,0.0,0.0,0.0,0.0,0.0,0.0,0.0,0.0,0.0,0.0,0.0,0.0,0.0,0.0,0.0,0.0,0.0,0.0,0.0,0.0,0.0,0.0,0.0,0.0,0.0,0.0,0.0,0.0,0.0,0.0,0.0,0.0,0.0,0.0,0.0,0.0,0.0,0.0,0.0,0.0,0.0,0.0,0.0,0.0,6.4993,6.6201,6.6844,6.6806,6.5335,6.3448,0.0,0.0,0.0,0.0,0.0,0.0,0.0,0.0,0.0,0.0,0.0,0.0,0.0,0.0,0.0,0.0,0.0,0.0,0.0,0.0,0.0,0.0,0.0,0.0,0.0,0.0,0.0,0.0,0.0,0.0,0.0,0.0,0.0,0.0,0.0,0.0,0.0,0.0,0.0,0.0,0.0,0.0,0.0,0.0,0.0,0.0,0.0,0.0,0.0,0.0,0.0,0.0,0.0,0.0,0.0,0.0,0.0,0.0,0.0,0.0,0.0,0.0,0.0,0.0,0.0,0.0,0.0,0.0,0.0,0.0,0.0,0.0,0.0,0.0,0.0,0.0,0.0,0.0,0.0,0.0,0.0,0.0,0.0,0.0,0.0,0.0,0.0,0.0,0.0,0.0,0.0,0.0,0.0,0.0,0.0,0.0,0.0,0.0,0.0,0.0,0.0,0.0,0.0,0.0,0.0,0.0,0.0,0.0,0.0,6.8011,6.9074,6.9302,6.8693,6.695,6.5023,6.2845,0.0,0.0,0.0,0.0,0.0,0.0,0.0,0.0,0.0,0.0,0.0,0.0,0.0,0.0,0.0,0.0,0.0,0.0,0.0,0.0,0.0,0.0,0.0,0.0,0.0,0.0,0.0,0.0,0.0,0.0,0.0,0.0,0.0,0.0,0.0,0.0,0.0,0.0,0.0,0.0,0.0,0.0,0.0,0.0,0.0,0.0,0.0,0.0,0.0,0.0,0.0,0.0,0.0,0.0,0.0,0.0,0.0,0.0,0.0,0.0,0.0,0.0,0.0,0.0,0.0,0.0,0.0,0.0,0.0,0.0,0.0,0.0,0.0,0.0,0.0,0.0,0.0,0.0,0.0,0.0,0.0,0.0,0.0,0.0,0.0,0.0,0.0,0.0,0.0,0.0,0.0,0.0,0.0,0.0,0.0,0.0,0.0,0.0,0.0,0.0,0.0,0.0,0.0,0.0,0.0,0.0,0.0,0.0,7.3089,7.3212,7.2342,7.0586,6.8908,6.675,0.0,0.0,0.0,0.0,0.0,0.0,0.0,0.0,0.0,0.0,0.0,0.0,0.0,0.0,0.0,0.0,0.0,0.0,0.0,0.0,0.0,0.0,0.0,0.0,0.0,0.0,0.0,0.0,0.0,0.0,0.0,0.0,0.0,0.0,0.0,0.0,0.0,0.0,0.0,0.0,0.0,0.0,0.0,0.0,0.0,0.0,0.0,0.0,0.0,0.0,0.0,0.0,0.0,0.0,0.0,0.0,0.0,0.0,0.0,0.0,0.0,0.0,0.0,0.0,0.0,0.0,0.0,0.0,0.0,0.0,0.0,0.0,0.0,0.0,0.0,0.0,0.0,0.0,0.0,0.0,0.0,0.0,0.0,0.0,0.0,0.0,0.0,0.0,0.0,0.0,0.0,0.0,0.0,0.0,0.0,0.0,0.0,0.0,0.0,0.0,0.0,0.0,0.0,0.0,0.0,0.0,0.0,0.0,0.0,7.4938,7.6881,7.6427,7.352,7.1631,6.9404,0.0,0.0,0.0,0.0,0.0,0.0,0.0,0.0,0.0,0.0,0.0,0.0,0.0,0.0,0.0,0.0,0.0,0.0,0.0,0.0,0.0,0.0,0.0,0.0,0.0,0.0,0.0,0.0,0.0,0.0,0.0,0.0,0.0,0.0,0.0,0.0,0.0,0.0,0.0,0.0,0.0,0.0,0.0,0.0,0.0,0.0,0.0,0.0,0.0,0.0,0.0,0.0,0.0,0.0,0.0,0.0,0.0,0.0,0.0,0.0,0.0,0.0,0.0,0.0,0.0,0.0,0.0,0.0,0.0,0.0,0.0,0.0,0.0,0.0,0.0,0.0,0.0,0.0,0.0,0.0,0.0,0.0,0.0,0.0,0.0,0.0,0.0,0.0,0.0,0.0,0.0,0.0,0.0,0.0,0.0,0.0,0.0,0.0,0.0,0.0,0.0,0.0,0.0,0.0,0.0,0.0,0.0,0.0,7.4877,7.7801,7.9774,7.9652,7.7354,7.4779,7.2286,0.0,0.0,0.0,0.0,0.0,0.0,0.0,0.0,0.0,0.0,0.0,0.0,0.0,0.0,0.0,0.0,0.0,0.0,0.0,0.0,0.0,0.0,0.0,0.0,0.0,0.0,0.0,0.0,0.0,0.0,0.0,0.0,0.0,0.0,0.0,0.0,0.0,0.0,0.0,0.0,0.0,0.0,0.0,0.0,0.0,0.0,0.0,0.0,0.0,0.0,0.0,0.0,0.0,0.0,0.0,0.0,0.0,0.0,0.0,0.0,0.0,0.0,0.0,0.0,0.0,0.0,0.0,0.0,0.0,0.0,0.0,0.0,0.0,0.0,0.0,0.0,0.0,0.0,0.0,0.0,0.0,0.0,0.0,0.0,0.0,0.0,0.0,0.0,0.0,0.0,0.0,0.0,0.0,0.0,0.0,0.0,0.0,0.0,0.0,0.0,0.0,0.0,0.0,0.0,0.0,0.0,0.0,0.0,7.6777,8.0831,8.2073,8.2362,8.1554,7.8091,7.513,0.0,0.0,0.0,0.0,0.0,0.0,0.0,0.0,0.0,0.0,0.0,0.0,0.0,0.0,0.0,0.0,0.0,0.0,0.0,0.0,0.0,0.0,0.0,0.0,0.0,0.0,0.0,0.0,0.0,0.0,0.0,0.0,0.0,0.0,0.0,0.0,0.0,0.0,0.0,0.0,0.0,0.0,0.0,0.0,0.0,0.0,0.0,0.0,0.0,0.0,0.0,0.0,0.0,0.0,0.0,0.0,0.0,0.0,0.0,0.0,0.0,0.0,0.0,0.0,0.0,0.0,0.0,0.0,0.0,0.0,0.0,0.0,0.0,0.0,0.0,0.0,0.0,0.0,0.0,0.0,0.0,0.0,0.0,0.0,0.0,0.0,0.0,0.0,0.0,0.0,0.0,0.0,0.0,0.0,0.0,0.0,0.0,0.0,0.0,0.0,0.0,0.0,0.0,0.0,0.0,0.0,0.0,0.0,7.8803,8.1815,8.4105,8.5209,8.5016,8.0932,7.6925,0.0,0.0,0.0,0.0,0.0,0.0,0.0,0.0,0.0,0.0,0.0,0.0,0.0,0.0,0.0,0.0,0.0,0.0,0.0,0.0,0.0,0.0,0.0,0.0,0.0,0.0,0.0,0.0,0.0,0.0,0.0,0.0,0.0,0.0,0.0,0.0,0.0,0.0,0.0,0.0,0.0,0.0,0.0,0.0,0.0,0.0,0.0,0.0,5.6564,0.0,0.0,0.0,0.0,0.0,0.0,0.0,0.0,0.0,0.0,0.0,0.0,0.0,0.0,0.0,0.0,0.0,0.0,0.0,0.0,0.0,0.0,0.0,0.0,0.0,0.0,0.0,0.0,0.0,0.0,0.0,0.0,0.0,0.0,0.0,0.0,0.0,0.0,0.0,0.0,0.0,0.0,0.0,0.0,0.0,0.0,0.0,0.0,0.0,0.0,0.0,0.0,0.0,0.0,0.0,0.0,0.0,0.0,0.0,8.0643,8.3278,8.5493,8.6675,8.6594,8.3576,8.0098,0.0,0.0,0.0,0.0,0.0,0.0,0.0,0.0,0.0,0.0,0.0,0.0,0.0,0.0,0.0,0.0,0.0,0.0,0.0,0.0,0.0,0.0,0.0,0.0,0.0,0.0,0.0,0.0,0.0,0.0,0.0,0.0,0.0,0.0,0.0,0.0,0.0,0.0,0.0,0.0,0.0,0.0,0.0,0.0,0.0,0.0,0.0,0.0,0.0,0.0,0.0,0.0,0.0,0.0,0.0,0.0,0.0,0.0,0.0,0.0,0.0,0.0,0.0,0.0,0.0,0.0,0.0,0.0,0.0,0.0,0.0,0.0,0.0,0.0,0.0,0.0,0.0,0.0,0.0,0.0,0.0,0.0,0.0,0.0,0.0,0.0,0.0,0.0,0.0,0.0,0.0,0.0,0.0,0.0,0.0,0.0,0.0,0.0,0.0,0.0,0.0,0.0,0.0,0.0,0.0,0.0,0.0,7.8479,8.199,8.4703,8.6652,8.7645,8.7714,8.6031,8.3431,7.9918,0.0,0.0,0.0,0.0,0.0,0.0,0.0,0.0,0.0,0.0,0.0,0.0,0.0,0.0,0.0,0.0,0.0,0.0,0.0,0.0,0.0,0.0,0.0,0.0,0.0,0.0,0.0,0.0,0.0,0.0,0.0,0.0,0.0,0.0,0.0,0.0,0.0,0.0,5.8295,5.9924,0.0,0.0,0.0,0.0,0.0,0.0,0.0,0.0,5.8236,0.0,0.0,0.0,0.0,0.0,0.0,0.0,0.0,0.0,0.0,0.0,0.0,0.0,0.0,0.0,0.0,0.0,0.0,0.0,0.0,0.0,0.0,0.0,0.0,0.0,0.0,0.0,0.0,0.0,0.0,0.0,0.0,0.0,0.0,0.0,0.0,0.0,0.0,0.0,0.0,0.0,0.0,0.0,0.0,0.0,0.0,0.0,0.0,0.0,0.0,0.0,0.0,0.0,0.0,0.0,0.0,7.5053,7.8785,8.2258,8.5547,8.8073,8.9376,8.9374,8.7763,8.5232,8.1674,0.0,0.0,0.0,0.0,0.0,0.0,0.0,0.0,0.0,0.0,0.0,0.0,0.0,0.0,0.0,0.0,0.0,0.0,0.0,0.0,0.0,0.0,0.0,0.0,0.0,0.0,0.0,0.0,0.0,0.0,0.0,0.0,0.0,0.0,0.0,0.0,0.0,0.0,0.0,6.264,6.3692,0.0,0.0,0.0,0.0,0.0,0.0,0.0,0.0,5.9974,0.0,0.0,0.0,0.0,0.0,0.0,0.0,0.0,0.0,0.0,0.0,0.0,0.0,0.0,0.0,0.0,0.0,0.0,0.0,0.0,0.0,0.0,0.0,0.0,0.0,0.0,0.0,0.0,0.0,0.0,0.0,0.0,0.0,0.0,0.0,0.0,0.0,0.0,0.0,0.0,0.0,0.0,0.0,0.0,0.0,0.0,0.0,0.0,0.0,0.0,0.0,0.0,0.0,0.0,0.0,7.5893,7.9474,8.2912,8.6317,8.8079,8.9227,8.9648,8.7614,8.5084,0.0,0.0,0.0,0.0,0.0,0.0,0.0,0.0,0.0,0.0,0.0,0.0,0.0,0.0,0.0,0.0,0.0,0.0,0.0,0.0,0.0,0.0,0.0,0.0,0.0,0.0,0.0,0.0,0.0,0.0,0.0,0.0,0.0,0.0,0.0,0.0,0.0,0.0,0.0,0.0,6.4402,6.5733,6.6507,0.0,0.0,0.0,0.0,0.0,0.0,6.322,6.2068,0.0,0.0,0.0,0.0,0.0,0.0,0.0,0.0,0.0,0.0,0.0,0.0,0.0,0.0,0.0,0.0,0.0,0.0,0.0,0.0,0.0,0.0,0.0,0.0,0.0,0.0,0.0,0.0,0.0,0.0,0.0,0.0,0.0,0.0,0.0,0.0,0.0,0.0,0.0,0.0,0.0,0.0,0.0,0.0,0.0,0.0,0.0,0.0,0.0,0.0,0.0,0.0,0.0,0.0,0.0,7.6465,8.0011,8.3487,8.6815,8.7963,8.8806,8.9497,8.7274,8.4709,0.0,0.0,0.0,0.0,0.0,0.0,0.0,0.0,0.0,0.0,0.0,0.0,0.0,0.0,0.0,0.0,0.0,0.0,0.0,0.0,0.0,0.0,0.0,0.0,0.0,0.0,0.0,0.0,0.0,0.0,0.0,0.0,0.0,0.0,0.0,0.0,0.0,0.0,0.0,0.0,0.0,6.7689,6.8245,6.8564,0.0,0.0,0.0,0.0,6.6096,6.5825,0.0,0.0,0.0,0.0,0.0,0.0,0.0,0.0,0.0,0.0,0.0,0.0,0.0,0.0,0.0,0.0,0.0,0.0,0.0,0.0,0.0,0.0,0.0,0.0,0.0,0.0,0.0,0.0,0.0,0.0,0.0,0.0,0.0,0.0,0.0,0.0,0.0,0.0,0.0,0.0,0.0,0.0,0.0,0.0,0.0,0.0,0.0,0.0,0.0,0.0,0.0,0.0,0.0,0.0,0.0,0.0,7.6465,8.0011,8.341,8.6696,8.846,8.938,8.9456,8.7811,8.5284,0.0,0.0,0.0,0.0,0.0,0.0,0.0,0.0,0.0,0.0,0.0,0.0,0.0,0.0,0.0,0.0,0.0,0.0,0.0,0.0,0.0,0.0,0.0,0.0,0.0,0.0,0.0,0.0,0.0,0.0,0.0,0.0,0.0,0.0,0.0,0.0,0.0,0.0,0.0,0.0,0.0,6.9559,7.1985,7.1833,7.1664,0.0,0.0,7.0983,6.9975,6.9721,0.0,0.0,0.0,0.0,0.0,0.0,0.0,0.0,0.0,0.0,0.0,0.0,0.0,0.0,0.0,0.0,0.0,0.0,0.0,0.0,0.0,0.0,0.0,0.0,0.0,0.0,0.0,0.0,0.0,0.0,0.0,0.0,0.0,0.0,0.0,0.0,0.0,0.0,0.0,0.0,0.0,0.0,0.0,0.0,0.0,0.0,0.0,0.0,0.0,0.0,0.0,0.0,0.0,0.0,0.0,7.3307,7.7718,8.081,8.4246,8.79,8.9239,8.9664,8.9206,8.8481,8.6227,0.0,0.0,0.0,0.0,0.0,0.0,0.0,0.0,0.0,0.0,0.0,0.0,0.0,0.0,0.0,0.0,0.0,0.0,0.0,0.0,0.0,0.0,0.0,0.0,0.0,0.0,0.0,0.0,0.0,0.0,0.0,0.0,0.0,0.0,0.0,0.0,0.0,0.0,0.0,0.0,0.0,0.0,7.2384,7.3082,0.0,0.0,0.0,7.26,7.2214,0.0,0.0,0.0,0.0,0.0,0.0,0.0,0.0,0.0,0.0,0.0,0.0,0.0,0.0,0.0,0.0,0.0,0.0,0.0,0.0,0.0,0.0,0.0,0.0,0.0,0.0,0.0,0.0,0.0,0.0,0.0,0.0,0.0,0.0,0.0,0.0,0.0,0.0,0.0,0.0,0.0,0.0,0.0,0.0,0.0,0.0,0.0,0.0,0.0,0.0,0.0,0.0,0.0,0.0,0.0,0.0,0.0,7.9043,8.1949,8.5342,8.9177,9.0083,9.0198,8.9672,8.9361,0.0,0.0,0.0,0.0,0.0,0.0,0.0,0.0,0.0,0.0,0.0,0.0,0.0,0.0,0.0,0.0,0.0,0.0,0.0,0.0,0.0,0.0,0.0,0.0,0.0,0.0,0.0,5.4027,0.0,0.0,0.0,0.0,0.0,0.0,0.0,0.0,0.0,0.0,0.0,0.0,0.0,0.0,7.2374,7.358,7.4896,7.5676,0.0,0.0,7.4933,7.4896,7.3093,7.0741,0.0,0.0,0.0,0.0,0.0,0.0,0.0,0.0,0.0,0.0,0.0,0.0,0.0,0.0,0.0,0.0,0.0,0.0,0.0,0.0,0.0,0.0,0.0,0.0,0.0,0.0,0.0,0.0,0.0,0.0,0.0,0.0,0.0,0.0,0.0,0.0,0.0,0.0,0.0,0.0,0.0,0.0,0.0,0.0,0.0,0.0,0.0,0.0,0.0,0.0,0.0,0.0,0.0,0.0,0.0,7.9878,8.3434,8.679,9.0015,9.0789,9.1207,9.1309,9.0447,8.8045,0.0,0.0,0.0,0.0,0.0,0.0,0.0,0.0,0.0,0.0,0.0,0.0,0.0,0.0,0.0,0.0,0.0,0.0,0.0,0.0,0.0,0.0,0.0,0.0,0.0,0.0,0.0,0.0,0.0,0.0,0.0,0.0,0.0,0.0,0.0,0.0,0.0,0.0,0.0,0.0,0.0,7.4829,7.7515,7.8611,7.9391,0.0,0.0,7.9094,7.9056,7.7842,7.5395,7.0799,0.0,0.0,0.0,0.0,0.0,0.0,0.0,0.0,0.0,0.0,0.0,0.0,0.0,0.0,0.0,0.0,0.0,0.0,0.0,0.0,0.0,0.0,0.0,0.0,0.0,0.0,0.0,0.0,0.0,0.0,0.0,0.0,0.0,0.0,0.0,0.0,0.0,0.0,0.0,0.0,0.0,0.0,0.0,0.0,0.0,0.0,0.0,0.0,0.0,0.0,0.0,0.0,0.0,7.6344,8.0629,8.373,8.6996,9.0521,9.1862,9.2531,9.2493,9.2682,9.0915,0.0,0.0,0.0,0.0,0.0,0.0,0.0,0.0,0.0,0.0,0.0,0.0,0.0,0.0,0.0,0.0,0.0,0.0,0.0,0.0,0.0,0.0,0.0,0.0,0.0,0.0,0.0,0.0,6.0617,6.0907,6.0885,0.0,0.0,0.0,0.0,0.0,0.0,0.0,0.0,0.0,0.0,7.6642,7.9371,8.0505,0.0,0.0,8.1545,8.0931,8.0696,7.7841,7.4749,7.2227,6.7891,0.0,0.0,0.0,0.0,0.0,0.0,0.0,0.0,0.0,0.0,0.0,0.0,0.0,0.0,0.0,0.0,0.0,0.0,0.0,0.0,0.0,0.0,0.0,0.0,0.0,0.0,0.0,0.0,0.0,0.0,0.0,0.0,0.0,0.0,0.0,0.0,0.0,0.0,0.0,0.0,0.0,0.0,0.0,0.0,0.0,0.0,0.0,0.0,0.0,0.0,0.0,0.0,7.7065,8.1452,8.4442,8.7665,9.118,9.3093,9.4022,9.3876,9.4497,9.3154,0.0,0.0,0.0,0.0,0.0,0.0,0.0,0.0,0.0,0.0,0.0,0.0,0.0,0.0,0.0,0.0,0.0,0.0,0.0,0.0,0.0,0.0,0.0,0.0,0.0,0.0,0.0,0.0,6.1953,6.1945,6.0913,0.0,0.0,0.0,0.0,0.0,0.0,0.0,0.0,0.0,0.0,7.8311,8.0765,8.1747,8.2378,8.2713,8.2023,8.1289,8.0911,7.7924,7.5175,7.3653,0.0,0.0,0.0,0.0,0.0,0.0,0.0,0.0,0.0,0.0,0.0,0.0,0.0,0.0,0.0,0.0,0.0,0.0,0.0,0.0,0.0,0.0,0.0,0.0,0.0,0.0,0.0,0.0,0.0,0.0,6.2068,0.0,0.0,0.0,0.0,0.0,0.0,0.0,0.0,0.0,0.0,0.0,0.0,0.0,0.0,0.0,0.0,0.0,0.0,0.0,0.0,0.0,0.0,7.9039,8.2323,8.5811,8.907,9.2012,9.4346,9.5536,9.5574,9.5442,9.4274,9.1838,0.0,0.0,0.0,0.0,0.0,0.0,0.0,0.0,0.0,0.0,0.0,0.0,0.0,0.0,0.0,0.0,0.0,0.0,0.0,0.0,0.0,0.0,0.0,0.0,0.0,0.0,6.222,6.2287,6.1855,0.0,0.0,0.0,0.0,0.0,0.0,0.0,0.0,0.0,0.0,7.7069,7.9945,8.1731,8.2505,8.2645,8.1941,8.0886,8.0051,7.99,7.9062,7.7663,0.0,0.0,0.0,0.0,0.0,0.0,0.0,0.0,0.0,0.0,0.0,0.0,0.0,0.0,0.0,0.0,0.0,0.0,0.0,0.0,0.0,0.0,0.0,0.0,0.0,0.0,0.0,6.432,6.6896,0.0,0.0,0.0,0.0,0.0,0.0,0.0,0.0,0.0,0.0,0.0,7.3131,7.3207,0.0,0.0,0.0,0.0,0.0,0.0,0.0,0.0,0.0,0.0,0.0,0.0,7.9768,8.3915,8.6366,8.9535,9.3531,9.4783,9.5949,9.6944,9.7019,9.5442,9.2027,0.0,0.0,0.0,0.0,0.0,0.0,0.0,0.0,0.0,0.0,0.0,0.0,0.0,0.0,0.0,0.0,0.0,0.0,0.0,0.0,0.0,0.0,0.0,0.0,0.0,6.2732,0.0,0.0,0.0,0.0,0.0,0.0,0.0,0.0,0.0,0.0,0.0,7.2812,7.6178,7.8738,8.1042,8.3136,8.3473,8.373,0.0,0.0,0.0,0.0,0.0,0.0,0.0,0.0,0.0,0.0,0.0,0.0,0.0,0.0,6.017,5.7711,5.684,5.6464,5.63,0.0,0.0,0.0,0.0,0.0,0.0,0.0,0.0,0.0,0.0,0.0,0.0,0.0,0.0,6.7407,0.0,6.9244,0.0,0.0,0.0,0.0,0.0,0.0,0.0,0.0,7.3138,7.4259,7.5871,7.6178,7.6332,0.0,7.6261,7.5283,0.0,0.0,0.0,0.0,0.0,0.0,0.0,0.0,8.1697,8.5574,8.8236,9.1231,9.4612,9.5743,9.6756,9.7665,9.7824,9.6363,9.32,9.0238,8.717,0.0,0.0,0.0,0.0,0.0,0.0,0.0,0.0,0.0,0.0,0.0,0.0,0.0,0.0,0.0,0.0,0.0,0.0,0.0,0.0,0.0,0.0,0.0,6.4522,0.0,0.0,0.0,0.0,0.0,0.0,0.0,0.0,0.0,6.9067,7.2183,7.5736,7.8903,8.0836,8.249,8.3867,0.0,0.0,0.0,0.0,0.0,0.0,0.0,7.8659,7.7117,7.5088,7.2914,7.0866,6.9058,6.7232,6.5235,0.0,0.0,5.9949,5.8962,5.8561,5.8054,5.8395,5.8761,5.879,5.8967,5.9428,0.0,0.0,0.0,0.0,0.0,0.0,0.0,0.0,6.924,7.042,0.0,7.1052,0.0,0.0,0.0,0.0,0.0,7.2531,0.0,0.0,7.7456,7.8404,7.8545,7.9352,7.9774,7.9812,7.967,7.9599,7.9412,7.7117,0.0,0.0,0.0,0.0,0.0,0.0,8.477,8.7284,9.1241,9.4027,9.5497,9.7078,9.7824,9.7741,9.7741,9.7012,9.5439,9.3012,9.055,8.8232,8.4102,0.0,0.0,0.0,0.0,0.0,0.0,0.0,0.0,0.0,0.0,0.0,0.0,0.0,0.0,0.0,0.0,0.0,0.0,0.0,0.0,6.519,0.0,0.0,0.0,0.0,0.0,0.0,0.0,0.0,0.0,0.0,7.3548,7.5696,7.8388,8.1583,0.0,0.0,0.0,0.0,8.4412,8.3312,8.199,8.0768,7.9645,8.0042,7.9762,7.7744,0.0,0.0,7.3117,7.185,7.0607,6.918,6.743,6.5176,6.1248,6.0547,6.0244,5.9848,6.0253,6.0746,6.1216,6.1373,6.1619,7.613,0.0,0.0,0.0,0.0,7.093,7.2198,7.4388,7.3274,7.4072,7.613,7.4784,0.0,0.0,0.0,0.0,0.0,0.0,7.738,7.8551,7.9089,7.9966,8.1177,8.1446,8.1869,8.2484,8.2413,8.2413,8.2413,8.2304,8.0831,7.8139,0.0,0.0,0.0,0.0,8.6872,8.9856,9.3175,9.5668,9.7153,9.8125,9.8591,9.8567,9.8567,9.8079,9.7088,9.5794,9.3952,9.1414,8.8012,0.0,0.0,0.0,0.0,0.0,0.0,0.0,0.0,0.0,0.0,0.0,0.0,0.0,0.0,0.0,0.0,0.0,0.0,0.0,6.6823,6.8011,6.8482,0.0,0.0,0.0,0.0,0.0,0.0,0.0,0.0,0.0,7.9149,7.9576,8.0431,0.0,0.0,8.4471,8.478,8.4949,8.5,8.501,8.3701,0.0,8.232,8.0456,7.8763,7.7802,7.5926,7.422,7.3335,7.1803,7.0128,6.8703,6.8024,6.6991,6.4865,6.3544,6.2973,6.2714,6.2864,6.3374,6.4306,6.4605,6.4845,8.14,7.9323,7.6784,7.5601,7.5379,7.5033,7.6032,7.7916,7.7032,7.7677,7.9208,7.84,7.8446,7.9184,7.8007,0.0,0.0,0.0,8.0524,8.1129,8.1508,8.2227,8.3324,8.367,8.4247,8.5093,8.544,8.544,8.5093,8.5945,8.4963,8.2449,0.0,0.0,8.4681,8.7193,8.9578,9.1741,9.5122,9.7605,9.8938,9.8929,9.8905,9.8905,9.8905,9.8679,9.8191,9.7426,9.617,9.4211,9.1715,8.8579,0.0,0.0,0.0,0.0,0.0,0.0,0.0,0.0,0.0,0.0,0.0,6.424,6.4392,0.0,0.0,0.0,6.738,6.8234,7.0252,7.118,0.0,0.0,0.0,0.0,0.0,0.0,0.0,7.5273,7.7515,7.9965,8.2586,8.3032,8.3477,8.448,8.4855,8.5323,8.6074,0.0,8.573,8.6677,8.5504,8.4469,8.4335,8.2531,8.0612,7.9211,7.669,7.4872,7.462,7.2972,7.1186,6.9912,6.9237,6.8574,6.7421,6.6311,6.5383,6.4904,6.5024,6.5473,6.6251,6.6279,6.6421,8.517,8.4709,7.9977,7.8361,7.8823,7.8092,7.9131,8.1208,8.0439,8.0977,8.2324,8.1631,8.1721,8.2391,8.1524,0.0,8.2222,8.2949,8.333,8.3553,8.4387,8.4916,8.5176,8.5978,8.6748,8.7632,8.8402,8.8363,8.7632,8.8294,8.8185,8.7379,8.6469,8.6699,8.8095,9.0711,9.2398,9.2936,9.6847,9.9455,10.0531,9.943,9.8905,9.8905,9.8905,9.8905,9.8905,9.8191,9.744,9.6614,9.5075,9.2313,8.8298,0.0,0.0,0.0,0.0,0.0,0.0,0.0,0.0,0.0,0.0,0.0,0.0,0.0,0.0,0.0,7.3811,0.0,7.3781,7.4487,0.0,0.0,0.0,7.1924,7.2834,7.3722,7.5647,7.9216,0.0,0.0,8.4406,8.5855,8.6759,8.6796,8.6454,8.6487,8.7563,8.6644,8.6528,8.8128,8.7184,8.6153,8.5704,8.4757,8.3071,8.0547,7.8618,7.6887,7.634,7.4869,7.3352,7.1841,7.085,6.9871,6.9183,6.8555,6.7897,6.67,6.6789,6.7178,6.7508,6.7349,6.739,8.7401,8.6632,8.4786,8.3362,8.2362,8.217,8.2439,8.2978,8.2785,8.2901,8.3285,8.3093,8.3619,8.4634,8.4703,8.4631,8.4477,8.4213,8.4479,8.5202,8.543,8.6307,8.7606,8.7944,8.8517,8.9286,8.9517,8.9517,8.9325,8.9483,8.9448,8.9184,8.8844,8.8689,8.8896,9.1207,9.2555,9.2936,9.6965,9.9441,10.0206,9.9355,9.8905,9.8905,9.8905,9.8905,9.8905,9.8717,9.8529,9.8304,9.6727,9.4752,9.2286,8.7191,0.0,0.0,0.0,0.0,0.0,0.0,0.0,0.0,0.0,6.9447,6.8889,0.0,7.2197,0.0,7.7142,7.8462,7.7273,7.783,0.0,0.0,7.679,7.6433,7.8589,7.9003,8.001,8.225,8.3456,8.4643,8.6054,8.6249,8.6435,8.7025,8.7003,8.699,8.7302,8.7268,8.7478,8.831,8.7897,8.6988,8.5887,8.3088,8.0613,7.8259,7.7519,7.6834,7.5684,7.5007,7.3908,7.2337,7.1637,7.1018,6.9991,7.035,7.059,6.9871,6.9093,6.9004,7.038,7.045,7.0325,8.8171,8.7363,8.6863,8.594,8.467,8.4362,8.4593,8.5247,8.4863,8.4939,8.5286,8.5286,8.5685,8.6314,8.646,8.6619,8.6662,8.5934,8.5857,8.6391,8.6811,8.7535,8.8493,8.9021,8.9671,9.0479,9.0479,9.0479,9.0479,9.0479,9.0444,9.0409,9.0608,9.0606,9.0351,9.2138,9.3453,9.4368,9.7395,9.9342,10.0069,9.9656,9.943,9.943,9.9843,9.9505,9.8416,9.8717,9.8679,9.8154,9.7065,9.5991,9.5105,9.0392,8.6329,0.0,0.0,0.0,0.0,0.0,0.0,0.0,0.0,0.0,0.0,0.0,7.5267,7.6159,7.9614,8.1285,8.0059,8.0988,8.1667,8.1524,7.9989,7.958,8.1214,8.1364,8.2121,8.3997,8.462,8.5343,8.6451,8.6292,8.6163,8.6427,8.6428,8.6757,8.763,8.7253,8.7335,8.9014,8.8562,8.7585,8.6495,8.3586,8.0979,7.9621,7.8519,7.7511,7.6503,7.575,7.4904,7.332,7.2841,7.2475,7.1547,7.1816,7.2265,7.2206,7.1697,7.1427,7.1553,7.1615,7.1538,8.8402,8.7709,8.7594,8.7132,8.6363,8.567,8.617,8.7363,8.6709,8.6863,8.7555,8.7555,8.7632,8.7709,8.7526,8.784,8.8608,8.7693,8.7311,8.7501,8.8303,8.8723,8.8838,8.9675,9.0479,9.121,9.121,9.121,9.121,9.121,9.121,9.1213,9.1797,9.2061,9.2045,9.325,9.4717,9.6272,9.8012,9.9243,9.9918,10.0031,10.0106,10.0144,10.097,10.0369,9.8154,9.8604,9.8454,9.7538,9.6802,9.6501,9.6652,9.3223,8.9392,0.0,8.1941,0.0,0.0,0.0,0.0,0.0,0.0,0.0,0.0,7.7682,7.8871,7.9056,8.1768,8.3254,8.266,8.3849,8.4398,8.3527,8.2591,8.2169,8.2395,8.2283,8.3011,8.4973,8.5046,8.5336,8.6209,8.6247,8.6027,8.5648,8.5639,8.6294,8.7874,8.7025,8.7002,8.9734,8.8899,8.7548,8.6672,8.4763,8.2926,8.2023,8.0339,7.8779,7.812,7.72,7.612,7.4917,7.4142,7.3582,7.3013,7.2924,7.3223,7.3642,7.3732,7.3387,7.2343,7.2163,7.2051,8.9594,8.9363,8.8709,8.8363,8.8171,8.8055,8.7748,8.744,8.7979,8.8286,8.844,8.844,8.8825,8.9363,8.8748,8.8867,8.956,8.8612,8.8575,8.9263,8.938,8.9802,9.0528,9.0829,9.1056,9.121,9.121,9.121,9.121,9.121,9.1136,9.1064,9.1721,9.233,9.2924,0.0,0.0,0.0,9.8163,9.898,9.9167,9.9768,10.0106,10.0106,10.097,0.0,9.9693,9.9167,9.8792,9.8553,9.7177,0.0,0.0,0.0,0.0,0.0,0.0,0.0,0.0,0.0,0.0,0.0,7.9948,7.9354,7.7162,7.9576,8.1843,8.3143,8.4406,8.5335,8.5855,8.6152,8.6573,8.6979,8.5927,8.5207,8.5409,8.4497,8.4308,8.5251,8.4853,8.4933,8.6028,8.5953,8.5648,8.5531,8.5598,8.6143,8.7131,8.6954,8.7442,8.8978,8.8149,8.7012,8.6337,8.4345,8.2876,8.2017,8.1258,8.013,7.9028,7.8215,7.7178,7.5877,7.4698,7.3702,7.3103,7.3343,7.3762,7.3881,7.43,7.4629,7.4224,7.398,7.3655,9.071,0.0,8.9479,8.9056,0.0,8.9133,8.9056,8.8671,8.9094,8.9286,8.9286,8.9286,8.9517,8.9902,8.9479,8.9748,9.0517,8.9457,8.9303,8.9799,9.011,9.0263,9.0413,9.0982,9.121,9.121,9.121,9.121,9.121,9.121,9.1175,9.1139,9.222,9.3098,9.385,9.617,9.7377,9.7498,9.9276,10.0144,10.0181,10.0932,10.1158,10.0782,10.1571,0.0,0.0,0.0,0.0,0.0,0.0,0.0,0.0,0.0,0.0,8.9959,8.7038,8.4571,8.2854,8.1531,8.0991,8.1323,8.2474,8.2809,8.1917,8.3069,8.4443,8.6041,8.6598,8.7155,8.7935,8.8381,8.8478,8.822,8.7384,8.6608,8.5917,8.5057,8.4593,8.4952,8.4701,8.4751,8.5309,8.5261,8.506,8.5096,8.5499,8.6073,8.6787,8.6908,8.732,8.8058,8.7519,8.6745,8.6053,8.4957,8.3482,8.2706,8.202,8.1132,8.0127,7.8877,7.7707,7.7011,7.554,7.424,7.4001,7.4151,7.436,7.439,7.4629,7.4869,7.4594,7.4318,7.3901,9.1787,9.0364,9.0364,8.9902,8.921,8.9825,9.0133,9.0133,0.0,0.0,0.0,9.0133,9.0133,9.0133,9.0133,9.0517,9.1133,9.0261,8.9917,9.0065,9.0646,9.0608,9.0104,9.0829,9.121,9.121,9.121,9.121,9.121,9.121,9.121,9.1328,9.268,9.3979,9.5222,9.8262,9.9405,9.8668,10.0292,10.112,10.1007,10.1758,10.1833,10.1195,10.1984,10.112,9.8492,9.8717,9.8154,9.6591,9.6464,9.6666,9.7167,9.5156,9.326,9.1605,8.9152,8.7038,8.5409,8.4493,8.3839,8.3292,8.448,8.5706,8.6747,8.6338,8.6747,8.8381,8.8381,8.8641,8.9421,9.009,8.9934,8.8551,8.7921,8.701,8.568,8.4836,8.436,8.4574,8.4467,8.4467,8.4656,8.461,8.461,8.4753,8.5466,8.6154,8.6802,8.7072,8.7163,8.7117,8.6981,8.6748,8.6169,8.5449,8.4507,8.331,8.252,8.1867,8.1012,7.9503,7.8343,7.7929,7.6426,7.5218,7.4976,7.4809,7.4869,7.4869,7.4869,7.4731,7.4318,7.3951,7.3444,9.2979,9.2133,9.2133,9.1633,9.0864,9.0979,9.1018,9.1018,9.1018,9.1018,9.1018,9.1018,9.1018,9.1018,9.1018,9.1095,9.121,9.0949,9.0872,9.0982,9.1026,9.0987,9.1021,9.1133,9.121,9.121,9.121,9.121,9.121,9.121,9.121,9.1405,9.2642,9.4696,9.7229,9.9758,10.0727,10.029,10.0292,9.9956,9.9318,10.0031,10.0407,10.0331,10.112,10.142,10.0895,9.9618,9.9205,9.9768,9.7665,9.7065,9.844,9.6314,9.4565,9.3551,9.1071,8.9157,8.8084,8.7145,8.7078,8.8121,8.8493,8.8121,8.6932,8.7378,8.8418,8.9942,8.957,8.9459,9.0202,9.0499,9.0045,8.8625,8.7921,8.701,8.5716,8.4478,8.4039,8.4646,8.3967,8.3932,8.4574,8.4646,8.461,8.4824,8.5668,8.6751,8.7022,8.7585,8.7596,8.715,8.692,8.6806,8.6343,8.5615,8.4687,8.3759,8.2757,8.1997,8.1155,8.0059,7.9037,7.8088,7.6954,7.5893,7.5142,7.4869,7.4869,7.4869,7.4869,7.4761,7.4318,7.3487,7.2658,9.3903,9.3172,9.3133,9.2903,9.2556,9.2556,9.2556,9.2556,9.2556,9.2018,9.121,9.121,9.121,9.121,9.121,9.121,9.121,9.1064,9.1064,9.121,9.1064,9.1333,9.1941,9.2364,9.2556,9.2595,9.3018,9.3249,9.321,9.2787,9.2787,9.3326,9.4714,9.6451,9.8388,10.0252,10.0782,9.9988,10.1482,10.1784,10.0932,10.127,10.1233,10.082,10.0782,10.0482,10.0069,9.9318,9.913,9.9656,9.8454,9.8116,9.8816,9.7403,9.5976,9.4699,9.2651,9.0846,8.9377,8.8219,8.8171,8.9198,8.9273,8.9384,8.9496,8.9013,8.9607,9.1576,9.1093,9.0945,9.1762,9.1836,9.1251,8.9691,8.916,8.8288,8.6822,8.5858,8.5466,8.5716,8.5181,8.486,8.5216,8.486,8.461,8.4753,8.5678,8.647,8.6926,8.688,8.6558,8.589,8.5739,8.5768,8.5682,8.5398,8.4642,8.3626,8.3382,8.2612,8.1359,8.0406,7.9604,7.8279,7.7185,7.6027,7.5142,7.4869,7.4869,7.4869,7.4731,7.4456,7.3951,7.2409,7.0729,9.4749,9.398,9.398,9.3864,9.371,9.3672,9.3672,9.3672,9.3672,9.2979,9.1864,9.1748,9.1556,9.121,9.1402,9.1402,9.121,9.11,9.11,9.121,9.1293,9.1754,9.2556,9.348,9.398,9.4095,9.4864,9.5288,9.5211,9.4595,9.4674,9.5559,9.6863,9.8025,9.9047,10.0532,10.076,9.9933,10.2433,10.3264,10.2096,10.2021,10.1721,10.112,10.0256,9.9618,9.9205,9.9017,9.9092,9.943,9.928,9.9167,9.913,9.8416,9.7215,9.5563,9.3911,9.2255,9.0535,8.9275,8.9087,9.0053,8.9942,9.0462,9.165,9.0685,9.0685,9.2542,9.2356,9.2245,9.2765,9.2728,9.2105,9.0749,9.0076,8.9016,8.7808,8.716,8.6894,8.6822,8.6251,8.5752,8.568,8.5109,8.4741,8.4953,8.5428,8.6044,8.6471,8.6024,8.5308,8.4848,8.4741,8.5036,8.502,8.4965,8.438,8.335,8.3551,8.3098,8.1941,8.1324,8.0205,7.8719,7.7538,7.6294,7.5248,7.4869,7.4869,7.4731,7.4456,7.412,7.3327,7.1188,6.9166,9.5672,9.4941,9.4864,9.4403,9.3787,9.3749,9.3749,9.3749,9.371,9.3633,9.3441,9.3441,9.2633,9.1441,9.2056,9.1979,9.1325,9.121,9.1248,9.1364,9.2018,9.2402,9.2749,9.4172,9.4864,9.5018,9.5826,9.6288,9.6249,9.6134,9.6405,9.7015,9.7932,9.8681,9.9307,10.0722,10.1172,10.071,10.2349,10.2259,10.0444,10.0331,10.0294,10.0219,9.9468,9.9355,9.9843,9.928,9.9618,10.0932,10.0369,9.9994,9.9881,9.9205,9.8041,9.6389,9.4774,9.3305,9.2007,9.0913,9.0907,9.2393,9.1799,9.1799,9.2691,9.1985,9.1836,9.2765,9.2914,9.2876,9.2951,9.2356,9.1742,9.1006,8.9788,8.8538,8.8041,8.7321,8.6894,8.6894,8.643,8.5823,8.5894,8.5205,8.4918,8.5516,8.5553,8.5707,8.5884,8.5308,8.4819,8.4635,8.4707,8.4856,8.4887,8.4452,8.389,8.3285,8.326,8.3098,8.262,8.211,8.1298,7.9346,7.8268,7.7046,7.561,7.4869,7.4731,7.4456,7.4288,7.3862,7.2578,7.0447,6.8995,9.6095,9.5749,9.5788,9.5557,9.5249,9.5211,9.5211,9.5249,9.5249,9.4941,9.4557,9.5018,9.4287,9.2749,9.3056,9.3018,9.2672,9.2672,9.2674,9.2638,9.302,9.3443,9.4022,9.5635,9.648,9.6596,9.7865,9.825,9.7827,9.775,9.8057,9.8623,9.9044,9.9447,9.9918,10.0418,10.0541,10.0143,10.1103,10.1355,10.1033,10.1345,10.1345,10.082,10.0069,9.9505,9.943,9.9505,9.9731,9.9956,10.0519,10.0407,9.9468,9.9543,9.8867,9.7215,9.4969,9.3087,9.1596,9.1285,9.1502,9.2208,9.191,9.2059,9.2876,9.2208,9.2059,9.2802,9.2988,9.2988,9.2951,9.2653,9.2216,9.1438,9.0629,8.9778,8.9112,8.867,8.8321,8.8285,8.7643,8.7143,8.6952,8.6126,8.5568,8.5637,8.5436,8.5229,8.565,8.51,8.45,8.4102,8.3899,8.3919,8.4093,8.3441,8.291,8.2798,8.326,8.3648,8.2806,8.2578,8.1793,7.9937,7.8568,7.7274,7.5773,7.5108,7.4731,7.4318,7.3731,7.3134,7.1335,6.9392,6.7876,9.6634,9.6596,9.6403,9.6172,9.598,9.6211,9.6288,9.6288,9.6288,9.5942,9.5441,9.6019,9.5634,9.448,9.4172,9.3941,9.371,9.3672,9.3637,9.3639,9.3905,9.4328,9.4945,9.6674,9.7634,9.8019,9.9019,9.9442,9.9096,9.9135,9.9441,9.9968,10.0041,10.0174,10.0385,10.0277,10.0062,9.98,10.0293,10.0888,10.1471,10.2171,10.2209,10.142,10.082,10.0069,9.928,10.0031,10.0181,9.9656,10.0782,10.0857,9.9731,9.9918,9.9393,9.7703,9.5034,9.309,9.2044,9.1843,9.1799,9.2022,9.2059,9.2319,9.2728,9.2431,9.2356,9.2876,9.2988,9.2988,9.2988,9.2802,9.2365,9.1795,9.1253,9.051,9.0025,8.9605,8.9249,8.9249,8.8428,8.7893,8.7415,8.6399,8.5691,8.5399,8.4959,8.4761,8.5207,8.4785,8.4143,8.3708,8.3042,8.2822,8.3169,8.2485,8.1955,8.2321,8.3098,8.3519,8.2652,8.2809,8.2169,8.0501,7.8627,7.7196,7.5953,7.5318,7.4731,7.4149,7.3363,7.2282,7.0621,6.8558,6.6432,9.7442,9.7326,9.6596,9.5788,9.5134,9.5903,9.6249,9.6211,9.6288,9.6249,9.6172,9.6249,9.6249,9.6019,9.5211,9.448,9.3787,9.371,9.3713,9.3755,9.4482,9.4866,9.4907,9.6674,9.7865,9.825,9.8595,9.9055,9.9631,9.9827,10.0324,10.0808,10.077,10.0754,10.0604,10.0365,10.0126,10.0033,10.0407,10.0888,10.1595,10.2235,10.2209,10.1533,10.1383,10.0932,10.0256,10.0895,10.1308,10.127,10.142,10.1383,10.1195,10.0519,9.9355,9.7741,9.5071,9.3837,9.4099,9.2737,9.2059,9.2728,9.2802,9.2914,9.2951,9.2876,9.2876,9.2988,9.2988,9.2988,9.2847,9.2365,9.1943,9.1901,9.0777,9.0134,9.0123,8.9654,8.9285,8.9213,8.8678,8.7629,8.6239,8.5867,8.5385,8.4948,8.4702,8.466,8.4581,8.4143,8.3817,8.3377,8.2671,8.1901,8.1967,8.1695,8.1631,8.1964,8.2612,8.3266,8.3471,8.329,8.2201,8.0869,7.877,7.7138,7.6103,7.5329,7.4605,7.3782,7.2619,7.1337,6.9644,6.7792,6.5701,9.7173,9.6673,9.5826,9.5288,9.5057,9.5326,9.548,9.5518,9.6057,9.6288,9.6288,9.6288,9.6288,9.6249,9.5365,9.4826,9.448,9.3941,9.3943,9.4292,9.4251,9.4368,9.4868,9.6136,9.6443,9.6443,9.7826,9.8439,9.8091,9.7671,9.805,9.9189,9.9879,10.0251,10.0489,10.0326,10.0126,10.0033,10.0407,10.0948,10.1595,10.2235,10.2434,10.2171,10.2171,10.1758,10.097,10.1721,10.1946,10.1458,10.2359,10.2472,10.1458,10.0557,9.9618,9.8392,9.6306,9.492,9.4622,9.3333,9.2653,9.2914,9.2988,9.2988,9.2988,9.2988,9.2988,9.2988,9.2988,9.2855,9.2405,9.204,9.1897,9.1836,9.0878,9.0103,9.0032,8.9677,8.932,8.9285,8.8999,8.8077,8.6435,8.5792,8.5297,8.4184,8.3907,8.3937,8.4049,8.3817,8.3487,8.2671,8.2248,8.1785,8.1349,8.1263,8.122,8.1641,8.2102,8.2445,8.2742,8.2777,8.1948,8.0854,7.8841,7.7258,7.6245,7.5051,7.4357,7.3702,7.2507,7.0535,6.8552,6.6954,6.4762,9.7096,9.598,9.5826,9.548,9.5057,9.5326,9.5403,9.548,9.6057,9.6288,9.6249,9.6019,9.5865,9.5672,9.4711,9.4172,9.4172,9.3826,9.3945,9.4292,9.3869,9.4024,9.4675,9.5176,9.5291,9.5367,9.6556,9.6978,9.6437,9.6094,9.6779,9.8298,9.9184,9.9983,10.0489,10.0365,10.0126,10.0123,10.0143,10.0646,10.1543,10.2035,10.2509,10.2922,10.2997,10.2622,10.1871,10.2547,10.2772,10.2397,10.2997,10.281,10.1495,10.0857,10.0181,9.9117,9.713,9.5668,9.5006,9.3779,9.2988,9.2988,9.2988,9.2988,9.2988,9.2988,9.2988,9.2988,9.2751,9.2442,9.2018,9.162,9.1399,9.1324,9.0668,9.0141,8.9929,8.9543,8.932,8.9285,8.8999,8.7868,8.6223,8.5426,8.4604,8.3586,8.333,8.3211,8.3281,8.3387,8.3021,8.1903,8.1687,8.1434,8.1242,8.1252,8.1446,8.1835,8.2418,8.2477,8.2333,8.2156,8.1621,8.0709,7.925,7.7595,7.6085,7.4861,7.4166,7.379,7.2053,6.993,6.8058,6.6154,6.407,9.7288,9.548,9.6749,9.6326,9.5172,9.5749,9.6211,9.6211,9.6249,9.6288,9.6211,9.5441,9.5095,9.4672,9.3441,9.2633,9.2751,9.3174,9.3408,9.3409,9.3371,9.3793,9.4405,9.3831,9.4369,9.5559,9.502,9.4633,9.4509,9.5325,9.6552,9.8074,9.9036,9.9912,10.0566,10.0326,10.0177,10.0151,9.9783,10.0328,10.1551,10.1721,10.2322,10.3561,10.3711,10.3373,10.2622,10.3335,10.3673,10.3598,10.3073,10.2284,10.1721,10.1383,10.0906,9.9702,9.7478,9.6014,9.5549,9.4049,9.3099,9.2988,9.2988,9.2988,9.2988,9.2988,9.2988,9.2922,9.2442,9.2018,9.1803,9.1057,9.0385,9.0222,9.0186,8.9929,8.9457,8.932,8.932,8.9213,8.8785,8.7564,8.6011,8.4901,8.4084,8.3487,8.2854,8.2532,8.2703,8.2688,8.2194,8.1279,8.1043,8.1112,8.1284,8.1576,8.1835,8.2191,8.2839,8.3143,8.2651,8.2486,8.1642,8.0662,7.8819,7.7194,7.5697,7.4535,7.4078,7.3252,7.1338,6.9584,6.78,6.5897,6.3637,9.7096,9.5942,9.5788,9.548,9.5018,9.5288,9.5711,9.6288,9.6288,9.6288,9.6134,9.5365,9.4635,9.3906,9.2832,9.2334,9.2296,9.2027,9.2066,9.245,9.2066,9.2219,9.2753,9.2678,9.3139,9.3749,9.2595,9.2168,9.2818,9.3746,9.4934,9.6413,9.8031,9.9364,10.0527,10.0326,10.0177,10.0203,10.0199,10.0743,10.174,10.2098,10.2735,10.3673,10.3786,10.3673,10.3448,10.3673,10.3786,10.3786,10.3561,10.3298,10.2922,10.2021,10.1244,10.0526,9.8263,9.6425,9.5632,9.457,9.3545,9.3136,9.2988,9.2988,9.2988,9.2988,9.2988,9.2922,9.2405,9.1838,9.1324,9.0668,9.0222,9.0222,8.9845,8.9543,8.9407,8.932,8.932,8.9285,8.907,8.7799,8.5877,8.4774,8.4343,8.2955,8.227,8.1906,8.2033,8.1811,8.1295,8.0405,8.069,8.1058,8.1382,8.1802,8.2256,8.2547,8.313,8.3428,8.3063,8.2169,8.1463,8.0049,7.8347,7.6814,7.5429,7.4416,7.3849,7.2999,7.1539,6.9757,6.7717,6.5613,6.3434,9.7057,9.6288,9.6019,9.5749,9.548,9.548,9.5788,9.6249,9.6288,9.6288,9.6057,9.5018,9.4174,9.3484,9.2409,9.1835,9.1683,9.1068,9.1145,9.1683,9.1606,9.1796,9.2446,9.2601,9.237,9.2133,9.117,9.1052,9.1938,9.3207,9.4585,9.6183,9.7916,9.9409,10.0489,10.0365,10.0215,10.0138,10.0123,10.0495,10.1189,10.1509,10.2059,10.281,10.3185,10.3335,10.3373,10.3636,10.3786,10.3786,10.3786,10.3786,10.3673,10.222,10.119,10.0573,9.8656,9.6704,9.6013,9.4875,9.4028,9.3508,9.3174,9.2988,9.2988,9.2988,9.2922,9.2579,9.2018,9.1399,9.0825,9.0222,8.9893,8.9809,8.9543,8.932,8.932,8.932,8.932,8.9162,8.8738,8.7176,8.5636,8.4361,8.4161,8.258,8.1858,8.1598,8.1547,8.1269,8.0656,8.0243,8.0366,8.0799,8.1446,8.1997,8.258,8.3001,8.3389,8.3493,8.3346,8.1976,8.0937,7.9132,7.7515,7.6574,7.514,7.4277,7.3621,7.2657,7.1511,6.9559,6.744,6.5464,6.3336,9.698,9.6442,9.7096,9.6865,9.6249,9.6211,9.6288,9.6403,9.6288,9.6288,9.5942,9.4557,9.3672,9.3213,9.1833,9.1106,9.0953,9.0837,9.0719,9.1104,9.168,9.2603,9.2946,9.2985,9.233,9.117,9.0746,9.1212,9.2251,9.379,9.5476,9.692,9.8615,9.995,10.0366,10.0315,10.0113,9.9957,9.9651,9.9854,10.0428,10.0343,10.0744,10.1646,10.2359,10.2772,10.2997,10.3486,10.3786,10.3786,10.3786,10.3748,10.3383,10.208,10.1022,10.0703,9.8374,9.713,9.6362,9.5365,9.4362,9.4065,9.3545,9.3025,9.2855,9.2818,9.2579,9.2018,9.1399,9.0788,9.0304,8.9761,8.9371,8.932,8.932,8.932,8.932,8.932,8.932,8.9091,8.7994,8.646,8.5042,8.3763,8.3052,8.2343,8.1898,8.1772,8.1524,8.1203,8.0556,8.0214,8.0204,8.0799,8.1511,8.2353,8.2839,8.2742,8.3227,8.346,8.3185,8.1786,7.9976,7.82,7.6634,7.5757,7.4941,7.393,7.3099,7.2303,7.0821,6.8907,6.7128,6.5275,6.3284,9.648,9.6326,9.6519,9.648,9.6288,9.6288,9.6634,9.7057,9.6519,9.6288,9.5903,9.448,9.3328,9.2563,9.1527,9.0915,9.0838,9.0759,9.0679,9.0906,9.237,9.2678,9.2485,9.2406,9.2176,9.1559,9.1055,9.1441,9.3023,9.4251,9.5511,9.6997,9.8758,9.9855,10.0309,10.0215,10.001,9.985,9.9519,9.9741,10.0202,10.0131,10.082,10.2171,10.2434,10.2885,10.341,10.3673,10.3786,10.3786,10.3786,10.3486,10.2922,10.178,10.0723,9.9851,9.871,9.739,9.6734,9.6183,9.544,9.4325,9.3924,9.3381,9.2303,9.2266,9.1946,9.1399,9.0788,9.0348,9.0141,8.9592,8.932,8.932,8.932,8.932,8.932,8.932,8.932,8.9162,8.8384,8.6811,8.5227,8.4564,8.401,8.2818,8.2297,8.2174,8.178,8.0893,8.018,8.0131,8.0183,8.0928,8.1705,8.2612,8.2936,8.2547,8.2871,8.3363,8.2742,8.1568,7.9223,7.6921,7.5587,7.4515,7.3774,7.2944,7.2292,7.1866,7.0845,6.9423,6.7313,6.5244,6.3372,9.6288,9.6288,9.6288,9.6288,9.6288,9.6288,9.6596,9.6865,9.6519,9.6288,9.5903,9.448,9.3405,9.2792,9.1528,9.0915,9.0799,9.0679,9.0867,9.1521,9.3139,9.3408,9.2908,9.2908,9.2791,9.2021,9.1868,9.2557,9.3823,9.4972,9.6145,9.7257,9.8859,9.9927,10.0337,10.001,9.985,9.9742,9.9405,9.9351,9.9518,9.9492,9.9867,10.0955,10.148,10.2482,10.3598,10.3758,10.3758,10.3748,10.3486,10.3073,10.2547,10.1163,10.0246,9.9553,9.8643,9.7769,9.7186,9.6852,9.6034,9.4852,9.4302,9.3366,9.2531,9.195,9.1435,9.0897,9.0421,9.0141,8.9845,8.9457,8.932,8.932,8.932,8.932,8.932,8.932,8.932,8.8951,8.7972,8.6639,8.4879,8.4678,8.3739,8.2816,8.2469,8.2368,8.2212,8.0959,8.0296,8.0536,8.054,8.1155,8.1932,8.2806,8.2936,8.2547,8.1916,8.2626,8.1473,8.0392,7.8552,7.6199,7.4599,7.3319,7.2837,7.2276,7.1999,7.1435,7.0812,6.9422,6.7174,6.5482,6.3591,9.6288,9.6288,9.6288,9.6288,9.6288,9.6288,9.6326,9.6326,9.6326,9.6288,9.5903,9.448,9.3672,9.3595,9.172,9.0915,9.0877,9.0679,9.1329,9.233,9.3716,9.4177,9.3369,9.3831,9.3408,9.2483,9.2985,9.3667,9.4692,9.6095,9.6972,9.7806,9.9188,9.9923,10.0113,9.9796,9.9631,9.9481,9.917,9.8817,9.8675,9.8609,9.8899,9.9413,10.0863,10.2202,10.3318,10.3693,10.3589,10.3608,10.296,10.2547,10.2145,10.0461,9.9656,9.9328,9.8501,9.7924,9.778,9.7149,9.6331,9.5372,9.4179,9.3196,9.2573,9.158,9.0783,9.0367,9.0249,8.9881,8.9457,8.932,8.932,8.932,8.9233,8.9233,8.932,8.932,8.932,8.9162,8.729,8.574,8.4674,8.359,8.2543,8.2678,8.2566,8.2804,8.2378,8.1322,8.1163,8.1566,8.1543,8.1414,8.2223,8.3033,8.2839,8.2483,8.1375,8.0977,7.9259,7.8112,7.6946,7.5425,7.3626,7.2667,7.2247,7.1806,7.1393,7.0999,7.0321,6.8712,6.6746,6.5418,6.3697,9.6288,9.6288,9.6288,9.6288,9.6288,9.6288,9.6288,9.6288,9.6288,9.6288,9.5903,9.448,9.3787,9.3633,9.1949,9.0953,9.1069,9.1028,9.1525,9.3178,9.4216,9.4254,9.3601,9.3716,9.3446,9.2904,9.2193,9.3448,9.5637,9.6277,9.7072,9.8287,9.9038,9.972,9.9742,9.9575,9.9326,9.9111,9.8966,9.8717,9.8395,9.8366,9.8693,9.9432,10.1022,10.2436,10.3402,10.3597,10.326,10.2764,10.239,10.1855,10.0906,10.0178,9.946,9.8843,9.8345,9.7992,9.7924,9.7632,9.6963,9.5558,9.4552,9.3492,9.1616,9.0855,9.0141,8.9749,8.9493,8.9457,8.932,8.932,8.9233,8.9198,8.8934,8.8899,8.9198,8.932,8.9233,8.8809,8.7347,8.5585,8.4819,8.3905,8.3123,8.2712,8.2797,8.3096,8.2511,8.1652,8.1752,8.2085,8.1705,8.1479,8.2062,8.245,8.1867,8.1335,8.036,7.9208,7.7654,7.6511,7.557,7.4221,7.2581,7.188,7.1237,7.0829,7.0417,7.0025,6.9719,6.8089,6.6463,6.5217,6.3575,9.6288,9.6288,9.6288,9.6288,9.6288,9.6288,9.6288,9.6288,9.6288,9.6288,9.6019,9.4864,9.4326,9.4172,9.2524,9.1797,9.222,9.2526,9.314,9.4023,9.46,9.4484,9.4062,9.3561,9.333,9.3166,9.3497,9.4548,9.5534,9.635,9.6923,9.7705,9.8763,9.9386,9.9481,9.9288,9.9111,9.899,9.878,9.8525,9.8196,9.8166,9.8934,10.0001,10.1284,10.2286,10.3447,10.353,10.2819,10.2033,10.1659,10.12,10.0193,9.9642,9.9001,9.8507,9.8225,9.8061,9.7961,9.7817,9.7334,9.6034,9.4851,9.3013,9.1266,9.0195,8.9677,8.9371,8.932,8.932,8.932,8.932,8.9233,8.8899,8.8721,8.8596,8.881,8.8899,8.8845,8.8437,8.7044,8.5764,8.4758,8.3909,8.3426,8.2768,8.2986,8.332,8.2684,8.1984,8.1799,8.1913,8.1566,8.1479,8.1964,8.177,8.0701,7.9892,7.8747,7.7511,7.6119,7.5142,7.4424,7.289,7.1377,7.062,7.0174,6.9797,6.962,6.9431,6.8875,6.7438,6.6146,6.4668,6.2877,9.6288,9.6288,9.6288,9.6288,9.6288,9.6288,9.6288,9.6288,9.6288,9.6288,9.6134,9.5365,9.4864,9.4557,9.3024,9.2794,9.3333,9.4254,9.4561,9.4638,9.5022,9.4945,9.4638,9.4254,9.3746,9.3289,9.4128,9.4896,9.5286,9.6062,9.6837,9.6975,9.8116,9.9035,9.9251,9.9111,9.8905,9.8867,9.8589,9.83,9.803,9.7998,9.888,10.0419,10.1031,10.1958,10.3156,10.3282,10.2647,10.1209,10.089,10.0498,9.9867,9.9192,9.8552,9.8395,9.8262,9.8128,9.7961,9.7817,9.7446,9.6449,9.489,9.2856,9.1079,9.0032,8.9592,8.9371,8.932,8.932,8.932,8.932,8.9023,8.8721,8.8506,8.8506,8.8506,8.8506,8.8366,8.7763,8.653,8.5262,8.4363,8.3569,8.3253,8.2986,8.3306,8.3265,8.2656,8.2032,8.189,8.1815,8.1414,8.0896,8.1252,8.0863,7.9827,7.8528,7.7389,7.586,7.4501,7.3449,7.2487,7.1642,7.04,6.9793,6.9582,6.9574,6.9337,6.8981,6.8145,6.709,6.557,6.4035,6.24,9.6288,9.6288,9.6288,9.6288,9.6288,9.6288,9.6288,9.6288,9.6288,9.6288,9.6172,9.5403,9.5057,9.4595,9.3101,9.2488,9.3102,9.4177,9.4907,9.4984,9.5406,9.5482,9.506,9.506,9.478,9.3906,9.423,9.4756,9.5437,9.6195,9.6809,9.7478,9.8416,9.899,9.899,9.8905,9.8817,9.8728,9.8497,9.8196,9.7961,9.8003,9.8811,10.0432,10.086,10.1824,10.2983,10.3213,10.2609,10.1247,10.0927,10.0199,9.938,9.8918,9.8653,9.846,9.8329,9.8196,9.7961,9.7892,9.7074,9.586,9.4741,9.3306,9.153,9.0393,8.9677,8.9371,8.932,8.932,8.932,8.932,8.9023,8.8721,8.8506,8.8506,8.8506,8.84,8.8063,8.7266,8.5846,8.4647,8.3937,8.3327,8.2886,8.2566,8.2598,8.2656,8.2395,8.1845,8.1469,8.1446,8.1479,8.0831,8.0345,7.9698,7.8772,7.7393,7.6021,7.4344,7.2945,7.1637,7.0606,7.0178,6.9927,6.9629,6.9476,6.933,6.8613,6.7917,6.7293,6.6698,6.5028,6.3564,6.2353,9.6288,9.6288,9.6288,9.6288,9.6288,9.6288,9.6288,9.6288,9.6288,9.6288,9.6172,9.5865,9.5672,9.5326,9.4366,9.3563,9.3753,9.483,9.5445,9.5443,9.5445,9.5675,9.5329,9.5521,9.5031,9.462,9.4706,9.4886,9.5536,9.6133,9.6877,9.7703,9.8529,9.8905,9.8842,9.8842,9.8728,9.8572,9.8403,9.8128,9.7892,9.7892,9.8816,10.014,10.0768,10.1651,10.2952,10.3149,10.2504,10.133,10.089,10.0087,9.9305,9.878,9.8653,9.846,9.8329,9.8128,9.7961,9.7855,9.7297,9.6152,9.4888,9.3414,9.1854,9.0593,8.9713,8.9371,8.932,8.932,8.932,8.932,8.9023,8.8632,8.8506,8.8506,8.8436,8.8152,8.7438,8.6662,8.5907,8.482,8.3705,8.3105,8.2599,8.2227,8.1935,8.2,8.206,8.1674,8.1252,8.1317,8.1252,8.0259,7.958,7.8752,7.7925,7.6635,7.5068,7.3417,7.2195,7.1153,7.0371,6.978,6.9483,6.9535,6.9516,6.9395,6.8197,6.7157,6.6885,6.6356,6.4592,6.3001,6.1734,9.6288,9.6288,9.6288,9.6288,9.6288,9.6288,9.6288,9.6288,9.6288,9.6288,9.6288,9.6249,9.6249,9.6095,9.5558,9.4945,9.4589,9.5598,9.5826,9.5508,9.4975,9.5135,9.5636,9.5125,9.4548,9.5029,9.5502,9.5629,9.5493,9.6276,9.7065,9.7741,9.8492,9.8842,9.8842,9.8679,9.8562,9.8469,9.8233,9.8061,9.7961,9.7966,9.8742,10.0332,10.0624,10.1439,10.2963,10.3079,10.236,10.1413,10.0807,10.0208,9.9117,9.8679,9.8487,9.8395,9.8158,9.8061,9.7961,9.7892,9.7409,9.6114,9.4706,9.3411,9.1957,9.0429,8.932,8.932,8.932,8.932,8.932,8.9198,8.8846,8.8506,8.8416,8.8345,8.7826,8.7396,8.6814,8.6212,8.5911,8.4797,8.3279,8.2686,8.2147,8.1787,8.1519,8.1617,8.1609,8.1393,8.1122,8.1187,8.0777,7.9806,7.8913,7.8034,7.7242,7.6251,7.4613,7.2979,7.2085,7.1212,7.0474,6.9641,6.9777,6.9793,6.9656,6.9321,6.8089,6.7401,6.6918,6.5732,6.3701,6.2271,6.1084,9.6288,9.6288,9.6288,9.6288,9.6288,9.6288,9.6288,9.6288,9.6251,9.6288,9.6288,9.6288,9.6251,9.6288,9.6211,9.5444,9.5052,9.5317,9.5696,9.5325,9.4669,9.484,9.5629,9.4853,9.4723,9.511,9.5806,9.5756,9.5853,9.6877,9.7553,9.7928,9.8492,9.8842,9.8742,9.8679,9.8423,9.83,9.8128,9.8023,9.7961,9.7892,9.8783,9.9931,10.0629,10.1332,10.2781,10.2897,10.2254,10.1322,10.089,10.0199,9.9117,9.8589,9.846,9.8329,9.8196,9.8061,9.7961,9.7892,9.7186,9.6003,9.4776,9.3345,9.1594,9.0275,8.932,8.932,8.932,8.932,8.9198,8.8934,8.8452,8.8234,8.8108,8.7422,8.6732,8.6881,8.6255,8.5367,8.4796,8.3645,8.2333,8.2048,8.1785,8.1467,8.1177,8.1274,8.1371,8.1252,8.0906,8.0971,8.0302,7.9301,7.8388,7.7479,7.6582,7.5645,7.4248,7.2718,7.1939,7.1096,7.0496,6.9902,6.9974,6.9753,6.947,6.8909,6.7997,6.7285,6.6604,6.4814,6.2669,6.1475,6.0412,9.6288,9.6288,9.6288,9.6288,9.6288,9.6288,9.6288,9.6251,9.6058,9.6098,9.6213,9.6058,9.6289,9.675,9.6557,9.6056,9.5598,9.5648,9.5394,9.5077,9.4686,9.4829,9.5151,9.4811,9.4706,9.54,9.6042,9.6592,9.6787,9.7215,9.7853,9.8379,9.8717,9.8842,9.8679,9.8679,9.845,9.8254,9.8091,9.7961,9.7892,9.8003,9.8672,10.0195,10.034,10.1341,10.2487,10.2487,10.2174,10.1359,10.0873,9.9889,9.9117,9.8589,9.8395,9.8395,9.8128,9.7961,9.7892,9.7892,9.6926,9.5712,9.4662,9.3344,9.1182,8.9893,8.932,8.932,8.932,8.932,8.9198,8.881,8.8542,8.8234,8.7738,8.7151,8.6394,8.601,8.568,8.4726,8.3739,8.2733,8.1916,8.1639,8.1467,8.123,8.1122,8.1252,8.1511,8.177,8.1326,8.0666,7.986,7.871,7.7864,7.6901,7.599,7.4948,7.3943,7.2607,7.1757,7.1006,7.0176,6.9742,6.9719,6.9499,6.9276,6.9081,6.8614,6.7447,6.6083,6.4378,6.2669,6.038,5.8681,9.6288,9.6288,9.6288,9.6288,9.6288,9.6288,9.6288,9.6251,9.59,9.5859,9.5981,9.5898,9.6401,9.7135,9.6712,9.6284,9.6267,9.5776,9.5143,9.4731,9.4325,9.4452,9.454,9.44,9.4432,9.5777,9.6234,9.6869,9.7463,9.7966,9.8379,9.8905,9.8867,9.8842,9.878,9.8679,9.845,9.815,9.8023,9.7924,9.7892,9.7892,9.8858,9.9824,10.0455,10.1047,10.2267,10.2226,10.1875,10.1031,10.0489,9.9654,9.8867,9.8589,9.8395,9.8262,9.8098,9.7892,9.778,9.7557,9.6777,9.5675,9.4219,9.2683,9.0755,8.9761,8.9371,8.932,8.932,8.9233,8.9023,8.8596,8.8178,8.7773,8.7231,8.6873,8.6379,8.5683,8.4622,8.3214,8.2544,8.2425,8.177,8.1284,8.1144,8.1025,8.1155,8.1284,8.1543,8.1802,8.1303,8.0481,7.9212,7.8226,7.7485,7.6553,7.5572,7.4407,7.34,7.2279,7.1272,7.0455,6.9649,6.9488,6.9269,6.9276,6.8996,6.922,6.9405,6.7969,6.6558,6.4952,6.2996,6.0242,5.6944,9.6288,9.6288,9.6288,9.6288,9.6288,9.6288,9.6288,9.6251,9.5859,9.5734,9.5818,9.5776,9.636,9.7097,9.6827,9.6358,9.6409,9.5544,9.4819,9.3871,9.2918,9.3402,9.3698,9.3698,9.3649,9.5536,9.6459,9.717,9.7726,9.8416,9.8717,9.8905,9.8905,9.878,9.8679,9.8616,9.8487,9.8188,9.8091,9.7992,9.7961,9.804,9.8709,9.9935,10.0381,10.0715,10.1532,10.1709,10.1327,10.0404,9.9871,9.9413,9.8702,9.846,9.8329,9.8196,9.803,9.7892,9.7817,9.7334,9.6406,9.5155,9.3591,9.1987,9.0581,9.0222,8.9929,8.9407,8.932,8.9023,8.8632,8.8178,8.7901,8.7335,8.6651,8.5884,8.5344,8.4896,8.3665,8.1897,8.1344,8.1538,8.1551,8.1144,8.1025,8.1025,8.0766,8.0896,8.0906,8.1132,8.098,8.0223,7.8835,7.7868,7.7347,7.6112,7.4532,7.3685,7.2932,7.1757,7.0651,6.9893,6.9315,6.8751,6.8503,6.8626,6.8882,6.9019,6.8916,6.8366,6.6899,6.4689,6.0856,5.7066,5.4123,9.6288,9.6288,9.6288,9.6288,9.6288,9.6288,9.6288,9.6251,9.5859,9.5696,9.5696,9.5772,9.6667,9.752,9.6904,9.6626,9.6848,9.5686,9.4552,9.3783,9.32,9.3257,9.3558,9.4048,9.4762,9.6003,9.6906,9.7771,9.8454,9.8792,9.8867,9.8905,9.8905,9.8842,9.8742,9.8679,9.8487,9.8291,9.8158,9.8061,9.7961,9.7966,9.8672,10.0121,10.0307,10.105,10.1904,10.1411,10.0885,10.024,9.9441,9.8871,9.8497,9.8329,9.8196,9.8091,9.7924,9.7892,9.7855,9.7446,9.6814,9.5192,9.337,9.162,9.0746,9.0429,8.9929,8.9543,8.932,8.9023,8.8542,8.8051,8.762,8.7047,8.6191,8.5173,8.4476,8.4076,8.321,8.1623,8.1258,8.1198,8.1144,8.1025,8.1025,8.0993,8.0701,8.0507,8.0637,8.0528,8.0288,7.9515,7.8072,7.7145,7.6525,7.4964,7.3333,7.2841,7.2325,7.1214,7.0178,6.971,6.9091,6.8303,6.7797,6.7862,6.8259,6.8709,6.8455,6.7804,6.6002,6.3695,5.9257,5.4396,5.1555,9.6288,9.6288,9.6288,9.6288,9.6288,9.6288,9.6251,9.6098,9.5818,9.561,9.5522,9.5604,9.6657,9.7709,9.7097,9.69,9.6921,9.5734,9.4376,9.3574,9.3162,9.3255,9.3535,9.4136,9.5096,9.6351,9.729,9.8079,9.8792,9.8905,9.8905,9.8905,9.8942,9.8905,9.8842,9.878,9.8552,9.8395,9.8262,9.8061,9.7961,9.7966,9.8412,9.9786,10.0121,10.0455,10.1121,10.0745,10.0326,9.9649,9.8934,9.8441,9.8291,9.8158,9.8091,9.8061,9.7961,9.7892,9.7817,9.7223,9.6554,9.4889,9.3499,9.2094,9.1249,9.0668,9.0304,8.9371,8.932,8.9023,8.8452,8.7959,8.7675,8.7102,8.5686,8.4717,8.4136,8.3721,8.2656,8.1486,8.1263,8.1025,8.0863,8.0799,8.054,8.0669,8.0831,8.0507,8.0345,8.0086,7.9636,7.8613,7.7242,7.6401,7.5512,7.3815,7.2209,7.1577,7.1125,7.0544,6.9661,6.92,6.8642,6.7854,6.7463,6.7214,6.7608,6.8312,6.7903,6.717,6.4698,6.1632,5.7541,5.287,5.0148,9.6288,9.6288,9.6288,9.6288,9.6288,9.6288,9.6098,9.5859,9.5696,9.5522,9.5257,9.5163,9.6265,9.7495,9.6748,9.6737,9.6929,9.5163,9.3833,9.3553,9.2956,9.2879,9.361,9.4511,9.5638,9.6426,9.7403,9.8304,9.8905,9.8905,9.8905,9.8905,9.8905,9.8905,9.8905,9.8905,9.8717,9.846,9.8395,9.8128,9.7961,9.7929,9.8486,9.9415,9.9861,10.0084,10.0415,10.0336,9.981,9.8948,9.8568,9.8225,9.8017,9.8091,9.8061,9.7961,9.7892,9.7892,9.778,9.6369,9.5328,9.4474,9.3307,9.234,9.1435,9.098,9.0509,8.9457,8.9233,8.8757,8.827,8.7819,8.7631,8.6947,8.5545,8.4521,8.4066,8.346,8.2527,8.1629,8.1209,8.1025,8.0766,8.054,8.0151,8.0216,8.0669,8.0604,8.0033,7.9276,7.8671,7.7872,7.6462,7.5194,7.4163,7.2487,7.1228,7.0504,7.0044,6.971,6.9077,6.8326,6.7879,6.7293,6.7099,6.6932,6.7382,6.7885,6.7129,6.5878,6.2391,5.8959,5.5048,5.1605,4.8799,9.6288,9.6288,9.6288,9.6288,9.6288,9.6288,9.6213,9.6019,9.561,9.5349,9.5349,9.5018,9.5881,9.6781,9.6349,9.5921,9.6121,9.4718,9.3449,9.2579,9.2729,9.3443,9.4248,9.5525,9.6577,9.7328,9.8079,9.8529,9.8905,9.8905,9.8905,9.8905,9.8905,9.8905,9.8842,9.878,9.8552,9.8395,9.8262,9.8128,9.7961,9.7966,9.8486,9.9675,9.9638,9.9786,10.0158,9.9968,9.9332,9.8699,9.847,9.8061,9.7955,9.7992,9.7961,9.7892,9.7892,9.7595,9.7037,9.596,9.5068,9.4214,9.3337,9.2373,9.136,9.1097,9.0429,8.9628,8.9129,8.8648,8.7959,8.799,8.779,8.6714,8.5526,8.4732,8.4165,8.3564,8.2739,8.189,8.1284,8.1122,8.0928,8.0183,7.973,7.9115,7.9374,7.9624,7.943,7.813,7.7242,7.6835,7.5747,7.4334,7.282,7.1406,7.059,7.0086,6.9593,6.9164,6.8521,6.7764,6.7431,6.7182,6.6903,6.6707,6.6843,6.6768,6.5908,6.4097,6.0448,5.6924,5.3243,5.0246,4.7702,9.648,9.6673,9.6403,9.6288,9.6288,9.6288,9.6288,9.6098,9.5349,9.5115,9.5257,9.4819,9.5575,9.6439,9.5665,9.5323,9.5665,9.3766,9.3056,9.2222,9.333,9.4044,9.5037,9.6501,9.7252,9.7928,9.8454,9.8905,9.8905,9.8905,9.8905,9.8905,9.8905,9.8905,9.8842,9.8679,9.8552,9.8395,9.8225,9.8061,9.7961,9.8003,9.8338,9.9006,9.9303,9.9415,9.9786,9.9601,9.9043,9.8783,9.8375,9.7892,9.7892,9.7892,9.7892,9.7892,9.7855,9.7297,9.6331,9.5848,9.4778,9.3356,9.2943,9.2162,9.1285,9.0866,9.052,8.9829,8.9165,8.8926,8.8674,8.8732,8.8115,8.7123,8.5892,8.5091,8.4684,8.411,8.257,8.1631,8.1284,8.1155,8.0766,7.9989,7.9277,7.8564,7.7866,7.8183,7.8464,7.7105,7.5901,7.563,7.4527,7.2834,7.1643,7.0555,6.9855,6.9466,6.9106,6.8745,6.8298,6.7569,6.7293,6.7043,6.6763,6.6454,6.6043,6.5499,6.4182,6.1744,5.8429,5.4981,5.1327,4.8899,4.6721,9.6788,9.7288,9.6634,9.6365,9.6365,9.6519,9.6519,9.6328,9.5181,9.4933,9.5219,9.4855,9.5588,9.6415,9.4946,9.4893,9.5477,9.335,9.3018,9.3234,9.3972,9.457,9.5675,9.7027,9.7816,9.8116,9.8454,9.8905,9.8905,9.8905,9.8905,9.8905,9.8905,9.8842,9.8805,9.8679,9.8487,9.8395,9.8196,9.7992,9.7892,9.7929,9.8152,9.856,9.8746,9.8746,9.8895,9.8746,9.8523,9.8263,9.7929,9.7892,9.7892,9.7892,9.7892,9.7892,9.7892,9.6852,9.5848,9.5403,9.4202,9.2709,9.2057,9.1547,9.1133,9.0625,9.0383,9.0137,8.9769,8.988,8.9904,8.9507,8.9186,8.7809,8.6223,8.5728,8.5449,8.4273,8.2379,8.1479,8.122,8.0896,8.0086,7.9341,7.8953,7.7977,7.7281,7.6688,7.6665,7.5801,7.4933,7.4506,7.331,7.1183,7.0185,6.9806,6.9321,6.9176,6.8652,6.8154,6.7736,6.7431,6.7014,6.6735,6.6595,6.631,6.6111,6.4318,6.1868,5.9411,5.7275,5.3948,5.0665,4.8381,4.6155,9.6942,9.6673,9.7019,9.7134,9.725,9.7827,9.8057,9.7865,9.657,9.6197,9.6817,9.5516,9.5894,9.7229,9.5649,9.5291,9.465,9.386,9.3464,9.3726,9.4553,9.5735,9.6839,9.7891,9.8416,9.8604,9.8792,9.8905,9.8905,9.8905,9.8905,9.8905,9.8905,9.8842,9.8679,9.8552,9.846,9.8329,9.8128,9.803,9.7961,9.7892,9.8115,9.8486,9.8338,9.8338,9.8598,9.8338,9.8152,9.8003,9.7892,9.7892,9.7892,9.7892,9.7892,9.7817,9.7334,9.648,9.5446,9.4467,9.3302,9.2096,9.1249,9.071,9.0429,9.0403,9.0312,9.0371,9.0302,9.0339,9.0467,9.0304,8.9398,8.7823,8.6398,8.5591,8.5136,8.3572,8.1705,8.1155,8.0928,8.041,7.9568,7.9179,7.8758,7.7635,7.6708,7.5868,7.5157,7.4407,7.3807,7.3557,7.2551,7.0672,7.0166,6.9757,6.9234,6.8721,6.8284,6.7982,6.7707,6.7264,6.6875,6.6286,6.5862,6.607,6.6514,6.3926,6.032,5.8981,5.6875,5.3437,5.0053,4.7849,4.5832,9.7211,9.6865,9.7288,9.7865,9.8519,9.8941,9.9053,9.8741,9.7188,9.6714,9.6919,9.5706,9.5938,9.6689,9.551,9.4833,9.5059,9.3593,9.3142,9.4044,9.5187,9.6351,9.759,9.8454,9.8792,9.8905,9.8905,9.8905,9.8905,9.8905,9.8905,9.8905,9.8905,9.8842,9.8717,9.8589,9.846,9.8395,9.8196,9.7992,9.7961,9.7961,9.8295,9.8412,9.804,9.83,9.8523,9.804,9.7966,9.7892,9.7892,9.7892,9.7892,9.7892,9.7892,9.7743,9.7112,9.6157,9.5059,9.3964,9.2757,9.1541,9.0668,9.0439,9.0324,9.0407,9.0617,9.0855,9.0799,9.0763,9.0924,9.0763,8.9326,8.7854,8.6533,8.5349,8.3958,8.252,8.1631,8.0831,8.0345,7.9892,7.9438,7.905,7.8384,7.7101,7.5868,7.4885,7.425,7.3691,7.2948,7.2415,7.1491,7.0359,7.0018,6.9728,6.9292,6.8779,6.8119,6.7845,6.7541,6.7125,6.6567,6.5692,6.4834,6.4945,6.4641,6.1879,5.8777,5.7623,5.5782,5.2196,4.9193,4.7247,4.5405,9.7557,9.748,9.7557,9.8634,10.0019,9.9773,9.9644,9.9288,9.7391,9.6513,9.6515,9.5744,9.5938,9.6727,9.5525,9.5037,9.4962,9.4023,9.3648,9.4211,9.5826,9.7027,9.7703,9.8454,9.8867,9.8905,9.8905,9.8905,9.8905,9.8905,9.8905,9.8905,9.8905,9.8842,9.878,9.8552,9.8487,9.8423,9.8291,9.8091,9.7992,9.7992,9.8061,9.7998,9.7929,9.7966,9.7966,9.7892,9.7892,9.7892,9.7892,9.7892,9.7892,9.7892,9.7892,9.752,9.6889,9.5832,9.4591,9.3455,9.2052,9.1,9.0141,9.024,9.0309,9.0351,9.0693,9.1497,9.1509,9.1576,9.16,9.1007,8.9742,8.7973,8.6466,8.5219,8.3834,8.2367,8.1122,8.0572,8.0313,7.9762,7.8726,7.8305,7.788,7.6599,7.5315,7.4214,7.3476,7.2925,7.2259,7.154,7.0867,7.0134,6.9902,6.9612,6.9321,6.8759,6.8176,6.7816,6.7679,6.6958,6.6089,6.4989,6.3857,6.2818,6.1835,5.9481,5.7697,5.6054,5.3911,5.0678,4.8271,4.6558,4.5406,9.8058,9.7481,9.8096,9.9365,10.0865,10.0574,10.0365,10.0206,9.7858,9.7166,9.7512,9.676,9.6877,9.7628,9.6239,9.575,9.5638,9.4737,9.4737,9.53,9.6501,9.729,9.7816,9.8567,9.8867,9.8905,9.8905,9.8905,9.8905,9.8905,9.8905,9.8905,9.8905,9.8842,9.8742,9.8552,9.8552,9.8487,9.8487,9.8291,9.8091,9.8061,9.8061,9.7961,9.7892,9.7892,9.7892,9.7892,9.7892,9.7892,9.7892,9.7892,9.7892,9.7892,9.7892,9.7632,9.6486,9.5322,9.4117,9.2793,9.1266,9.0448,8.9953,9.008,9.0264,9.0391,9.0873,9.1817,9.229,9.2318,9.1951,9.1081,8.9916,8.8096,8.6332,8.4987,8.3639,8.214,8.0734,8.0378,8.0183,7.9374,7.8273,7.7608,7.7119,7.6219,7.5079,7.403,7.3064,7.243,7.1674,7.1013,7.0507,6.9902,6.967,6.9554,6.9292,6.8788,6.8148,6.7816,6.7679,6.6845,6.5838,6.4241,6.2803,6.1847,6.0587,5.8723,5.6824,5.5016,5.2908,5.0219,4.7804,4.5769,4.5082,9.8827,9.8173,9.8864,9.9979,10.0937,10.0237,9.967,9.8964,9.7112,9.6686,9.7232,9.6508,9.6802,9.7966,9.6614,9.6163,9.6088,9.5112,9.5187,9.5901,9.6689,9.7515,9.8116,9.8642,9.8829,9.8905,9.8905,9.8905,9.8905,9.8905,9.8905,9.8905,9.8905,9.8842,9.8679,9.8679,9.8616,9.8653,9.8616,9.8487,9.8225,9.8158,9.8128,9.803,9.7892,9.7892,9.7892,9.7892,9.7892,9.7892,9.7892,9.7892,9.7892,9.7892,9.7669,9.7005,9.5869,9.4517,9.3307,9.2009,9.0545,8.9893,8.9628,8.9677,9.0427,9.0712,9.1283,9.2027,9.2127,9.2212,9.1229,9.0458,8.8499,8.6602,8.5527,8.4389,8.2851,8.1209,8.0151,7.9568,7.9277,7.8791,7.7949,7.7722,7.7087,7.5943,7.4834,7.3973,7.3053,7.1685,7.1002,7.0526,7.0126,6.9612,6.9263,6.9292,6.9321,6.8788,6.8119,6.765,6.7151,6.6536,6.553,6.3679,6.2121,6.1158,5.9721,5.7795,5.5904,5.401,5.2134,4.9924,4.7597,4.5406,4.4774,9.9635,9.9058,9.9594,10.0399,10.0889,9.9526,9.863,9.7782,9.6159,9.5976,9.6712,9.5788,9.6276,9.6652,9.6051,9.6013,9.5826,9.53,9.5563,9.5938,9.6727,9.7553,9.8229,9.8792,9.8867,9.8905,9.8905,9.8905,9.8905,9.8905,9.8905,9.8905,9.8905,9.8905,9.8842,9.878,9.8679,9.878,9.878,9.8589,9.846,9.8395,9.8196,9.803,9.7892,9.7892,9.7892,9.7892,9.7892,9.7892,9.7892,9.7892,9.7743,9.7669,9.7084,9.6421,9.5177,9.375,9.2446,9.1168,9.0156,8.9543,8.9407,8.9713,9.0462,9.0998,9.1529,9.175,9.1847,9.1563,9.0612,8.9255,8.7362,8.5591,8.4768,8.3626,8.1934,8.0507,7.9859,7.9147,7.8629,7.8208,7.7884,7.7657,7.6811,7.5667,7.4608,7.3878,7.294,7.1361,7.0079,7.001,6.9844,6.9437,6.8973,6.9002,6.9176,6.8652,6.8119,6.7317,6.6621,6.6172,6.5083,6.3073,6.1582,6.0734,5.884,5.6824,5.4991,5.3132,5.1355,4.9422,4.7131,4.5209,4.4523,9.9942,9.971,9.9742,10.0275,10.0804,10.001,9.9554,9.9069,9.7081,9.699,9.744,9.6239,9.6126,9.7628,9.5938,9.5563,9.5938,9.5525,9.5375,9.5563,9.7215,9.7891,9.8266,9.8754,9.8905,9.8905,9.8905,9.8905,9.8905,9.8905,9.8905,9.8905,9.8905,9.8905,9.8905,9.8842,9.8842,9.8842,9.878,9.8653,9.846,9.8329,9.8233,9.803,9.7892,9.7892,9.7892,9.7892,9.7892,9.7892,9.7855,9.7817,9.7632,9.7191,9.6425,9.5623,9.4374,9.2932,9.1654,9.0665,8.9833,8.9371,8.9392,8.9661,9.0286,9.0692,9.1091,9.1186,9.117,9.0906,8.9901,8.8427,8.6573,8.5158,8.3994,8.2411,8.0841,8.0475,8.0183,7.9438,7.8726,7.824,7.7722,7.7284,7.6553,7.5306,7.3932,7.3163,7.266,7.1007,6.9321,6.9495,6.967,6.9292,6.8857,6.8721,6.8808,6.845,6.781,6.6725,6.6057,6.5834,6.4498,6.2436,6.1331,6.046,5.8379,5.6054,5.418,5.2325,5.0732,4.8742,4.6507,4.4921,4.4143]},{"header":{"parameterUnit":"m.s-1","parameterCategory":1,"la1":31.0,"la2":29.5877,"lo1":-88.7671,"lo2":-86.6584,"dx":0.0162,"dy":0.0185,"nx":115,"ny":88,"refTime":"2022-11-11T18:00:00:Z","depth":0,"parameterNumber":3,"parameterNumberName":"V-component_of_WINDS"},"data":[0.0,0.0,0.0,0.0,0.0,0.0,0.0,0.0,0.0,0.0,0.0,0.0,0.0,0.0,0.0,0.0,0.0,0.0,0.0,0.0,0.0,0.0,0.0,0.0,0.0,0.0,0.0,0.0,0.0,0.0,0.0,0.0,0.0,0.0,0.0,0.0,0.0,0.0,0.0,0.0,0.0,0.0,0.0,0.0,0.0,0.0,0.0,0.0,0.0,0.0,0.0,0.0,0.0,0.0,0.0,0.0,0.0,0.0,0.0,0.0,0.0,0.0,0.0,0.0,0.0,0.0,0.0,0.0,0.0,0.0,0.0,0.0,0.0,0.0,0.0,0.0,0.0,0.0,0.0,0.0,0.0,0.0,0.0,0.0,0.0,0.0,0.0,0.0,0.0,0.0,0.0,0.0,0.0,0.0,0.0,0.0,0.0,0.0,0.0,0.0,0.0,0.0,0.0,0.0,0.0,0.0,0.0,0.0,0.0,0.0,0.0,0.0,0.0,0.0,0.0,0.0,0.0,0.0,0.0,0.0,0.0,0.0,0.0,0.0,0.0,0.0,0.0,0.0,0.0,0.0,0.0,0.0,0.0,0.0,0.0,0.0,0.0,0.0,0.0,0.0,0.0,0.0,0.0,0.0,0.0,0.0,0.0,0.0,0.0,0.0,0.0,0.0,0.0,0.0,0.0,0.0,0.0,0.0,0.0,0.0,0.0,0.0,0.0,0.0,0.0,0.0,0.0,0.0,0.0,0.0,0.0,0.0,0.0,0.0,0.0,0.0,0.0,0.0,0.0,0.0,0.0,0.0,0.0,0.0,0.0,0.0,0.0,0.0,0.0,0.0,0.0,0.0,0.0,0.0,0.0,0.0,0.0,0.0,0.0,0.0,0.0,0.0,0.0,0.0,0.0,0.0,0.0,0.0,0.0,0.0,0.0,0.0,0.0,0.0,0.0,0.0,0.0,0.0,0.0,0.0,0.0,0.0,0.0,0.0,0.0,0.0,0.0,0.0,0.0,0.0,0.0,0.0,0.0,0.0,0.0,0.0,0.0,0.0,0.0,0.0,0.0,0.0,0.0,0.0,0.0,0.0,0.0,0.0,0.0,0.0,0.0,0.0,0.0,0.0,0.0,0.0,0.0,0.0,0.0,0.0,0.0,0.0,0.0,0.0,0.0,0.0,0.0,0.0,0.0,0.0,0.0,0.0,0.0,0.0,0.0,0.0,0.0,0.0,0.0,0.0,0.0,0.0,0.0,0.0,0.0,0.0,0.0,0.0,0.0,0.0,0.0,0.0,0.0,0.0,0.0,0.0,0.0,0.0,0.0,0.0,0.0,0.0,0.0,0.0,0.0,0.0,0.0,0.0,0.0,0.0,0.0,0.0,0.0,0.0,0.0,0.0,0.0,0.0,0.0,0.0,0.0,0.0,0.0,0.0,0.0,0.0,0.0,0.0,0.0,0.0,0.0,0.0,0.0,0.0,0.0,0.0,0.0,0.0,0.0,0.0,0.0,0.0,0.0,0.0,0.0,0.0,0.0,0.0,0.0,0.0,0.0,0.0,0.0,0.0,0.0,0.0,0.0,0.0,0.0,0.0,0.0,0.0,0.0,0.0,0.0,0.0,0.0,0.0,0.0,0.0,0.0,0.0,0.0,0.0,0.0,0.0,0.0,0.0,0.0,0.0,0.0,0.0,0.0,0.0,0.0,0.0,0.0,0.0,0.0,0.0,0.0,0.0,0.0,0.0,0.0,0.0,0.0,0.0,0.0,0.0,0.0,0.0,0.0,0.0,0.0,0.0,0.0,0.0,0.0,0.0,0.0,0.0,0.0,0.0,0.0,0.0,0.0,0.0,0.0,0.0,0.0,0.0,0.0,0.0,0.0,0.0,0.0,0.0,0.0,0.0,0.0,0.0,0.0,0.0,0.0,0.0,0.0,0.0,0.0,0.0,0.0,0.0,0.0,0.0,0.0,0.0,0.0,0.0,0.0,0.0,0.0,0.0,0.0,0.0,0.0,0.0,0.0,0.0,0.0,0.0,0.0,0.0,0.0,0.0,0.0,0.0,0.0,0.0,0.0,0.0,0.0,0.0,0.0,0.0,0.0,0.0,0.0,0.0,0.0,0.0,0.0,0.0,0.0,0.0,0.0,0.0,0.0,0.0,0.0,0.0,0.0,0.0,0.0,0.0,0.0,0.0,0.0,0.0,0.0,0.0,0.0,0.0,0.0,0.0,0.0,0.0,0.0,0.0,0.0,0.0,0.0,0.0,0.0,0.0,0.0,0.0,0.0,0.0,0.0,0.0,0.0,0.0,0.0,0.0,0.0,0.0,0.0,0.0,0.0,0.0,0.0,0.0,0.0,0.0,0.0,0.0,0.0,0.0,0.0,0.0,0.0,0.0,0.0,0.0,0.0,0.0,0.0,0.0,0.0,0.0,0.0,0.0,0.0,0.0,0.0,0.0,0.0,0.0,0.0,0.0,0.0,0.0,0.0,0.0,0.0,0.0,0.0,0.0,0.0,0.0,0.0,0.0,0.0,0.0,0.0,0.0,0.0,0.0,0.0,0.0,0.0,0.0,0.0,0.0,0.0,0.0,0.0,0.0,0.0,0.0,0.0,0.0,0.0,0.0,0.0,0.0,0.0,0.0,0.0,0.0,0.0,0.0,0.0,0.0,0.0,0.0,0.0,0.0,0.0,0.0,0.0,0.0,0.0,0.0,0.0,0.0,0.0,0.0,0.0,0.0,0.0,0.0,0.0,0.0,0.0,0.0,0.0,0.0,0.0,0.0,0.0,0.0,0.0,0.0,0.0,0.0,0.0,0.0,0.0,0.0,0.0,0.0,0.0,0.0,0.0,0.0,0.0,0.0,0.0,0.0,0.0,0.0,0.0,0.0,0.0,0.0,0.0,0.0,0.0,0.0,0.0,0.0,0.0,0.0,0.0,0.0,0.0,0.0,0.0,0.0,0.0,0.0,0.0,0.0,0.0,0.0,0.0,0.0,0.0,0.0,0.0,0.0,0.0,0.0,0.0,0.0,0.0,0.0,0.0,0.0,0.0,0.0,0.0,0.0,0.0,0.0,0.0,0.0,0.0,0.0,0.0,0.0,0.0,0.0,0.0,0.0,0.0,0.0,0.0,0.0,0.0,0.0,0.0,0.0,0.0,0.0,0.0,0.0,0.0,0.0,0.0,0.0,0.0,0.0,0.0,0.0,0.0,0.0,0.0,0.0,0.0,0.0,0.0,0.0,0.0,0.0,0.0,0.0,0.0,0.0,0.0,0.0,0.0,0.0,0.0,0.0,0.0,0.0,0.0,0.0,0.0,0.0,0.0,0.0,0.0,0.0,0.0,0.0,0.0,0.0,0.0,0.0,0.0,0.0,0.0,0.0,0.0,0.0,0.0,0.0,0.0,0.0,0.0,0.0,0.0,0.0,0.0,0.0,0.0,0.0,0.0,0.0,0.0,0.0,0.0,0.0,0.0,0.0,0.0,0.0,0.0,0.0,0.0,0.0,0.0,0.0,0.0,0.0,0.0,0.0,0.0,0.0,0.0,0.0,0.0,0.0,0.0,0.0,0.0,0.0,0.0,0.0,0.0,0.0,0.0,0.0,0.0,0.0,0.0,0.0,0.0,0.0,0.0,0.0,0.0,0.0,0.0,0.0,0.0,0.0,0.0,0.0,0.0,0.0,0.0,0.0,0.0,0.0,0.0,0.0,0.0,0.0,0.0,0.0,0.0,0.0,0.0,0.0,0.0,0.0,0.0,0.0,0.0,0.0,0.0,0.0,0.0,0.0,0.0,0.0,0.0,0.0,0.0,0.0,0.0,0.0,0.0,0.0,0.0,0.0,0.0,0.0,0.0,0.0,0.0,0.0,0.0,0.0,0.0,0.0,0.0,0.0,0.0,0.0,0.0,0.0,0.0,0.0,0.0,0.0,0.0,0.0,0.0,0.0,0.0,0.0,0.0,0.0,0.0,0.0,0.0,0.0,0.0,0.0,0.0,0.0,0.0,0.0,0.0,0.0,0.0,0.0,0.0,0.0,0.0,0.0,0.0,0.0,0.0,0.0,0.0,0.0,0.0,0.0,0.0,0.0,0.0,0.0,0.0,0.0,0.0,0.0,0.0,0.0,0.0,0.0,0.0,0.0,0.0,0.0,0.0,0.0,0.0,0.0,0.0,0.0,0.0,0.0,0.0,0.0,0.0,0.0,0.0,0.0,0.0,0.0,0.0,0.0,0.0,0.0,0.0,0.0,-1.1996,0.0,0.0,0.0,-1.261,0.0,0.0,0.0,0.0,0.0,0.0,0.0,0.0,0.0,0.0,0.0,0.0,0.0,0.0,0.0,0.0,0.0,0.0,0.0,0.0,0.0,0.0,0.0,0.0,0.0,0.0,0.0,0.0,0.0,0.0,0.0,0.0,0.0,0.0,0.0,0.0,0.0,0.0,0.0,0.0,0.0,0.0,0.0,0.0,0.0,0.0,0.0,0.0,0.0,0.0,0.0,0.0,0.0,0.0,0.0,0.0,0.0,0.0,0.0,0.0,0.0,0.0,0.0,0.0,0.0,0.0,0.0,0.0,0.0,0.0,0.0,0.0,0.0,0.0,0.0,0.0,0.0,0.0,0.0,0.0,0.0,0.0,0.0,0.0,0.0,0.0,0.0,0.0,0.0,0.0,0.0,0.0,0.0,0.0,0.0,0.0,0.0,0.0,0.0,0.0,0.0,0.0,0.0,0.0,0.0,0.0,0.0,0.0,0.0,0.0,-1.2572,-1.2674,-1.3126,-1.3216,-1.2785,0.0,0.0,0.0,0.0,0.0,0.0,0.0,0.0,0.0,0.0,0.0,0.0,0.0,0.0,0.0,0.0,0.0,0.0,0.0,0.0,0.0,0.0,0.0,0.0,0.0,0.0,0.0,0.0,0.0,0.0,0.0,0.0,0.0,0.0,0.0,0.0,0.0,0.0,0.0,0.0,0.0,0.0,0.0,0.0,0.0,0.0,0.0,0.0,0.0,0.0,0.0,0.0,0.0,0.0,0.0,0.0,0.0,0.0,0.0,0.0,0.0,0.0,0.0,0.0,0.0,0.0,0.0,0.0,0.0,0.0,0.0,0.0,0.0,0.0,0.0,0.0,0.0,0.0,0.0,0.0,0.0,0.0,0.0,0.0,0.0,0.0,0.0,0.0,0.0,0.0,0.0,0.0,0.0,0.0,0.0,0.0,0.0,0.0,0.0,0.0,0.0,0.0,0.0,0.0,0.0,0.0,0.0,0.0,0.0,0.0,0.0,0.0,-1.3536,-1.3573,-1.334,0.0,0.0,0.0,0.0,0.0,0.0,0.0,0.0,0.0,0.0,0.0,0.0,0.0,0.0,0.0,0.0,0.0,0.0,0.0,0.0,0.0,0.0,0.0,0.0,0.0,0.0,0.0,0.0,0.0,0.0,0.0,0.0,0.0,0.0,0.0,0.0,0.0,0.0,0.0,0.0,0.0,0.0,0.0,0.0,0.0,0.0,0.0,0.0,0.0,0.0,0.0,0.0,0.0,0.0,0.0,0.0,0.0,0.0,0.0,0.0,0.0,0.0,0.0,0.0,0.0,0.0,0.0,0.0,0.0,0.0,0.0,0.0,0.0,0.0,0.0,0.0,0.0,0.0,0.0,0.0,0.0,0.0,0.0,0.0,0.0,0.0,0.0,0.0,0.0,0.0,0.0,0.0,0.0,0.0,0.0,0.0,0.0,0.0,0.0,0.0,0.0,0.0,0.0,0.0,0.0,0.0,0.0,0.0,0.0,0.0,-1.3559,-1.3567,-1.3994,0.0,-1.4307,0.0,0.0,0.0,0.0,0.0,0.0,0.0,0.0,0.0,0.0,0.0,0.0,0.0,0.0,0.0,0.0,0.0,0.0,0.0,0.0,0.0,0.0,0.0,0.0,0.0,0.0,0.0,0.0,0.0,0.0,0.0,0.0,0.0,0.0,0.0,0.0,0.0,0.0,0.0,0.0,0.0,0.0,0.0,0.0,0.0,0.0,0.0,0.0,0.0,0.0,0.0,0.0,0.0,0.0,0.0,0.0,0.0,0.0,0.0,0.0,0.0,0.0,0.0,0.0,0.0,0.0,0.0,0.0,0.0,0.0,0.0,0.0,0.0,0.0,0.0,0.0,0.0,0.0,0.0,0.0,0.0,0.0,0.0,0.0,0.0,0.0,0.0,0.0,0.0,0.0,0.0,0.0,0.0,0.0,0.0,0.0,0.0,0.0,0.0,0.0,0.0,0.0,0.0,0.0,0.0,0.0,0.0,0.0,0.0,0.0,-1.4419,-1.4419,-1.4512,-1.4538,0.0,0.0,0.0,0.0,0.0,0.0,0.0,0.0,0.0,0.0,0.0,0.0,0.0,0.0,0.0,0.0,0.0,0.0,0.0,0.0,0.0,0.0,0.0,0.0,0.0,0.0,0.0,0.0,0.0,0.0,0.0,0.0,0.0,0.0,0.0,0.0,0.0,0.0,0.0,0.0,0.0,0.0,0.0,0.0,0.0,0.0,0.0,0.0,0.0,0.0,0.0,0.0,0.0,0.0,0.0,0.0,0.0,0.0,0.0,0.0,0.0,0.0,0.0,0.0,0.0,0.0,0.0,0.0,0.0,0.0,0.0,0.0,0.0,0.0,0.0,0.0,0.0,0.0,0.0,0.0,0.0,0.0,0.0,0.0,0.0,0.0,0.0,0.0,0.0,0.0,0.0,0.0,0.0,0.0,0.0,0.0,0.0,0.0,0.0,0.0,0.0,0.0,0.0,0.0,0.0,0.0,0.0,0.0,0.0,0.0,-1.4884,-1.5016,-1.5016,-1.5062,-1.5029,-1.5179,0.0,0.0,0.0,0.0,0.0,0.0,0.0,0.0,0.0,0.0,0.0,0.0,0.0,0.0,0.0,0.0,0.0,0.0,0.0,0.0,0.0,0.0,0.0,0.0,0.0,0.0,0.0,0.0,0.0,0.0,0.0,0.0,0.0,0.0,0.0,0.0,0.0,0.0,0.0,0.0,0.0,0.0,0.0,0.0,0.0,0.0,0.0,0.0,0.0,0.0,0.0,0.0,0.0,0.0,0.0,0.0,0.0,0.0,0.0,0.0,0.0,0.0,0.0,0.0,0.0,0.0,0.0,0.0,0.0,0.0,0.0,0.0,0.0,0.0,0.0,0.0,0.0,0.0,0.0,0.0,0.0,0.0,0.0,0.0,0.0,0.0,0.0,0.0,0.0,0.0,0.0,0.0,0.0,0.0,0.0,0.0,0.0,0.0,0.0,0.0,0.0,0.0,0.0,0.0,0.0,0.0,0.0,0.0,-1.4648,-1.5026,-1.5224,-1.5233,-1.5808,-1.5791,0.0,0.0,0.0,0.0,0.0,0.0,0.0,0.0,0.0,0.0,0.0,0.0,0.0,0.0,0.0,0.0,0.0,0.0,0.0,0.0,0.0,0.0,0.0,0.0,0.0,0.0,0.0,0.0,0.0,0.0,0.0,0.0,0.0,0.0,0.0,0.0,0.0,0.0,0.0,0.0,0.0,0.0,0.0,0.0,0.0,0.0,0.0,0.0,0.0,0.0,0.0,0.0,0.0,0.0,0.0,0.0,0.0,0.0,0.0,0.0,0.0,0.0,0.0,0.0,0.0,0.0,0.0,0.0,0.0,0.0,0.0,0.0,0.0,0.0,0.0,0.0,0.0,0.0,0.0,0.0,0.0,0.0,0.0,0.0,0.0,0.0,0.0,0.0,0.0,0.0,0.0,0.0,0.0,0.0,0.0,0.0,0.0,0.0,0.0,0.0,0.0,0.0,0.0,0.0,0.0,0.0,0.0,0.0,0.0,-1.5016,-1.53,-1.5574,-1.5819,-1.5662,-1.5536,0.0,0.0,0.0,0.0,0.0,0.0,0.0,0.0,0.0,0.0,0.0,0.0,0.0,0.0,0.0,0.0,0.0,0.0,0.0,0.0,0.0,0.0,0.0,0.0,0.0,0.0,0.0,0.0,0.0,0.0,0.0,0.0,0.0,0.0,0.0,0.0,0.0,0.0,0.0,0.0,0.0,0.0,0.0,0.0,0.0,0.0,0.0,0.0,0.0,0.0,0.0,0.0,0.0,0.0,0.0,0.0,0.0,0.0,0.0,0.0,0.0,0.0,0.0,0.0,0.0,0.0,0.0,0.0,0.0,0.0,0.0,0.0,0.0,0.0,0.0,0.0,0.0,0.0,0.0,0.0,0.0,0.0,0.0,0.0,0.0,0.0,0.0,0.0,0.0,0.0,0.0,0.0,0.0,0.0,0.0,0.0,0.0,0.0,0.0,0.0,0.0,0.0,0.0,0.0,0.0,0.0,0.0,0.0,0.0,-1.5517,-1.5687,-1.5895,-1.615,-1.5843,-1.5643,0.0,0.0,0.0,0.0,0.0,0.0,0.0,0.0,0.0,0.0,0.0,0.0,0.0,0.0,0.0,0.0,0.0,0.0,0.0,0.0,0.0,0.0,0.0,0.0,0.0,0.0,0.0,0.0,0.0,0.0,0.0,0.0,0.0,0.0,0.0,0.0,0.0,0.0,0.0,0.0,0.0,0.0,0.0,0.0,0.0,0.0,0.0,0.0,0.0,0.0,0.0,0.0,0.0,0.0,0.0,0.0,0.0,0.0,0.0,0.0,0.0,0.0,0.0,0.0,0.0,0.0,0.0,0.0,0.0,0.0,0.0,0.0,0.0,0.0,0.0,0.0,0.0,0.0,0.0,0.0,0.0,0.0,0.0,0.0,0.0,0.0,0.0,0.0,0.0,0.0,0.0,0.0,0.0,0.0,0.0,0.0,0.0,0.0,0.0,0.0,0.0,0.0,0.0,0.0,0.0,0.0,0.0,0.0,-1.5555,-1.6141,-1.6178,-1.6197,-1.6188,-1.626,-1.6155,0.0,0.0,0.0,0.0,0.0,0.0,0.0,0.0,0.0,0.0,0.0,0.0,0.0,0.0,0.0,0.0,0.0,0.0,0.0,0.0,0.0,0.0,0.0,0.0,0.0,0.0,0.0,0.0,0.0,0.0,0.0,0.0,0.0,0.0,0.0,0.0,0.0,0.0,0.0,0.0,0.0,0.0,0.0,0.0,0.0,0.0,0.0,0.0,0.0,0.0,0.0,0.0,0.0,0.0,0.0,0.0,0.0,0.0,0.0,0.0,0.0,0.0,0.0,0.0,0.0,0.0,0.0,0.0,0.0,0.0,0.0,0.0,0.0,0.0,0.0,0.0,0.0,0.0,0.0,0.0,0.0,0.0,0.0,0.0,0.0,0.0,0.0,0.0,0.0,0.0,0.0,0.0,0.0,0.0,0.0,0.0,0.0,0.0,0.0,0.0,0.0,0.0,0.0,0.0,0.0,0.0,0.0,0.0,0.0,-1.5753,-1.5741,-1.574,-1.5731,-1.5836,-1.5819,0.0,0.0,0.0,0.0,0.0,0.0,0.0,0.0,0.0,0.0,0.0,0.0,0.0,0.0,0.0,0.0,0.0,0.0,0.0,0.0,0.0,0.0,0.0,0.0,0.0,0.0,0.0,0.0,0.0,0.0,0.0,0.0,0.0,0.0,0.0,0.0,0.0,0.0,0.0,0.0,0.0,0.0,0.0,0.0,0.0,0.0,0.0,0.0,0.0,0.0,0.0,0.0,0.0,0.0,0.0,0.0,0.0,0.0,0.0,0.0,0.0,0.0,0.0,0.0,0.0,0.0,0.0,0.0,0.0,0.0,0.0,0.0,0.0,0.0,0.0,0.0,0.0,0.0,0.0,0.0,0.0,0.0,0.0,0.0,0.0,0.0,0.0,0.0,0.0,0.0,0.0,0.0,0.0,0.0,0.0,0.0,0.0,0.0,0.0,0.0,0.0,0.0,0.0,0.0,0.0,0.0,0.0,0.0,0.0,-1.5545,-1.563,-1.5682,-1.5544,-1.5457,-1.5461,-1.5815,0.0,0.0,0.0,0.0,0.0,0.0,0.0,0.0,0.0,0.0,0.0,0.0,0.0,0.0,0.0,0.0,0.0,0.0,0.0,0.0,0.0,0.0,0.0,0.0,0.0,0.0,0.0,0.0,0.0,0.0,0.0,0.0,0.0,0.0,0.0,0.0,0.0,0.0,0.0,0.0,0.0,0.0,0.0,0.0,0.0,0.0,0.0,0.0,0.0,0.0,0.0,0.0,0.0,0.0,0.0,0.0,0.0,0.0,0.0,0.0,0.0,0.0,0.0,0.0,0.0,0.0,0.0,0.0,0.0,0.0,0.0,0.0,0.0,0.0,0.0,0.0,0.0,0.0,0.0,0.0,0.0,0.0,0.0,0.0,0.0,0.0,0.0,0.0,0.0,0.0,0.0,0.0,0.0,0.0,0.0,0.0,0.0,0.0,0.0,0.0,0.0,0.0,0.0,0.0,0.0,0.0,0.0,0.0,-1.5369,-1.5729,-1.5872,-1.5487,-1.5119,-1.5104,0.0,0.0,0.0,0.0,0.0,0.0,0.0,0.0,0.0,0.0,0.0,0.0,0.0,0.0,0.0,0.0,0.0,0.0,0.0,0.0,0.0,0.0,0.0,0.0,0.0,0.0,0.0,0.0,0.0,0.0,0.0,0.0,0.0,0.0,0.0,0.0,0.0,0.0,0.0,0.0,0.0,0.0,0.0,0.0,0.0,0.0,0.0,0.0,0.0,0.0,0.0,0.0,0.0,0.0,0.0,0.0,0.0,0.0,0.0,0.0,0.0,0.0,0.0,0.0,0.0,0.0,0.0,0.0,0.0,0.0,0.0,0.0,0.0,0.0,0.0,0.0,0.0,0.0,0.0,0.0,0.0,0.0,0.0,0.0,0.0,0.0,0.0,0.0,0.0,0.0,0.0,0.0,0.0,0.0,0.0,0.0,0.0,0.0,0.0,0.0,0.0,0.0,0.0,0.0,0.0,0.0,0.0,0.0,0.0,-1.4906,-1.4944,-1.5029,-1.4624,-1.4899,-1.5228,0.0,0.0,0.0,0.0,0.0,0.0,0.0,0.0,0.0,0.0,0.0,0.0,0.0,0.0,0.0,0.0,0.0,0.0,0.0,0.0,0.0,0.0,0.0,0.0,0.0,0.0,0.0,0.0,0.0,0.0,0.0,0.0,0.0,0.0,0.0,0.0,0.0,0.0,0.0,0.0,0.0,0.0,0.0,0.0,0.0,0.0,0.0,0.0,0.0,0.0,0.0,0.0,0.0,0.0,0.0,0.0,0.0,0.0,0.0,0.0,0.0,0.0,0.0,0.0,0.0,0.0,0.0,0.0,0.0,0.0,0.0,0.0,0.0,0.0,0.0,0.0,0.0,0.0,0.0,0.0,0.0,0.0,0.0,0.0,0.0,0.0,0.0,0.0,0.0,0.0,0.0,0.0,0.0,0.0,0.0,0.0,0.0,0.0,0.0,0.0,0.0,0.0,0.0,0.0,0.0,0.0,0.0,0.0,-1.5404,-1.5123,-1.4785,-1.4583,-1.4337,-1.4705,-1.52,0.0,0.0,0.0,0.0,0.0,0.0,0.0,0.0,0.0,0.0,0.0,0.0,0.0,0.0,0.0,0.0,0.0,0.0,0.0,0.0,0.0,0.0,0.0,0.0,0.0,0.0,0.0,0.0,0.0,0.0,0.0,0.0,0.0,0.0,0.0,0.0,0.0,0.0,0.0,0.0,0.0,0.0,0.0,0.0,0.0,0.0,0.0,0.0,0.0,0.0,0.0,0.0,0.0,0.0,0.0,0.0,0.0,0.0,0.0,0.0,0.0,0.0,0.0,0.0,0.0,0.0,0.0,0.0,0.0,0.0,0.0,0.0,0.0,0.0,0.0,0.0,0.0,0.0,0.0,0.0,0.0,0.0,0.0,0.0,0.0,0.0,0.0,0.0,0.0,0.0,0.0,0.0,0.0,0.0,0.0,0.0,0.0,0.0,0.0,0.0,0.0,0.0,0.0,0.0,0.0,0.0,0.0,0.0,-1.5272,-1.5712,-1.5026,-1.4523,-1.438,-1.465,-1.4944,0.0,0.0,0.0,0.0,0.0,0.0,0.0,0.0,0.0,0.0,0.0,0.0,0.0,0.0,0.0,0.0,0.0,0.0,0.0,0.0,0.0,0.0,0.0,0.0,0.0,0.0,0.0,0.0,0.0,0.0,0.0,0.0,0.0,0.0,0.0,0.0,0.0,0.0,0.0,0.0,0.0,0.0,0.0,0.0,0.0,0.0,0.0,0.0,0.0,0.0,0.0,0.0,0.0,0.0,0.0,0.0,0.0,0.0,0.0,0.0,0.0,0.0,0.0,0.0,0.0,0.0,0.0,0.0,0.0,0.0,0.0,0.0,0.0,0.0,0.0,0.0,0.0,0.0,0.0,0.0,0.0,0.0,0.0,0.0,0.0,0.0,0.0,0.0,0.0,0.0,0.0,0.0,0.0,0.0,0.0,0.0,0.0,0.0,0.0,0.0,0.0,0.0,0.0,0.0,0.0,0.0,0.0,0.0,-1.5496,-1.5348,-1.5209,-1.5025,-1.4991,-1.5183,-1.5127,0.0,0.0,0.0,0.0,0.0,0.0,0.0,0.0,0.0,0.0,0.0,0.0,0.0,0.0,0.0,0.0,0.0,0.0,0.0,0.0,0.0,0.0,0.0,0.0,0.0,0.0,0.0,0.0,0.0,0.0,0.0,0.0,0.0,0.0,0.0,0.0,0.0,0.0,0.0,0.0,0.0,0.0,0.0,0.0,0.0,0.0,0.0,0.0,-2.7131,0.0,0.0,0.0,0.0,0.0,0.0,0.0,0.0,0.0,0.0,0.0,0.0,0.0,0.0,0.0,0.0,0.0,0.0,0.0,0.0,0.0,0.0,0.0,0.0,0.0,0.0,0.0,0.0,0.0,0.0,0.0,0.0,0.0,0.0,0.0,0.0,0.0,0.0,0.0,0.0,0.0,0.0,0.0,0.0,0.0,0.0,0.0,0.0,0.0,0.0,0.0,0.0,0.0,0.0,0.0,0.0,0.0,0.0,0.0,-1.5858,-1.5811,-1.5652,-1.5478,-1.5269,-1.549,-1.5388,0.0,0.0,0.0,0.0,0.0,0.0,0.0,0.0,0.0,0.0,0.0,0.0,0.0,0.0,0.0,0.0,0.0,0.0,0.0,0.0,0.0,0.0,0.0,0.0,0.0,0.0,0.0,0.0,0.0,0.0,0.0,0.0,0.0,0.0,0.0,0.0,0.0,0.0,0.0,0.0,0.0,0.0,0.0,0.0,0.0,0.0,0.0,0.0,0.0,0.0,0.0,0.0,0.0,0.0,0.0,0.0,0.0,0.0,0.0,0.0,0.0,0.0,0.0,0.0,0.0,0.0,0.0,0.0,0.0,0.0,0.0,0.0,0.0,0.0,0.0,0.0,0.0,0.0,0.0,0.0,0.0,0.0,0.0,0.0,0.0,0.0,0.0,0.0,0.0,0.0,0.0,0.0,0.0,0.0,0.0,0.0,0.0,0.0,0.0,0.0,0.0,0.0,0.0,0.0,0.0,0.0,0.0,-1.6502,-1.6495,-1.6465,-1.6256,-1.6046,-1.5664,-1.5751,-1.584,-1.5897,0.0,0.0,0.0,0.0,0.0,0.0,0.0,0.0,0.0,0.0,0.0,0.0,0.0,0.0,0.0,0.0,0.0,0.0,0.0,0.0,0.0,0.0,0.0,0.0,0.0,0.0,0.0,0.0,0.0,0.0,0.0,0.0,0.0,0.0,0.0,0.0,0.0,0.0,-2.5802,-2.5282,0.0,0.0,0.0,0.0,0.0,0.0,0.0,0.0,-2.6693,0.0,0.0,0.0,0.0,0.0,0.0,0.0,0.0,0.0,0.0,0.0,0.0,0.0,0.0,0.0,0.0,0.0,0.0,0.0,0.0,0.0,0.0,0.0,0.0,0.0,0.0,0.0,0.0,0.0,0.0,0.0,0.0,0.0,0.0,0.0,0.0,0.0,0.0,0.0,0.0,0.0,0.0,0.0,0.0,0.0,0.0,0.0,0.0,0.0,0.0,0.0,0.0,0.0,0.0,0.0,0.0,-1.6639,-1.6567,-1.6549,-1.6629,-1.6522,-1.6565,-1.6363,-1.6266,-1.5989,-1.5876,0.0,0.0,0.0,0.0,0.0,0.0,0.0,0.0,0.0,0.0,0.0,0.0,0.0,0.0,0.0,0.0,0.0,0.0,0.0,0.0,0.0,0.0,0.0,0.0,0.0,0.0,0.0,0.0,0.0,0.0,0.0,0.0,0.0,0.0,0.0,0.0,0.0,0.0,0.0,-2.5149,-2.4609,0.0,0.0,0.0,0.0,0.0,0.0,0.0,0.0,-2.6545,0.0,0.0,0.0,0.0,0.0,0.0,0.0,0.0,0.0,0.0,0.0,0.0,0.0,0.0,0.0,0.0,0.0,0.0,0.0,0.0,0.0,0.0,0.0,0.0,0.0,0.0,0.0,0.0,0.0,0.0,0.0,0.0,0.0,0.0,0.0,0.0,0.0,0.0,0.0,0.0,0.0,0.0,0.0,0.0,0.0,0.0,0.0,0.0,0.0,0.0,0.0,0.0,0.0,0.0,0.0,-1.6999,-1.6893,-1.7057,-1.7169,-1.732,-1.7142,-1.702,-1.6634,-1.6346,0.0,0.0,0.0,0.0,0.0,0.0,0.0,0.0,0.0,0.0,0.0,0.0,0.0,0.0,0.0,0.0,0.0,0.0,0.0,0.0,0.0,0.0,0.0,0.0,0.0,0.0,0.0,0.0,0.0,0.0,0.0,0.0,0.0,0.0,0.0,0.0,0.0,0.0,0.0,0.0,-2.5369,-2.474,-2.3879,0.0,0.0,0.0,0.0,0.0,0.0,-2.5382,-2.6027,0.0,0.0,0.0,0.0,0.0,0.0,0.0,0.0,0.0,0.0,0.0,0.0,0.0,0.0,0.0,0.0,0.0,0.0,0.0,0.0,0.0,0.0,0.0,0.0,0.0,0.0,0.0,0.0,0.0,0.0,0.0,0.0,0.0,0.0,0.0,0.0,0.0,0.0,0.0,0.0,0.0,0.0,0.0,0.0,0.0,0.0,0.0,0.0,0.0,0.0,0.0,0.0,0.0,0.0,0.0,-1.7478,-1.7372,-1.7555,-1.786,-1.7896,-1.7866,-1.7599,-1.7162,-1.7042,0.0,0.0,0.0,0.0,0.0,0.0,0.0,0.0,0.0,0.0,0.0,0.0,0.0,0.0,0.0,0.0,0.0,0.0,0.0,0.0,0.0,0.0,0.0,0.0,0.0,0.0,0.0,0.0,0.0,0.0,0.0,0.0,0.0,0.0,0.0,0.0,0.0,0.0,0.0,0.0,0.0,-2.4972,-2.3166,-2.3441,0.0,0.0,0.0,0.0,-2.4548,-2.4939,0.0,0.0,0.0,0.0,0.0,0.0,0.0,0.0,0.0,0.0,0.0,0.0,0.0,0.0,0.0,0.0,0.0,0.0,0.0,0.0,0.0,0.0,0.0,0.0,0.0,0.0,0.0,0.0,0.0,0.0,0.0,0.0,0.0,0.0,0.0,0.0,0.0,0.0,0.0,0.0,0.0,0.0,0.0,0.0,0.0,0.0,0.0,0.0,0.0,0.0,0.0,0.0,0.0,0.0,0.0,0.0,-1.7478,-1.7372,-1.7729,-1.8428,-1.8198,-1.8184,-1.82,-1.7666,-1.7351,0.0,0.0,0.0,0.0,0.0,0.0,0.0,0.0,0.0,0.0,0.0,0.0,0.0,0.0,0.0,0.0,0.0,0.0,0.0,0.0,0.0,0.0,0.0,0.0,0.0,0.0,0.0,0.0,0.0,0.0,0.0,0.0,0.0,0.0,0.0,0.0,0.0,0.0,0.0,0.0,0.0,-2.4974,-2.4786,-2.4384,-2.4153,0.0,0.0,-2.4095,-2.4265,-2.4518,0.0,0.0,0.0,0.0,0.0,0.0,0.0,0.0,0.0,0.0,0.0,0.0,0.0,0.0,0.0,0.0,0.0,0.0,0.0,0.0,0.0,0.0,0.0,0.0,0.0,0.0,0.0,0.0,0.0,0.0,0.0,0.0,0.0,0.0,0.0,0.0,0.0,0.0,0.0,0.0,0.0,0.0,0.0,0.0,0.0,0.0,0.0,0.0,0.0,0.0,0.0,0.0,0.0,0.0,0.0,-1.7769,-1.83,-1.81,-1.8484,-1.9688,-1.9784,-1.9673,-1.9572,-1.9413,-1.9116,0.0,0.0,0.0,0.0,0.0,0.0,0.0,0.0,0.0,0.0,0.0,0.0,0.0,0.0,0.0,0.0,0.0,0.0,0.0,0.0,0.0,0.0,0.0,0.0,0.0,0.0,0.0,0.0,0.0,0.0,0.0,0.0,0.0,0.0,0.0,0.0,0.0,0.0,0.0,0.0,0.0,0.0,-2.4219,-2.4099,0.0,0.0,0.0,-2.394,-2.3987,0.0,0.0,0.0,0.0,0.0,0.0,0.0,0.0,0.0,0.0,0.0,0.0,0.0,0.0,0.0,0.0,0.0,0.0,0.0,0.0,0.0,0.0,0.0,0.0,0.0,0.0,0.0,0.0,0.0,0.0,0.0,0.0,0.0,0.0,0.0,0.0,0.0,0.0,0.0,0.0,0.0,0.0,0.0,0.0,0.0,0.0,0.0,0.0,0.0,0.0,0.0,0.0,0.0,0.0,0.0,0.0,0.0,-1.8977,-1.8731,-1.9311,-2.0588,-2.1005,-2.1031,-2.0702,-2.0836,0.0,0.0,0.0,0.0,0.0,0.0,0.0,0.0,0.0,0.0,0.0,0.0,0.0,0.0,0.0,0.0,0.0,0.0,0.0,0.0,0.0,0.0,0.0,0.0,0.0,0.0,0.0,-1.8867,0.0,0.0,0.0,0.0,0.0,0.0,0.0,0.0,0.0,0.0,0.0,0.0,0.0,0.0,-2.5451,-2.4085,-2.4335,-2.4589,0.0,0.0,-2.4347,-2.4335,-2.5525,-2.6625,0.0,0.0,0.0,0.0,0.0,0.0,0.0,0.0,0.0,0.0,0.0,0.0,0.0,0.0,0.0,0.0,0.0,0.0,0.0,0.0,0.0,0.0,0.0,0.0,0.0,0.0,0.0,0.0,0.0,0.0,0.0,0.0,0.0,0.0,0.0,0.0,0.0,0.0,0.0,0.0,0.0,0.0,0.0,0.0,0.0,0.0,0.0,0.0,0.0,0.0,0.0,0.0,0.0,0.0,0.0,-1.9177,-1.9071,-1.9639,-2.0782,-2.1587,-2.1687,-2.108,-2.1506,-2.1138,0.0,0.0,0.0,0.0,0.0,0.0,0.0,0.0,0.0,0.0,0.0,0.0,0.0,0.0,0.0,0.0,0.0,0.0,0.0,0.0,0.0,0.0,0.0,0.0,0.0,0.0,0.0,0.0,0.0,0.0,0.0,0.0,0.0,0.0,0.0,0.0,0.0,0.0,0.0,0.0,0.0,-2.5766,-2.5373,-2.5542,-2.5796,0.0,0.0,-2.5699,-2.5687,-2.6613,-2.7442,-2.7888,0.0,0.0,0.0,0.0,0.0,0.0,0.0,0.0,0.0,0.0,0.0,0.0,0.0,0.0,0.0,0.0,0.0,0.0,0.0,0.0,0.0,0.0,0.0,0.0,0.0,0.0,0.0,0.0,0.0,0.0,0.0,0.0,0.0,0.0,0.0,0.0,0.0,0.0,0.0,0.0,0.0,0.0,0.0,0.0,0.0,0.0,0.0,0.0,0.0,0.0,0.0,0.0,0.0,-1.8505,-1.973,-1.9523,-2.0485,-2.236,-2.3117,-2.35,-2.349,-2.3538,-2.2879,0.0,0.0,0.0,0.0,0.0,0.0,0.0,0.0,0.0,0.0,0.0,0.0,0.0,0.0,0.0,0.0,0.0,0.0,0.0,0.0,0.0,0.0,0.0,0.0,0.0,0.0,0.0,0.0,-1.9989,-2.0232,-2.0668,0.0,0.0,0.0,0.0,0.0,0.0,0.0,0.0,0.0,0.0,-2.6016,-2.5981,-2.6158,0.0,0.0,-2.6496,-2.6491,-2.7197,-2.7565,-2.8506,-3.0287,-3.094,0.0,0.0,0.0,0.0,0.0,0.0,0.0,0.0,0.0,0.0,0.0,0.0,0.0,0.0,0.0,0.0,0.0,0.0,0.0,0.0,0.0,0.0,0.0,0.0,0.0,0.0,0.0,0.0,0.0,0.0,0.0,0.0,0.0,0.0,0.0,0.0,0.0,0.0,0.0,0.0,0.0,0.0,0.0,0.0,0.0,0.0,0.0,0.0,0.0,0.0,0.0,0.0,-1.868,-2.0308,-2.0078,-2.1047,-2.3581,-2.4292,-2.4754,-2.5154,-2.5099,-2.4525,0.0,0.0,0.0,0.0,0.0,0.0,0.0,0.0,0.0,0.0,0.0,0.0,0.0,0.0,0.0,0.0,0.0,0.0,0.0,0.0,0.0,0.0,0.0,0.0,0.0,0.0,0.0,0.0,-2.0429,-2.0576,-2.0826,0.0,0.0,0.0,0.0,0.0,0.0,0.0,0.0,0.0,0.0,-2.6202,-2.6242,-2.6759,-2.6965,-2.7075,-2.7047,-2.7396,-2.8255,-2.8941,-2.9992,-3.2216,0.0,0.0,0.0,0.0,0.0,0.0,0.0,0.0,0.0,0.0,0.0,0.0,0.0,0.0,0.0,0.0,0.0,0.0,0.0,0.0,0.0,0.0,0.0,0.0,0.0,0.0,0.0,0.0,0.0,0.0,-1.1504,0.0,0.0,0.0,0.0,0.0,0.0,0.0,0.0,0.0,0.0,0.0,0.0,0.0,0.0,0.0,0.0,0.0,0.0,0.0,0.0,0.0,0.0,-1.9158,-2.0526,-2.0403,-2.1384,-2.3796,-2.5059,-2.5599,-2.5609,-2.6244,-2.5923,-2.4608,0.0,0.0,0.0,0.0,0.0,0.0,0.0,0.0,0.0,0.0,0.0,0.0,0.0,0.0,0.0,0.0,0.0,0.0,0.0,0.0,0.0,0.0,0.0,0.0,0.0,0.0,-2.0367,-2.0539,-2.0847,0.0,0.0,0.0,0.0,0.0,0.0,0.0,0.0,0.0,0.0,-2.5974,-2.6362,-2.6556,-2.7206,-2.7653,-2.7417,-2.7851,-2.8347,-2.8884,-3.0349,-3.2169,0.0,0.0,0.0,0.0,0.0,0.0,0.0,0.0,0.0,0.0,0.0,0.0,0.0,0.0,0.0,0.0,0.0,0.0,0.0,0.0,0.0,0.0,0.0,0.0,0.0,0.0,0.0,-1.2211,-1.2247,0.0,0.0,0.0,0.0,0.0,0.0,0.0,0.0,0.0,0.0,0.0,-1.4381,-1.4396,0.0,0.0,0.0,0.0,0.0,0.0,0.0,0.0,0.0,0.0,0.0,0.0,-1.8967,-2.0922,-2.0934,-2.2116,-2.4625,-2.5841,-2.6609,-2.7113,-2.7134,-2.6244,-2.4659,0.0,0.0,0.0,0.0,0.0,0.0,0.0,0.0,0.0,0.0,0.0,0.0,0.0,0.0,0.0,0.0,0.0,0.0,0.0,0.0,0.0,0.0,0.0,0.0,0.0,-2.0686,0.0,0.0,0.0,0.0,0.0,0.0,0.0,0.0,0.0,0.0,0.0,-2.4539,-2.6045,-2.6155,-2.6528,-2.7414,-2.8132,-2.8831,0.0,0.0,0.0,0.0,0.0,0.0,0.0,0.0,0.0,0.0,0.0,0.0,0.0,0.0,-4.3317,-4.2316,-4.2638,-4.3327,-4.3986,0.0,0.0,0.0,0.0,0.0,0.0,0.0,0.0,0.0,0.0,0.0,0.0,0.0,0.0,-1.2493,0.0,-1.221,0.0,0.0,0.0,0.0,0.0,0.0,0.0,0.0,-1.372,-1.4099,-1.4405,-1.4463,-1.4492,0.0,-1.4651,-1.4975,0.0,0.0,0.0,0.0,0.0,0.0,0.0,0.0,-1.9802,-2.1534,-2.2,-2.3382,-2.5573,-2.6327,-2.706,-2.8005,-2.7589,-2.6724,-2.5409,-2.439,-2.3765,0.0,0.0,0.0,0.0,0.0,0.0,0.0,0.0,0.0,0.0,0.0,0.0,0.0,0.0,0.0,0.0,0.0,0.0,0.0,0.0,0.0,0.0,0.0,-2.112,0.0,0.0,0.0,0.0,0.0,0.0,0.0,0.0,0.0,-2.3782,-2.4327,-2.5157,-2.6401,-2.6656,-2.7002,-2.8062,0.0,0.0,0.0,0.0,0.0,0.0,0.0,-3.4611,-3.6577,-3.6826,-3.7755,-4.0299,-4.2734,-4.4711,-4.6104,0.0,0.0,-4.5586,-4.5653,-4.6166,-4.6802,-4.7499,-4.8224,-4.8679,-4.9261,-4.9866,0.0,0.0,0.0,0.0,0.0,0.0,0.0,0.0,-1.2677,-1.2734,0.0,-1.2528,0.0,0.0,0.0,0.0,0.0,-1.4592,0.0,0.0,-1.5056,-1.4885,-1.4557,-1.4707,-1.4785,-1.4792,-1.5126,-1.5292,-1.5436,-1.5165,0.0,0.0,0.0,0.0,0.0,0.0,-2.1529,-2.2573,-2.3809,-2.5194,-2.6484,-2.6922,-2.7589,-2.8027,-2.8027,-2.7589,-2.6692,-2.6232,-2.5751,-2.4469,-2.3719,0.0,0.0,0.0,0.0,0.0,0.0,0.0,0.0,0.0,0.0,0.0,0.0,0.0,0.0,0.0,0.0,0.0,0.0,0.0,0.0,-2.1339,0.0,0.0,0.0,0.0,0.0,0.0,0.0,0.0,0.0,0.0,-2.4431,-2.4778,-2.547,-2.6508,0.0,0.0,0.0,0.0,-3.0307,-3.1149,-3.209,-3.3043,-3.3807,-3.5637,-3.7194,-3.7708,0.0,0.0,-4.35,-4.6215,-4.83,-4.9118,-5.1043,-5.1844,-4.8938,-4.8377,-4.8567,-4.9116,-4.9669,-5.0298,-5.1139,-5.1498,-5.1934,-1.3424,0.0,0.0,0.0,0.0,-1.2986,-1.3218,-1.3619,-1.3415,-1.3394,-1.3424,-1.3186,0.0,0.0,0.0,0.0,0.0,0.0,-1.5041,-1.4736,-1.4837,-1.4821,-1.4496,-1.4544,-1.462,-1.473,-1.4903,-1.4903,-1.4903,-1.5068,-1.5712,-1.6787,0.0,0.0,0.0,0.0,-2.166,-2.3238,-2.4748,-2.5858,-2.6943,-2.7674,-2.8038,-2.8264,-2.8264,-2.8124,-2.761,-2.7017,-2.6497,-2.5997,-2.4822,0.0,0.0,0.0,0.0,0.0,0.0,0.0,0.0,0.0,0.0,0.0,0.0,0.0,0.0,0.0,0.0,0.0,0.0,0.0,-2.1874,-2.2262,-2.2582,0.0,0.0,0.0,0.0,0.0,0.0,0.0,0.0,0.0,-2.5908,-2.5856,-2.6134,0.0,0.0,-2.7854,-2.8779,-2.925,-3.0518,-3.3272,-3.3605,0.0,-3.5794,-3.7091,-3.8203,-3.9003,-4.1654,-4.3937,-4.4501,-4.7076,-4.9333,-4.9916,-5.2196,-5.3766,-5.347,-5.2615,-5.2142,-5.2391,-5.2516,-5.2942,-5.3959,-5.421,-5.4653,-1.4353,-1.3987,-1.3539,-1.3501,-1.3631,-1.3568,-1.3749,-1.4089,-1.393,-1.3871,-1.3966,-1.3824,-1.4009,-1.4319,-1.5694,0.0,0.0,0.0,-1.5652,-1.5403,-1.5291,-1.5054,-1.4692,-1.4753,-1.4855,-1.5004,-1.5065,-1.5065,-1.5004,-1.5348,-1.5939,-1.6587,0.0,0.0,-1.9745,-2.1336,-2.275,-2.4367,-2.5933,-2.7068,-2.767,-2.8134,-2.836,-2.836,-2.836,-2.8296,-2.8156,-2.7706,-2.7123,-2.7015,-2.6082,-2.5399,0.0,0.0,0.0,0.0,0.0,0.0,0.0,0.0,0.0,0.0,0.0,-2.1963,-2.1389,0.0,0.0,0.0,-2.2056,-2.2335,-2.2826,-2.3128,0.0,0.0,0.0,0.0,0.0,0.0,0.0,-2.5186,-2.5748,-2.6175,-2.6834,-2.6979,-2.7123,-2.7449,-2.8186,-2.8756,-2.9218,0.0,-3.2267,-3.458,-3.4981,-3.5638,-3.7328,-3.8924,-4.0632,-4.2562,-4.4277,-4.6106,-4.7538,-4.9685,-5.1483,-5.2682,-5.4582,-5.6277,-5.6323,-5.5641,-5.4863,-5.4461,-5.4561,-5.4938,-5.5591,-5.5861,-5.6479,-1.5018,-1.4936,-1.4102,-1.3817,-1.3899,-1.377,-1.3953,-1.4319,-1.4183,-1.4278,-1.4516,-1.4394,-1.4778,-1.5456,-1.6031,0.0,-1.6728,-1.6876,-1.6764,-1.6241,-1.5831,-1.5547,-1.521,-1.516,-1.5296,-1.5452,-1.5588,-1.5581,-1.5452,-1.5966,-1.6344,-1.6195,-1.7004,-1.8033,-1.953,-2.2407,-2.4326,-2.5337,-2.7314,-2.8283,-2.8353,-2.8511,-2.836,-2.836,-2.836,-2.836,-2.836,-2.8156,-2.7941,-2.7704,-2.7262,-2.6688,-2.5946,0.0,0.0,0.0,0.0,0.0,0.0,0.0,0.0,0.0,0.0,0.0,0.0,0.0,0.0,0.0,-2.3627,0.0,-2.3973,-2.4202,0.0,0.0,0.0,-2.6356,-2.7051,-2.7015,-2.6974,-2.6698,0.0,0.0,-2.7425,-2.7896,-2.8399,-2.8411,-2.9558,-3.0415,-2.9937,-3.2611,-3.474,-3.5159,-3.6336,-3.7461,-3.8382,-4.0882,-4.3706,-4.6738,-4.7239,-4.8045,-5.0768,-5.2912,-5.4277,-5.5626,-5.7629,-5.8629,-5.8052,-5.7524,-5.6972,-5.5968,-5.6043,-5.6369,-5.6646,-5.7015,-5.7811,-1.5411,-1.5276,-1.495,-1.4699,-1.4523,-1.4489,-1.4536,-1.4631,-1.4597,-1.4618,-1.4685,-1.4652,-1.5687,-1.7411,-1.6465,-1.6834,-1.8342,-1.7516,-1.6996,-1.6562,-1.6413,-1.6191,-1.6039,-1.5705,-1.5608,-1.5744,-1.5784,-1.5784,-1.575,-1.598,-1.6175,-1.6529,-1.7068,-1.8246,-1.9708,-2.1687,-2.3721,-2.5337,-2.6891,-2.8045,-2.8497,-2.849,-2.836,-2.836,-2.836,-2.836,-2.836,-2.8307,-2.8253,-2.8188,-2.7736,-2.7394,-2.7336,-2.6242,0.0,0.0,0.0,0.0,0.0,0.0,0.0,0.0,0.0,-2.29,-2.2217,0.0,-2.3284,0.0,-2.4879,-2.5494,-2.5108,-2.5289,0.0,0.0,-2.6067,-2.6505,-2.8604,-2.895,-2.8924,-2.8924,-2.9144,-2.8938,-2.8168,-2.9068,-2.9973,-3.0178,-3.0596,-3.1447,-3.2858,-3.3499,-3.4679,-3.6579,-3.6858,-3.7598,-4.005,-4.3253,-4.6074,-4.8428,-4.9385,-5.0374,-5.1532,-5.3997,-5.5947,-5.6262,-5.827,-5.9328,-5.873,-5.9031,-5.9232,-5.8629,-5.7976,-5.7901,-5.9056,-5.964,-6.0329,-1.5547,-1.5404,-1.5316,-1.5153,-1.493,-1.4875,-1.4916,-1.5031,-1.4964,-1.4977,-1.5038,-1.5038,-1.5687,-1.6778,-1.622,-1.6641,-1.7632,-1.7288,-1.7078,-1.6793,-1.6678,-1.6421,-1.6401,-1.5897,-1.5811,-1.5954,-1.5954,-1.5954,-1.5954,-1.5954,-1.6151,-1.6349,-1.7202,-1.8228,-1.9824,-2.1483,-2.3517,-2.5728,-2.7239,-2.8251,-2.8694,-2.8576,-2.8511,-2.8511,-2.863,-2.8533,-2.822,-2.8307,-2.8296,-2.8145,-2.7833,-2.7752,-2.772,-2.699,-2.6393,0.0,0.0,0.0,0.0,0.0,0.0,0.0,0.0,0.0,0.0,0.0,-2.4456,-2.4745,-2.5868,-2.6411,-2.6013,-2.6315,-2.7127,-2.8869,-2.8522,-2.8965,-3.1175,-3.1437,-3.1318,-3.0988,-3.1218,-3.1062,-3.0402,-3.1195,-3.2001,-3.2744,-3.296,-3.3303,-3.4078,-3.5031,-3.6175,-3.7327,-3.7593,-3.8767,-4.1953,-4.5148,-4.7701,-4.9271,-5.0505,-5.1547,-5.2825,-5.5036,-5.6701,-5.7542,-5.9514,-6.0814,-6.0035,-6.0261,-6.0638,-6.0588,-6.0161,-5.9935,-6.0574,-6.1165,-6.1913,-1.5588,-1.5466,-1.5445,-1.5364,-1.5228,-1.5106,-1.5194,-1.5404,-1.5289,-1.5316,-1.5438,-1.5438,-1.5452,-1.5466,-1.5827,-1.628,-1.6423,-1.6847,-1.6972,-1.681,-1.6565,-1.6444,-1.6465,-1.6014,-1.5954,-1.6083,-1.6083,-1.6083,-1.6083,-1.6083,-1.6083,-1.6289,-1.7428,-1.8521,-1.9565,-2.1528,-2.3616,-2.6021,-2.7642,-2.8457,-2.8651,-2.8683,-2.8705,-2.8716,-2.8953,-2.878,-2.8145,-2.8274,-2.8231,-2.7739,-2.7757,-2.7671,-2.7714,-2.7614,-2.733,0.0,-2.6032,0.0,0.0,0.0,0.0,0.0,0.0,0.0,0.0,-2.524,-2.5627,-2.5687,-2.6568,-2.7051,-2.6858,-2.7244,-2.8444,-3.1022,-3.1291,-3.1954,-3.3709,-3.4083,-3.3749,-3.3044,-3.3072,-3.2971,-3.2877,-3.3323,-3.3887,-3.504,-3.5473,-3.5524,-3.5058,-3.6716,-3.8055,-3.7629,-3.8885,-4.129,-4.44,-4.6985,-4.9091,-5.051,-5.1429,-5.239,-5.4194,-5.5832,-5.736,-5.8796,-6.0576,-6.1743,-6.1266,-6.119,-6.1441,-6.1793,-6.1868,-6.1853,-6.1514,-6.1906,-6.2633,-1.5798,-1.5757,-1.5642,-1.5581,-1.5547,-1.5527,-1.5472,-1.5418,-1.5513,-1.5567,-1.5594,-1.5594,-1.5662,-1.5757,-1.5649,-1.587,-1.5993,-1.6824,-1.7017,-1.6745,-1.6969,-1.7049,-1.6778,-1.622,-1.6056,-1.6083,-1.6083,-1.6083,-1.6083,-1.6083,-1.6275,-1.6672,-1.7621,-1.8575,-1.9752,0.0,0.0,0.0,-2.7685,-2.8382,-2.8436,-2.8608,-2.8705,-2.8705,-2.8953,0.0,-2.8587,-2.8436,-2.8328,-2.8027,-2.7865,0.0,0.0,0.0,0.0,0.0,0.0,0.0,0.0,0.0,0.0,0.0,-2.5977,-2.5784,-2.5071,-2.5856,-2.6592,-2.7015,-2.7425,-2.7727,-2.7896,-2.7993,-2.8338,-2.9103,-3.0007,-3.1434,-3.2999,-3.4139,-3.4706,-3.4877,-3.4714,-3.41,-3.3455,-3.4075,-3.504,-3.5428,-3.6776,-3.768,-3.766,-3.8261,-3.8703,-3.9383,-4.1574,-4.4335,-4.7366,-4.9683,-5.1285,-5.2503,-5.3529,-5.4303,-5.5079,-5.6827,-5.8422,-5.9281,-6.076,-6.1843,-6.1341,-6.1542,-6.1893,-6.1994,-6.2345,-6.2621,-6.2558,-6.2906,-6.3465,-1.5995,0.0,-1.5778,-1.5703,0.0,-1.5716,-1.5703,-1.5635,-1.571,-1.5744,-1.5744,-1.5744,-1.5784,-1.5852,-1.5778,-1.5825,-1.5961,-1.6984,-1.6955,-1.6643,-1.7312,-1.7341,-1.6757,-1.6247,-1.6083,-1.6083,-1.6083,-1.6083,-1.6083,-1.6083,-1.6282,-1.6481,-1.7508,-1.8518,-1.9521,-2.2424,-2.4731,-2.6124,-2.7765,-2.8716,-2.8727,-2.8942,-2.9006,-2.8899,-2.9125,0.0,0.0,0.0,0.0,0.0,0.0,0.0,0.0,0.0,0.0,-2.7075,-2.661,-2.626,-2.6124,-2.5902,-2.5925,-2.6423,-2.6798,-2.6906,-2.6616,-2.6991,-2.7437,-2.7956,-2.8137,-2.8318,-2.8572,-2.8717,-2.9176,-2.9947,-3.1159,-3.2597,-3.406,-3.5449,-3.6344,-3.6498,-3.639,-3.5975,-3.5554,-3.5972,-3.6545,-3.656,-3.7398,-3.8322,-3.864,-3.9606,-4.0487,-4.1766,-4.4113,-4.6366,-4.8439,-5.0795,-5.2673,-5.3454,-5.4288,-5.4982,-5.507,-5.7045,-5.8823,-5.9093,-6.0899,-6.2295,-6.2094,-6.222,-6.2395,-6.2421,-6.2621,-6.2822,-6.3148,-6.3473,-6.3958,-1.6185,-1.5934,-1.5934,-1.5852,-1.573,-1.5839,-1.5893,-1.5893,0.0,0.0,0.0,-1.5893,-1.5893,-1.5893,-1.5893,-1.5961,-1.6069,-1.6933,-1.7071,-1.6489,-1.721,-1.7202,-1.6496,-1.622,-1.6083,-1.6083,-1.6083,-1.6083,-1.6083,-1.6083,-1.6083,-1.6309,-1.7596,-1.8694,-2.0023,-2.3591,-2.594,-2.6438,-2.8049,-2.8996,-2.8963,-2.9179,-2.92,-2.9017,-2.9243,-2.8996,-2.8242,-2.8307,-2.8145,-2.7925,-2.7661,-2.7947,-2.8322,-2.7961,-2.7625,-2.757,-2.7044,-2.661,-2.6724,-2.6641,-2.6636,-2.7063,-2.7449,-2.7848,-2.8186,-2.8053,-2.8186,-2.8717,-2.8717,-2.8801,-2.9055,-2.9272,-2.9873,-3.114,-3.2654,-3.4055,-3.5271,-3.6668,-3.756,-3.7655,-3.7607,-3.7607,-3.747,-3.7671,-3.7671,-3.7734,-3.8052,-3.881,-3.9558,-4.0834,-4.2277,-4.4388,-4.6006,-4.7591,-4.95,-5.1343,-5.332,-5.4102,-5.4878,-5.522,-5.5159,-5.6709,-5.8236,-5.8724,-6.0792,-6.2281,-6.2634,-6.2772,-6.2822,-6.2822,-6.2822,-6.2985,-6.3473,-6.372,-6.4126,-1.6395,-1.6246,-1.6246,-1.6157,-1.6022,-1.6042,-1.6049,-1.6049,-1.6049,-1.6049,-1.6049,-1.6049,-1.6049,-1.6049,-1.6049,-1.6062,-1.6083,-1.6651,-1.6637,-1.6247,-1.6665,-1.6658,-1.6254,-1.6069,-1.6083,-1.6083,-1.6083,-1.6083,-1.6083,-1.6083,-1.6083,-1.6323,-1.7589,-1.9481,-2.2001,-2.372,-2.5347,-2.6873,-2.8049,-2.8662,-2.8479,-2.8683,-2.8791,-2.877,-2.8996,-2.9082,-2.8931,-2.8565,-2.8447,-2.8608,-2.8005,-2.7833,-2.7995,-2.7618,-2.7339,-2.7046,-2.6761,-2.6621,-2.693,-2.7059,-2.7665,-2.8632,-2.8753,-2.8632,-2.8246,-2.8391,-2.8729,-2.9224,-2.9103,-2.9067,-2.9308,-2.9405,-2.991,-3.1166,-3.2654,-3.4055,-3.5286,-3.6513,-3.7417,-3.7687,-3.7385,-3.7369,-3.7655,-3.7687,-3.7671,-3.7766,-3.8366,-3.9763,-4.2209,-4.2482,-4.3435,-4.5852,-4.6948,-4.8614,-5.1369,-5.2722,-5.3692,-5.4915,-5.5296,-5.5308,-5.474,-5.6058,-5.7424,-5.8577,-6.0123,-6.1457,-6.2495,-6.2822,-6.2822,-6.2822,-6.2822,-6.3011,-6.3473,-6.36,-6.3719,-1.6558,-1.6429,-1.6422,-1.6381,-1.632,-1.632,-1.632,-1.632,-1.632,-1.6225,-1.6083,-1.6083,-1.6083,-1.6083,-1.6083,-1.6083,-1.6083,-1.6672,-1.6672,-1.6083,-1.6672,-1.6722,-1.6212,-1.6286,-1.632,-1.6327,-1.6402,-1.6442,-1.6435,-1.6361,-1.6361,-1.6456,-1.7982,-2.0062,-2.2715,-2.3837,-2.5128,-2.6792,-2.8143,-2.8946,-2.8942,-2.9039,-2.9028,-2.891,-2.8899,-2.8813,-2.8694,-2.8479,-2.8425,-2.8576,-2.8231,-2.8134,-2.8102,-2.793,-2.7521,-2.7155,-2.6786,-2.6695,-2.7112,-2.7815,-2.8224,-2.8982,-2.9006,-2.9043,-2.9079,-2.8922,-2.9115,-2.9755,-2.9598,-2.955,-2.9815,-2.9839,-2.987,-3.0228,-3.2452,-3.4112,-3.4638,-3.6666,-3.8052,-3.8163,-3.7925,-3.7782,-3.7941,-3.7782,-3.7671,-3.7734,-3.882,-4.1013,-4.3814,-4.4507,-4.53,-4.761,-4.8756,-5.0269,-5.2763,-5.3882,-5.4705,-5.5613,-5.5978,-5.5723,-5.5136,-5.604,-5.7307,-5.8453,-5.9763,-6.1291,-6.2495,-6.2822,-6.2822,-6.2822,-6.2985,-6.3311,-6.372,-6.4062,-6.4528,-1.6707,-1.6571,-1.6571,-1.6551,-1.6524,-1.6517,-1.6517,-1.6517,-1.6517,-1.6395,-1.6198,-1.6178,-1.6144,-1.6083,-1.6117,-1.6117,-1.6083,-1.6474,-1.6474,-1.6083,-1.6508,-1.6592,-1.632,-1.6483,-1.6571,-1.6592,-1.6727,-1.6802,-1.6788,-1.668,-1.6907,-1.728,-1.839,-2.0166,-2.2639,-2.3672,-2.4889,-2.6543,-2.7926,-2.888,-2.9276,-2.9254,-2.9168,-2.8996,-2.8748,-2.8565,-2.8447,-2.8393,-2.8414,-2.8511,-2.8468,-2.8436,-2.8425,-2.822,-2.7876,-2.7402,-2.6928,-2.689,-2.7464,-2.8362,-2.8946,-2.926,-2.9224,-2.9393,-2.9779,-2.9465,-2.9465,-3.0069,-3.0008,-2.9972,-3.0141,-3.0129,-3.0149,-3.0144,-3.2563,-3.4393,-3.4588,-3.6997,-3.8688,-3.8656,-3.8402,-3.8179,-3.8147,-3.7893,-3.7951,-3.8715,-4.0291,-4.2432,-4.4535,-4.6223,-4.7531,-4.8741,-5.0166,-5.1347,-5.2869,-5.4129,-5.5322,-5.5956,-5.6356,-5.605,-5.553,-5.6154,-5.7474,-5.8515,-5.9497,-6.0959,-6.2306,-6.2822,-6.2822,-6.2985,-6.3311,-6.3584,-6.4023,-6.4663,-6.535,-1.687,-1.6741,-1.6727,-1.6646,-1.6537,-1.653,-1.653,-1.653,-1.6524,-1.651,-1.6476,-1.6476,-1.6334,-1.6123,-1.6232,-1.6218,-1.6103,-1.6083,-1.609,-1.611,-1.6225,-1.6293,-1.6354,-1.6605,-1.6727,-1.6754,-1.6897,-1.6978,-1.6971,-1.6951,-1.7433,-1.8638,-1.9036,-2.0077,-2.2016,-2.3022,-2.4523,-2.6045,-2.7185,-2.8119,-2.8802,-2.877,-2.8759,-2.8737,-2.8522,-2.849,-2.863,-2.8468,-2.8565,-2.8942,-2.878,-2.8673,-2.864,-2.8447,-2.8113,-2.7639,-2.7176,-2.7196,-2.8129,-2.8883,-2.9538,-3.002,-2.9827,-2.9827,-3.0117,-2.9888,-2.9839,-3.0141,-3.0189,-3.0177,-3.0202,-3.0008,-3.0252,-3.1336,-3.3124,-3.4653,-3.5794,-3.7516,-3.8688,-3.8688,-3.8481,-3.8211,-3.8243,-3.8159,-3.8699,-4.0104,-4.219,-4.4142,-4.5906,-4.7531,-4.8478,-4.911,-5.0146,-5.1492,-5.2786,-5.4061,-5.5001,-5.5912,-5.6159,-5.605,-5.599,-5.5907,-5.6398,-5.8982,-5.9247,-6.0195,-6.2051,-6.2822,-6.2985,-6.3311,-6.3448,-6.3644,-6.3929,-6.4836,-6.5474,-1.6944,-1.6883,-1.689,-1.6849,-1.6795,-1.6788,-1.6788,-1.6795,-1.6795,-1.6741,-1.6673,-1.6754,-1.6625,-1.6354,-1.6408,-1.6402,-1.6341,-1.6341,-1.655,-1.6752,-1.6611,-1.6687,-1.7002,-1.7078,-1.7012,-1.7032,-1.7256,-1.7324,-1.7249,-1.7236,-1.7953,-1.917,-1.9252,-2.0233,-2.2151,-2.2953,-2.4138,-2.5899,-2.6854,-2.787,-2.8732,-2.906,-2.906,-2.891,-2.8694,-2.8533,-2.8511,-2.8533,-2.8597,-2.8662,-2.8823,-2.8791,-2.8522,-2.8543,-2.835,-2.7876,-2.7906,-2.7795,-2.8004,-2.9001,-2.9731,-2.996,-2.9864,-2.9912,-3.0177,-2.996,-2.9912,-3.0153,-3.0214,-3.0214,-3.0202,-3.0105,-3.0185,-3.1039,-3.2986,-3.4913,-3.5327,-3.7638,-3.9323,-3.9307,-3.9021,-3.8799,-3.8941,-3.925,-3.9901,-4.1306,-4.3297,-4.5556,-4.6504,-4.7903,-4.9032,-4.9787,-5.0661,-5.1678,-5.2803,-5.4187,-5.5137,-5.5586,-5.6159,-5.6422,-5.5854,-5.702,-5.8073,-5.9692,-6.0015,-6.0918,-6.302,-6.3023,-6.2985,-6.3473,-6.4094,-6.442,-6.5081,-6.5851,-6.6411,-1.7039,-1.7032,-1.6998,-1.6958,-1.6924,-1.6965,-1.6978,-1.6978,-1.6978,-1.6917,-1.6829,-1.6931,-1.6863,-1.6659,-1.6605,-1.6564,-1.6524,-1.6517,-1.6932,-1.7355,-1.6769,-1.6845,-1.7597,-1.7264,-1.7216,-1.7283,-1.7683,-1.7758,-1.7696,-1.748,-1.8206,-1.9206,-1.9446,-2.0381,-2.2025,-2.269,-2.3792,-2.5346,-2.6405,-2.7505,-2.8618,-2.9297,-2.9308,-2.9082,-2.891,-2.8694,-2.8468,-2.8683,-2.8727,-2.8576,-2.8899,-2.892,-2.8597,-2.8651,-2.85,-2.8016,-2.8376,-2.846,-2.8141,-2.9179,-2.9827,-2.99,-2.9912,-2.9996,-3.0129,-3.0033,-3.0008,-3.0177,-3.0214,-3.0214,-3.0214,-3.0153,-3.0234,-3.0714,-3.3213,-3.497,-3.5462,-3.8035,-3.9736,-3.9736,-3.9371,-3.9132,-3.9148,-4.0059,-4.1102,-4.1883,-4.4227,-4.6502,-4.7231,-4.8459,-4.9564,-5.0297,-5.1388,-5.2257,-5.273,-5.408,-5.502,-5.5526,-5.605,-5.6334,-5.6012,-5.7715,-5.9426,-6.0113,-6.1154,-6.1956,-6.3169,-6.3199,-6.2985,-6.361,-6.4338,-6.5083,-6.5855,-6.6495,-6.7307,-1.7182,-1.7161,-1.7032,-1.689,-1.6775,-1.691,-1.6971,-1.6965,-1.6978,-1.6971,-1.6958,-1.6971,-1.6971,-1.6931,-1.6788,-1.6659,-1.6537,-1.6524,-1.6735,-1.7376,-1.6872,-1.6941,-1.759,-1.7264,-1.7256,-1.7545,-1.8051,-1.8359,-1.8466,-1.7827,-1.8368,-1.9595,-1.9588,-2.027,-2.1384,-2.248,-2.3346,-2.4247,-2.5967,-2.7505,-2.8175,-2.9074,-2.9308,-2.9114,-2.9071,-2.8942,-2.8748,-2.8931,-2.905,-2.9039,-2.9082,-2.9071,-2.9017,-2.8823,-2.849,-2.8027,-2.8387,-2.8689,-2.8769,-2.9462,-2.9912,-3.0129,-3.0153,-3.0189,-3.0202,-3.0177,-3.0177,-3.0214,-3.0214,-3.0214,-3.0392,-3.0234,-3.0764,-3.2093,-3.3715,-3.5505,-3.71,-3.8518,-3.9752,-3.972,-3.9482,-3.9244,-3.8622,-3.9813,-4.1645,-4.305,-4.48,-4.6687,-4.8342,-4.9564,-5.0114,-5.0843,-5.191,-5.3187,-5.323,-5.4072,-5.4802,-5.5286,-5.5723,-5.6429,-5.71,-5.805,-5.9449,-6.0663,-6.1542,-6.2465,-6.3294,-6.3489,-6.3437,-6.3856,-6.4531,-6.5368,-6.6379,-6.6329,-6.715,-1.7134,-1.7046,-1.6897,-1.6802,-1.6761,-1.6809,-1.6836,-1.6842,-1.6937,-1.6978,-1.6978,-1.6978,-1.6978,-1.6971,-1.6815,-1.672,-1.6659,-1.6564,-1.6776,-1.7476,-1.6831,-1.7064,-1.8011,-1.7384,-1.744,-1.7875,-1.8131,-1.8467,-1.8623,-1.8323,-1.8837,-1.973,-1.9867,-2.0396,-2.136,-2.2472,-2.3346,-2.4247,-2.5967,-2.7285,-2.8175,-2.9074,-2.9373,-2.9297,-2.9297,-2.9179,-2.8953,-2.9168,-2.9233,-2.9093,-2.9351,-2.9383,-2.9093,-2.8834,-2.8565,-2.8446,-2.8756,-2.902,-2.8929,-2.9652,-3.0105,-3.0189,-3.0214,-3.0214,-3.0214,-3.0214,-3.0214,-3.0214,-3.0214,-3.0619,-3.1592,-3.1692,-3.1867,-3.2747,-3.4885,-3.6633,-3.7523,-3.876,-3.9768,-3.9752,-3.9625,-3.9676,-4.0076,-4.1612,-4.3227,-4.4526,-4.6272,-4.7974,-4.9262,-5.0114,-5.0661,-5.191,-5.265,-5.3366,-5.4099,-5.4298,-5.4783,-5.5067,-5.564,-5.6663,-5.74,-5.9317,-6.0916,-6.2041,-6.2713,-6.3122,-6.3977,-6.3817,-6.3788,-6.4068,-6.4715,-6.5775,-6.6781,-6.6954,-6.7948,-1.7121,-1.6924,-1.6897,-1.6836,-1.6761,-1.6809,-1.6822,-1.6836,-1.6937,-1.6978,-1.6971,-1.6931,-1.6904,-1.687,-1.67,-1.6605,-1.6605,-1.6544,-1.6988,-1.7689,-1.7186,-1.7426,-1.8189,-1.764,-1.7661,-1.8106,-1.8332,-1.8412,-1.8745,-1.8461,-1.9031,-1.9999,-1.9954,-2.0342,-2.136,-2.248,-2.3346,-2.4038,-2.5899,-2.7203,-2.7922,-2.8777,-2.9394,-2.9513,-2.9534,-2.9426,-2.9211,-2.9405,-2.9469,-2.9362,-2.9534,-2.948,-2.9103,-2.892,-2.8727,-2.889,-2.9002,-2.9249,-2.9273,-2.9794,-3.0214,-3.0214,-3.0214,-3.0214,-3.0214,-3.0214,-3.0214,-3.0214,-3.0809,-3.1605,-3.2585,-3.3574,-3.4173,-3.4372,-3.6173,-3.7568,-3.8173,-3.9167,-3.9768,-3.9752,-3.9625,-4.0044,-4.0895,-4.2359,-4.3808,-4.5148,-4.6906,-4.8527,-4.9793,-5.0601,-5.1125,-5.2681,-5.3302,-5.39,-5.4541,-5.4805,-5.4936,-5.5198,-5.5592,-5.6685,-5.7918,-6.024,-6.2066,-6.3057,-6.389,-6.4249,-6.441,-6.422,-6.4188,-6.4145,-6.5162,-6.6362,-6.7173,-6.7909,-6.8707,-1.7154,-1.6836,-1.706,-1.6985,-1.6781,-1.6883,-1.6965,-1.6965,-1.6971,-1.6978,-1.6965,-1.6829,-1.6768,-1.6693,-1.6476,-1.6334,-1.6563,-1.6639,-1.7101,-1.7945,-1.7516,-1.7595,-1.835,-1.8026,-1.7916,-1.7927,-1.8255,-1.8609,-1.9228,-1.8529,-1.8768,-1.9731,-1.97,-2.01,-2.1376,-2.2472,-2.3128,-2.3583,-2.5573,-2.6883,-2.7448,-2.8449,-2.934,-2.9696,-2.9739,-2.9642,-2.9426,-2.9631,-2.9728,-2.9706,-2.9556,-2.9329,-2.9168,-2.9071,-2.9173,-2.9533,-2.9337,-2.9584,-2.9897,-3.0105,-3.025,-3.0214,-3.0214,-3.0214,-3.0214,-3.0214,-3.0214,-3.0416,-3.1605,-3.2585,-3.3187,-3.5182,-3.6977,-3.7371,-3.7356,-3.8173,-3.9362,-3.9768,-3.9768,-3.972,-3.953,-3.9675,-4.0795,-4.2099,-4.3538,-4.533,-4.6876,-4.8373,-4.9693,-5.092,-5.1861,-5.2783,-5.3641,-5.4454,-5.4827,-5.5024,-5.5198,-5.5439,-5.5875,-5.661,-5.7873,-5.9655,-6.1521,-6.2737,-6.4112,-6.4487,-6.4082,-6.394,-6.4112,-6.4523,-6.5656,-6.6612,-6.7211,-6.7941,-6.8843,-1.7121,-1.6917,-1.689,-1.6836,-1.6754,-1.6802,-1.6876,-1.6978,-1.6978,-1.6978,-1.6951,-1.6815,-1.69,-1.6981,-1.6996,-1.7113,-1.7314,-1.7264,-1.7479,-1.7552,-1.7479,-1.7926,-1.845,-1.8225,-1.8104,-1.8648,-1.8839,-1.9171,-1.9306,-1.886,-1.9099,-2.0054,-1.9945,-2.0442,-2.1368,-2.2472,-2.3128,-2.3364,-2.568,-2.6994,-2.7499,-2.8554,-2.9459,-2.9728,-2.976,-2.9728,-2.9663,-2.9728,-2.976,-2.976,-2.9696,-2.962,-2.9513,-2.9254,-2.927,-2.9777,-2.9574,-2.971,-3.0153,-3.0272,-3.0395,-3.0262,-3.0214,-3.0214,-3.0214,-3.0214,-3.0214,-3.0416,-3.1592,-3.2973,-3.4372,-3.6173,-3.7371,-3.7371,-3.8369,-3.9167,-3.9573,-3.9768,-3.9768,-3.9752,-3.9657,-4.0476,-4.1885,-4.2962,-4.414,-4.6457,-4.7738,-4.8971,-5.027,-5.137,-5.2542,-5.3472,-5.4171,-5.4674,-5.4893,-5.5176,-5.5482,-5.5679,-5.6072,-5.6538,-5.7623,-5.9426,-6.1109,-6.2823,-6.4012,-6.4454,-6.3855,-6.3839,-6.4196,-6.4868,-6.5841,-6.6487,-6.7129,-6.7944,-6.8924,-1.7114,-1.6978,-1.6931,-1.6883,-1.6836,-1.6836,-1.689,-1.6971,-1.6978,-1.6978,-1.6937,-1.6754,-1.6817,-1.6905,-1.6919,-1.7228,-1.7614,-1.7908,-1.7923,-1.7614,-1.7599,-1.8051,-1.8389,-1.821,-1.8374,-1.8954,-1.9171,-1.9354,-1.9123,-1.8963,-1.9244,-2.0006,-1.9921,-2.0225,-2.136,-2.248,-2.3137,-2.381,-2.5661,-2.7163,-2.7587,-2.8628,-2.9265,-2.948,-2.9588,-2.9631,-2.9642,-2.9717,-2.976,-2.976,-2.976,-2.976,-2.9728,-2.9553,-2.9734,-3.003,-3.0162,-3.0259,-3.0503,-3.0598,-3.0552,-3.0383,-3.0274,-3.0214,-3.0214,-3.0214,-3.0416,-3.1201,-3.2585,-3.4173,-3.5777,-3.7371,-3.8157,-3.8353,-3.9167,-3.9768,-3.9768,-3.9768,-3.9768,-3.9931,-4.0207,-4.1347,-4.2463,-4.3682,-4.4985,-4.7199,-4.7978,-4.9029,-5.0463,-5.1277,-5.2379,-5.3364,-5.3953,-5.4499,-5.4936,-5.5308,-5.5701,-5.5985,-5.6247,-5.6582,-5.7282,-5.9559,-6.1546,-6.3227,-6.4468,-6.4254,-6.3893,-6.4001,-6.428,-6.5134,-6.5815,-6.6298,-6.6854,-6.8087,-6.912,-1.71,-1.7005,-1.7121,-1.708,-1.6971,-1.6965,-1.6978,-1.6998,-1.6978,-1.6978,-1.6917,-1.6673,-1.6517,-1.6646,-1.6813,-1.7091,-1.7268,-1.8069,-1.8457,-1.8328,-1.8236,-1.8,-1.8277,-1.8285,-1.8575,-1.9171,-1.9289,-1.8972,-1.8769,-1.8443,-1.8775,-1.9719,-1.9616,-2.0108,-2.1562,-2.2699,-2.3574,-2.4228,-2.5771,-2.6989,-2.7851,-2.83,-2.8888,-2.9146,-2.9351,-2.9469,-2.9534,-2.9674,-2.976,-2.976,-2.976,-2.9749,-2.9889,-2.9754,-3.0164,-3.0548,-3.0546,-3.0858,-3.1078,-3.0986,-3.066,-3.0564,-3.0395,-3.0226,-3.0619,-3.0607,-3.1201,-3.2585,-3.4173,-3.5762,-3.7174,-3.8565,-3.9557,-3.9768,-3.9768,-3.9768,-3.9768,-3.9768,-3.9768,-3.9899,-4.0799,-4.1936,-4.2865,-4.407,-4.58,-4.7063,-4.7522,-4.8891,-5.0203,-5.1235,-5.1815,-5.2841,-5.3844,-5.4499,-5.498,-5.5548,-5.5875,-5.581,-5.6138,-5.656,-5.7171,-5.9421,-6.1645,-6.3325,-6.4304,-6.4133,-6.4006,-6.3984,-6.4106,-6.4533,-6.518,-6.5964,-6.6835,-6.789,-6.9062,-1.7012,-1.6985,-1.7019,-1.7012,-1.6978,-1.6978,-1.7039,-1.7114,-1.7019,-1.6978,-1.691,-1.6659,-1.6666,-1.6947,-1.6964,-1.7261,-1.7863,-1.8259,-1.8655,-1.8908,-1.8374,-1.8225,-1.8396,-1.859,-1.8544,-1.8836,-1.9147,-1.902,-1.8293,-1.8321,-1.8998,-1.9734,-2.0093,-2.077,-2.2008,-2.3137,-2.401,-2.4664,-2.5969,-2.6959,-2.7789,-2.8476,-2.891,-2.9297,-2.9373,-2.9502,-2.9652,-2.9728,-2.976,-2.976,-2.976,-2.9674,-2.9513,-2.9666,-3.0075,-3.0528,-3.065,-3.0941,-3.1198,-3.1252,-3.101,-3.0648,-3.0744,-3.1019,-3.2008,-3.1995,-3.2786,-3.4173,-3.5762,-3.6963,-3.7568,-3.8956,-3.9768,-3.9768,-3.9768,-3.9768,-3.9768,-3.9768,-3.9768,-3.9931,-4.0979,-4.2107,-4.3191,-4.4727,-4.6328,-4.7334,-4.8235,-4.9132,-5.0607,-5.1287,-5.1821,-5.3038,-5.4084,-5.4587,-5.5111,-5.5723,-5.5941,-5.5679,-5.5897,-5.6494,-5.74,-5.8991,-6.1341,-6.3409,-6.3425,-6.3362,-6.3567,-6.3689,-6.3958,-6.4143,-6.4633,-6.5306,-6.6148,-6.7268,-6.8556,-1.6978,-1.6978,-1.6978,-1.6978,-1.6978,-1.6978,-1.7032,-1.708,-1.7019,-1.6978,-1.691,-1.6659,-1.668,-1.6779,-1.717,-1.7466,-1.8061,-1.8655,-1.89,-1.8828,-1.8104,-1.8157,-1.827,-1.827,-1.8457,-1.8722,-1.8691,-1.8831,-1.8875,-1.9107,-1.9998,-2.1339,-2.169,-2.1925,-2.2244,-2.401,-2.4664,-2.51,-2.6403,-2.7786,-2.8771,-2.8999,-2.9109,-2.9426,-2.9579,-2.9628,-2.9706,-2.9997,-2.9997,-2.9749,-2.9674,-2.9556,-2.9405,-2.9966,-3.017,-3.0436,-3.0866,-3.1296,-3.1578,-3.1469,-3.1203,-3.1048,-3.1096,-3.1921,-3.254,-3.324,-3.4186,-3.5805,-3.6992,-3.7568,-3.8369,-3.9362,-3.9768,-3.9768,-3.9768,-3.9768,-3.9768,-3.9768,-3.9768,-4.0303,-4.149,-4.2726,-4.3015,-4.5261,-4.6896,-4.7573,-4.8095,-4.9492,-5.0874,-5.1329,-5.2145,-5.3558,-5.4325,-5.474,-5.5264,-5.5854,-5.5941,-5.5679,-5.5775,-5.6258,-5.7579,-5.8946,-6.0548,-6.2257,-6.2596,-6.2898,-6.3038,-6.3385,-6.3699,-6.4039,-6.4321,-6.5021,-6.6011,-6.6927,-6.8193,-1.6978,-1.6978,-1.6978,-1.6978,-1.6978,-1.6978,-1.6985,-1.6985,-1.6985,-1.6978,-1.691,-1.6659,-1.6517,-1.6503,-1.7206,-1.7672,-1.787,-1.8655,-1.8789,-1.8575,-1.8004,-1.7667,-1.8149,-1.7814,-1.8157,-1.8606,-1.8285,-1.9057,-1.9696,-2.0426,-2.172,-2.2805,-2.3584,-2.3529,-2.3574,-2.4882,-2.5535,-2.5959,-2.727,-2.8803,-2.9698,-2.9913,-2.9765,-2.9683,-2.9877,-3.0031,-3.0114,-3.0224,-3.0439,-2.9954,-2.9523,-2.9405,-2.9531,-2.9996,-3.023,-3.0368,-3.1057,-3.1581,-3.1771,-3.1566,-3.13,-3.1218,-3.2199,-3.3002,-3.3237,-3.4468,-3.5989,-3.7431,-3.7613,-3.8384,-3.9362,-3.9768,-3.9768,-3.9768,-3.9963,-3.9963,-3.9768,-3.9768,-3.9768,-3.9931,-4.2104,-4.3216,-4.3844,-4.5386,-4.7656,-4.7734,-4.8393,-4.9753,-5.0977,-5.1559,-5.296,-5.4758,-5.5002,-5.4914,-5.546,-5.6007,-5.5875,-5.5635,-5.5667,-5.6176,-5.7849,-5.9129,-6.0387,-6.1351,-6.2054,-6.2338,-6.2527,-6.2973,-6.3441,-6.3648,-6.3875,-6.4921,-6.6166,-6.7153,-6.8307,-1.6978,-1.6978,-1.6978,-1.6978,-1.6978,-1.6978,-1.6978,-1.6978,-1.6978,-1.6978,-1.691,-1.6659,-1.6537,-1.651,-1.7042,-1.7268,-1.7702,-1.8313,-1.8413,-1.8112,-1.7675,-1.7682,-1.7982,-1.8004,-1.8164,-1.8691,-1.9807,-2.0289,-2.0328,-2.1785,-2.2857,-2.3823,-2.4693,-2.4863,-2.51,-2.5752,-2.6847,-2.7486,-2.8145,-2.9007,-3.0082,-3.0308,-3.0174,-3.0162,-3.0164,-3.0343,-3.0384,-3.0687,-3.0587,-3.0197,-3.0086,-2.9688,-2.9173,-2.9437,-2.9934,-3.0219,-3.0772,-3.1368,-3.1581,-3.1722,-3.1505,-3.1279,-3.2557,-3.3567,-3.4482,-3.6018,-3.7568,-3.8791,-3.9378,-3.9362,-3.9768,-3.9768,-3.9963,-3.9947,-4.053,-4.0513,-3.9947,-3.9768,-3.9963,-4.0239,-4.1896,-4.3608,-4.3218,-4.6032,-4.7509,-4.7754,-4.8771,-5.0176,-5.1059,-5.1768,-5.3344,-5.5107,-5.5111,-5.4958,-5.5351,-5.5613,-5.522,-5.5379,-5.5488,-5.5978,-5.7461,-5.8974,-6.0111,-6.0912,-6.1717,-6.1936,-6.2199,-6.2664,-6.3126,-6.3328,-6.3607,-6.4897,-6.6174,-6.724,-6.8475,-1.6978,-1.6978,-1.6978,-1.6978,-1.6978,-1.6978,-1.6978,-1.6978,-1.6978,-1.6978,-1.6931,-1.6727,-1.6632,-1.6605,-1.694,-1.7221,-1.7508,-1.7776,-1.7894,-1.7851,-1.7533,-1.7725,-1.7858,-1.8186,-1.8353,-1.9167,-1.9873,-2.0744,-2.2056,-2.3354,-2.4615,-2.5496,-2.6233,-2.6166,-2.5959,-2.6837,-2.7486,-2.7918,-2.8792,-2.9653,-3.0726,-3.0951,-3.072,-3.0573,-3.0242,-3.0299,-3.0643,-3.0913,-3.07,-3.0466,-3.0354,-2.9977,-2.8967,-2.9043,-2.9561,-3.0117,-3.05,-3.1154,-3.1593,-3.1783,-3.1626,-3.1203,-3.3124,-3.4314,-3.5721,-3.713,-3.876,-3.9557,-3.9768,-3.9768,-3.9768,-3.9768,-3.9963,-4.0513,-4.0901,-4.1078,-4.0707,-4.0513,-4.0255,-4.0303,-4.1985,-4.2994,-4.4358,-4.6511,-4.7923,-4.8511,-4.9372,-5.056,-5.1667,-5.2482,-5.363,-5.4732,-5.4758,-5.4958,-5.5286,-5.5155,-5.4434,-5.4652,-5.5139,-5.58,-5.6841,-5.8444,-5.9732,-6.0622,-6.1502,-6.166,-6.1812,-6.2296,-6.2961,-6.3343,-6.3947,-6.5124,-6.6436,-6.8145,-6.9222,-1.6978,-1.6978,-1.6978,-1.6978,-1.6978,-1.6978,-1.6978,-1.6978,-1.6978,-1.6978,-1.6951,-1.6815,-1.6727,-1.6673,-1.7031,-1.7198,-1.7509,-1.7469,-1.7526,-1.754,-1.7397,-1.7383,-1.754,-1.7895,-1.886,-2.0468,-2.0652,-2.1691,-2.3757,-2.5291,-2.6174,-2.7578,-2.8134,-2.7465,-2.6826,-2.7486,-2.836,-2.835,-2.9438,-3.0523,-3.138,-3.1605,-3.1414,-3.0941,-3.0407,-3.0443,-3.0801,-3.133,-3.1137,-3.022,-3.0605,-3.0008,-2.9109,-2.8912,-2.9426,-3.0082,-3.0511,-3.094,-3.1593,-3.1783,-3.1662,-3.1571,-3.3602,-3.518,-3.5877,-3.7523,-3.8956,-3.9557,-3.9768,-3.9768,-3.9768,-3.9768,-4.0336,-4.0901,-4.1271,-4.1271,-4.1271,-4.1271,-4.0737,-4.0459,-4.197,-4.3209,-4.4856,-4.6801,-4.8066,-4.9372,-5.0055,-5.1025,-5.2152,-5.3272,-5.4202,-5.4667,-5.4914,-5.4565,-5.4805,-5.4543,-5.3844,-5.4223,-5.4693,-5.5878,-5.6909,-5.8949,-6.0555,-6.065,-6.1198,-6.1477,-6.1832,-6.237,-6.2982,-6.3487,-6.4668,-6.5929,-6.7604,-6.9273,-6.9914,-1.6978,-1.6978,-1.6978,-1.6978,-1.6978,-1.6978,-1.6978,-1.6978,-1.6978,-1.6978,-1.6958,-1.6822,-1.6761,-1.668,-1.7045,-1.735,-1.7676,-1.7667,-1.759,-1.7604,-1.7467,-1.7266,-1.7404,-1.7833,-1.9068,-2.1464,-2.1971,-2.2968,-2.4904,-2.6451,-2.7303,-2.7951,-2.822,-2.7918,-2.7918,-2.836,-2.8803,-2.9245,-2.9879,-3.0726,-3.1593,-3.1843,-3.163,-3.1425,-3.0836,-3.0888,-3.124,-3.1556,-3.1126,-3.0231,-3.0616,-2.9918,-2.8967,-2.8598,-2.9222,-2.9868,-3.0297,-3.0726,-3.1593,-3.1807,-3.1541,-3.161,-3.3085,-3.4422,-3.5365,-3.6751,-3.876,-3.9557,-3.9768,-3.9768,-3.9768,-3.9768,-4.0336,-4.0901,-4.1271,-4.1271,-4.1271,-4.1222,-4.1298,-4.1157,-4.2568,-4.4064,-4.5811,-4.7625,-4.9312,-5.0597,-5.1363,-5.2152,-5.2998,-5.3916,-5.4693,-5.4936,-5.4958,-5.4521,-5.4194,-5.3757,-5.3383,-5.394,-5.4728,-5.6277,-5.7764,-6.0111,-6.1377,-6.1274,-6.1324,-6.1603,-6.201,-6.2699,-6.3425,-6.417,-6.5554,-6.6989,-6.8826,-7.0286,-7.0478,-1.6978,-1.6978,-1.6978,-1.6978,-1.6978,-1.6978,-1.6978,-1.6978,-1.6978,-1.6978,-1.6958,-1.6904,-1.687,-1.6809,-1.6852,-1.7552,-1.8224,-1.7576,-1.769,-1.812,-1.769,-1.7301,-1.7453,-1.7919,-1.9983,-2.1845,-2.3174,-2.4539,-2.6046,-2.7112,-2.7779,-2.8016,-2.8253,-2.836,-2.8576,-2.8576,-2.9245,-2.9902,-3.032,-3.094,-3.1807,-3.1807,-3.1869,-3.1574,-3.153,-3.1321,-3.1476,-3.2029,-3.1339,-3.0497,-3.0605,-2.9885,-2.8945,-2.8792,-2.9222,-2.9868,-3.0297,-3.094,-3.1593,-3.1795,-3.1614,-3.1474,-3.3136,-3.4694,-3.572,-3.7293,-3.8776,-3.9557,-3.9768,-3.9768,-3.9768,-3.9768,-4.0336,-4.1094,-4.1271,-4.1271,-4.1238,-4.1106,-4.1706,-4.2502,-4.4008,-4.5575,-4.6877,-4.8709,-5.0617,-5.1881,-5.2703,-5.3251,-5.3801,-5.4315,-5.4805,-5.4849,-5.4805,-5.4391,-5.393,-5.362,-5.3307,-5.3661,-5.5042,-5.659,-5.8202,-6.0502,-6.1172,-6.1195,-6.1473,-6.2062,-6.2318,-6.3034,-6.3873,-6.4853,-6.6304,-6.782,-6.9875,-7.1209,-7.1331,-1.6978,-1.6978,-1.6978,-1.6978,-1.6978,-1.6978,-1.6978,-1.6978,-1.6978,-1.6978,-1.6978,-1.6971,-1.6971,-1.6944,-1.7065,-1.7597,-1.903,-1.7934,-1.841,-1.9214,-1.8892,-1.8277,-1.7941,-1.9137,-2.0744,-2.2158,-2.3369,-2.54,-2.6932,-2.7607,-2.7833,-2.8027,-2.8242,-2.8576,-2.8576,-2.8996,-2.9664,-3.0105,-3.0737,-3.1154,-3.1593,-3.1831,-3.1845,-3.1875,-3.1727,-3.174,-3.1971,-3.2254,-3.1539,-3.0763,-3.0339,-3.0159,-2.889,-2.8996,-2.9641,-3.0082,-3.0714,-3.1154,-3.1593,-3.1807,-3.165,-3.1461,-3.377,-3.4925,-3.5991,-3.7688,-3.9768,-3.9768,-3.9768,-3.9768,-3.9768,-3.9947,-4.0724,-4.1271,-4.1464,-4.1431,-4.1891,-4.2155,-4.2812,-4.3927,-4.5439,-4.7004,-4.8567,-5.0175,-5.2082,-5.286,-5.3701,-5.3765,-5.4272,-5.4385,-5.4718,-5.4761,-5.4741,-5.4084,-5.373,-5.3631,-5.3335,-5.3392,-5.5463,-5.7532,-5.8896,-6.0553,-6.0993,-6.1884,-6.2553,-6.3119,-6.3271,-6.3521,-6.4897,-6.5947,-6.7211,-6.8966,-7.1371,-7.1951,-7.1837,-1.6978,-1.6978,-1.6978,-1.6978,-1.6978,-1.6978,-1.6978,-1.6978,-1.7188,-1.6978,-1.6978,-1.6978,-1.7188,-1.6978,-1.6965,-1.7905,-1.8907,-1.9176,-1.9469,-2.0479,-2.0555,-1.9943,-1.8805,-1.9298,-2.1217,-2.2834,-2.3444,-2.4764,-2.6808,-2.7779,-2.7973,-2.808,-2.8242,-2.8576,-2.8781,-2.8996,-2.9856,-3.0523,-3.094,-3.1142,-3.1593,-3.1807,-3.2097,-3.2229,-3.197,-3.195,-3.216,-3.2443,-3.1751,-3.0253,-3.0605,-2.9918,-2.889,-2.9438,-2.9868,-3.0297,-3.0726,-3.1154,-3.1593,-3.1807,-3.1578,-3.1425,-3.2865,-3.3975,-3.5849,-3.7855,-3.9768,-3.9768,-3.9768,-3.9768,-3.9947,-4.053,-4.1481,-4.185,-4.2025,-4.2638,-4.3243,-4.3554,-4.4186,-4.563,-4.7488,-4.9025,-5.0454,-5.2019,-5.3366,-5.3922,-5.4497,-5.4562,-5.4628,-5.4805,-5.4829,-5.4873,-5.4675,-5.3994,-5.3875,-5.3749,-5.3873,-5.3709,-5.595,-5.8362,-5.9566,-6.099,-6.2096,-6.294,-6.356,-6.3917,-6.3937,-6.4541,-6.5951,-6.7285,-6.867,-7.0732,-7.3052,-7.2939,-7.1996,-1.6978,-1.6978,-1.6978,-1.6978,-1.6978,-1.6978,-1.6978,-1.7188,-1.802,-1.7811,-1.7398,-1.802,-1.8063,-1.7277,-1.7026,-1.8454,-2.032,-1.9895,-2.0712,-2.195,-2.2078,-2.1458,-2.1094,-2.1889,-2.3174,-2.3786,-2.5062,-2.6334,-2.7525,-2.7876,-2.8059,-2.821,-2.8307,-2.8576,-2.8996,-2.8996,-2.963,-3.0274,-3.0928,-3.1593,-3.1807,-3.1843,-3.206,-3.2555,-3.2361,-3.2439,-3.2314,-3.2314,-3.1482,-3.0265,-3.0119,-2.9589,-2.889,-2.9438,-3.0082,-3.0082,-3.094,-3.1593,-3.1807,-3.1807,-3.1493,-3.1561,-3.2595,-3.4205,-3.6148,-3.8157,-3.9768,-3.9768,-3.9768,-3.9768,-3.9947,-4.0707,-4.1288,-4.185,-4.2792,-4.3452,-4.4257,-4.5252,-4.6038,-4.7692,-4.9326,-5.0699,-5.1935,-5.3017,-5.3922,-5.4276,-5.4718,-5.4805,-5.498,-5.5155,-5.5114,-5.5181,-5.463,-5.4096,-5.4016,-5.4097,-5.4705,-5.5206,-5.6995,-5.9059,-6.0211,-6.1453,-6.2634,-6.3349,-6.3607,-6.3963,-6.4319,-6.527,-6.6549,-6.8336,-7.0248,-7.1813,-7.3052,-7.2278,-7.1503,-1.6978,-1.6978,-1.6978,-1.6978,-1.6978,-1.6978,-1.6978,-1.7188,-1.8641,-1.885,-1.8222,-1.8858,-1.852,-1.7346,-1.7271,-1.8716,-2.2004,-2.0795,-2.2184,-2.34,-2.3736,-2.2894,-2.2697,-2.3756,-2.4422,-2.4993,-2.6011,-2.7092,-2.7717,-2.8091,-2.821,-2.836,-2.835,-2.8576,-2.8792,-2.8996,-2.963,-3.0477,-3.1142,-3.1581,-3.1807,-3.1807,-3.2121,-3.2435,-3.264,-3.2588,-3.249,-3.2232,-3.139,-3.0407,-2.9766,-2.9282,-2.9051,-2.9438,-3.0082,-3.0511,-3.1166,-3.1807,-3.1771,-3.1698,-3.1445,-3.1549,-3.2442,-3.4192,-3.6898,-3.8565,-3.9557,-3.9768,-3.9768,-3.9963,-4.0336,-4.1078,-4.2059,-4.281,-4.3729,-4.4264,-4.4966,-4.628,-4.7877,-4.9753,-5.108,-5.2006,-5.3102,-5.4056,-5.4475,-5.4652,-5.474,-5.4827,-5.5002,-5.5176,-5.5357,-5.5313,-5.4951,-5.4521,-5.4761,-5.4857,-5.5412,-5.6581,-5.8385,-5.9583,-6.0603,-6.1788,-6.2988,-6.3396,-6.3752,-6.4319,-6.4905,-6.5975,-6.7024,-6.8864,-7.0444,-7.1506,-7.215,-7.1476,-7.0951,-1.6978,-1.6978,-1.6978,-1.6978,-1.6978,-1.6978,-1.6978,-1.7188,-1.885,-1.9477,-1.9059,-1.9268,-1.8731,-1.7558,-1.7291,-1.8948,-2.2258,-2.1839,-2.3202,-2.4714,-2.555,-2.4809,-2.445,-2.445,-2.5093,-2.5599,-2.6524,-2.7176,-2.7792,-2.822,-2.8307,-2.836,-2.836,-2.8792,-2.8996,-2.9211,-2.9641,-3.0488,-3.0928,-3.1368,-3.1593,-3.1855,-3.2073,-3.2471,-3.2616,-3.2724,-3.299,-3.2313,-3.1705,-3.0457,-3.0058,-2.9683,-2.9471,-2.9868,-3.0297,-3.0726,-3.138,-3.1807,-3.1783,-3.1626,-3.1324,-3.1377,-3.2226,-3.3936,-3.6597,-3.7371,-3.8173,-3.9573,-3.9768,-4.0336,-4.1094,-4.2059,-4.2635,-4.3782,-4.4868,-4.5906,-4.6821,-4.7788,-4.9529,-5.1673,-5.2826,-5.3458,-5.3722,-5.4475,-5.4652,-5.4652,-5.4477,-5.4565,-5.4829,-5.4982,-5.5137,-5.5136,-5.4945,-5.5032,-5.5426,-5.6063,-5.6933,-5.8088,-5.9588,-6.0211,-6.0609,-6.1836,-6.3238,-6.3275,-6.3601,-6.4557,-6.5367,-6.6072,-6.7135,-6.8965,-7.0497,-7.1217,-7.1569,-7.1103,-7.0534,-1.6978,-1.6978,-1.6978,-1.6978,-1.6978,-1.6978,-1.6978,-1.7188,-1.885,-1.9469,-1.9469,-1.9485,-1.879,-1.7634,-1.7305,-1.9001,-2.1915,-2.2091,-2.3794,-2.5348,-2.6285,-2.6082,-2.5726,-2.5861,-2.6503,-2.685,-2.7102,-2.7344,-2.8231,-2.8328,-2.835,-2.836,-2.836,-2.8576,-2.8781,-2.8996,-2.9641,-3.0285,-3.0714,-3.1154,-3.1593,-3.1831,-3.206,-3.2531,-3.2592,-3.2833,-3.3111,-3.2218,-3.1809,-3.1125,-3.0402,-2.9992,-2.9879,-3.0297,-3.0726,-3.0928,-3.1581,-3.1807,-3.1795,-3.1662,-3.1457,-3.139,-3.215,-3.3574,-3.5975,-3.6765,-3.8173,-3.9167,-3.9768,-4.0336,-4.1288,-4.2234,-4.3209,-4.4353,-4.5828,-4.7212,-4.8527,-4.9525,-5.0742,-5.2754,-5.3529,-5.4255,-5.4475,-5.4652,-5.4652,-5.463,-5.4434,-5.4303,-5.439,-5.4829,-5.518,-5.5677,-5.5688,-5.6306,-5.6884,-5.7782,-5.8594,-5.9514,-6.0688,-6.1092,-6.1274,-6.2218,-6.331,-6.3415,-6.3499,-6.4399,-6.5059,-6.5775,-6.7271,-6.93,-7.0162,-7.0431,-7.062,-7.057,-7.0312,-1.6978,-1.6978,-1.6978,-1.6978,-1.6978,-1.6978,-1.7188,-1.7811,-1.9059,-1.9887,-2.0304,-2.0103,-1.9446,-1.833,-1.7339,-1.8616,-2.1044,-2.1882,-2.3531,-2.5073,-2.6275,-2.652,-2.6821,-2.6993,-2.7044,-2.7628,-2.7897,-2.8124,-2.8328,-2.836,-2.836,-2.836,-2.8371,-2.836,-2.8576,-2.8792,-2.9426,-3.0082,-3.0511,-3.1154,-3.1593,-3.1831,-3.1976,-3.2423,-3.2531,-3.264,-3.2612,-3.2249,-3.1633,-3.1181,-3.072,-3.0331,-3.0285,-3.0714,-3.0928,-3.1154,-3.1593,-3.1807,-3.1783,-3.159,-3.1372,-3.106,-3.1284,-3.2838,-3.4571,-3.6173,-3.7174,-3.9557,-3.9768,-4.0336,-4.1481,-4.2426,-4.3713,-4.5101,-4.7009,-4.842,-4.9807,-5.0803,-5.2152,-5.3679,-5.4298,-5.4652,-5.4543,-5.4499,-5.4325,-5.4412,-5.4521,-5.4303,-5.4194,-5.4784,-5.5504,-5.6074,-5.6636,-5.7572,-5.8732,-5.9243,-5.979,-6.006,-6.1016,-6.1865,-6.2448,-6.3133,-6.3452,-6.3553,-6.3741,-6.4343,-6.5004,-6.5681,-6.7607,-6.9861,-6.999,-6.9969,-7.0114,-7.0161,-6.9981,-1.6978,-1.6978,-1.6978,-1.6978,-1.6978,-1.6978,-1.7811,-1.885,-1.9469,-2.0304,-2.1336,-2.1751,-2.1121,-1.9836,-1.8368,-1.9242,-2.0824,-2.1751,-2.2961,-2.4849,-2.5998,-2.6414,-2.6842,-2.7101,-2.7424,-2.765,-2.793,-2.8188,-2.836,-2.836,-2.836,-2.836,-2.836,-2.836,-2.836,-2.836,-2.9007,-2.9868,-3.0082,-3.094,-3.1593,-3.1819,-3.2,-3.2302,-3.2447,-3.2519,-3.2385,-3.2118,-3.171,-3.1198,-3.0842,-3.05,-3.0904,-3.0928,-3.1154,-3.1593,-3.1807,-3.1807,-3.1771,-3.1312,-3.0974,-3.0696,-3.0994,-3.2021,-3.4186,-3.538,-3.6568,-3.9362,-3.9963,-4.0917,-4.1866,-4.307,-4.441,-4.5987,-4.7908,-4.9539,-5.0762,-5.1899,-5.3083,-5.4029,-5.4519,-5.4652,-5.4477,-5.4325,-5.4062,-5.4106,-5.4412,-5.4368,-5.4237,-5.4996,-5.5857,-5.7098,-5.788,-5.9013,-6.0056,-6.0555,-6.0835,-6.1019,-6.1427,-6.2218,-6.2745,-6.316,-6.3298,-6.358,-6.3954,-6.4354,-6.507,-6.5842,-6.7717,-6.942,-6.9292,-6.9337,-6.9515,-6.9741,-6.9692,-1.6978,-1.6978,-1.6978,-1.6978,-1.6978,-1.6978,-1.7398,-1.823,-1.9887,-2.092,-2.092,-2.2374,-2.2798,-2.1678,-2.0919,-2.1046,-2.2633,-2.2958,-2.4167,-2.5457,-2.6371,-2.6574,-2.7025,-2.7391,-2.7693,-2.7908,-2.8124,-2.8253,-2.836,-2.836,-2.836,-2.836,-2.836,-2.836,-2.8576,-2.8792,-2.9426,-3.0082,-3.0511,-3.094,-3.1593,-3.1831,-3.2,-3.2386,-3.2374,-3.2423,-3.2543,-3.2241,-3.1796,-3.1594,-3.1284,-3.1154,-3.1356,-3.1368,-3.1593,-3.1807,-3.1807,-3.171,-3.1529,-3.1179,-3.089,-3.0612,-3.0778,-3.1806,-3.4386,-3.4969,-3.6765,-3.8971,-4.0384,-4.1337,-4.2426,-4.387,-4.5215,-4.7327,-4.913,-5.041,-5.1576,-5.247,-5.3475,-5.4202,-5.4827,-5.4718,-5.4587,-5.4084,-5.3779,-5.3363,-5.3538,-5.4214,-5.4082,-5.5473,-5.6636,-5.8163,-5.9447,-6.0464,-6.1374,-6.1528,-6.1634,-6.1735,-6.2114,-6.2824,-6.3064,-6.3191,-6.3433,-6.3753,-6.4046,-6.4419,-6.54,-6.6477,-6.7657,-6.8736,-6.8928,-6.9054,-6.9387,-6.9477,-6.9407,-1.7012,-1.7046,-1.6998,-1.6978,-1.6978,-1.6978,-1.6978,-1.7811,-2.092,-2.1959,-2.1336,-2.3202,-2.4051,-2.3153,-2.2526,-2.2445,-2.3852,-2.4031,-2.4283,-2.5575,-2.6542,-2.6745,-2.7251,-2.7671,-2.7887,-2.808,-2.8231,-2.836,-2.836,-2.836,-2.836,-2.836,-2.836,-2.836,-2.8576,-2.8996,-2.9426,-3.0082,-3.05,-3.1154,-3.1593,-3.1843,-3.1952,-3.2169,-3.2266,-3.2302,-3.2423,-3.2362,-3.2181,-3.2097,-3.1964,-3.1807,-3.1807,-3.1807,-3.1807,-3.1807,-3.1795,-3.1614,-3.13,-3.1143,-3.1024,-3.1463,-3.1098,-3.241,-3.4585,-3.5564,-3.7264,-3.9292,-4.087,-4.194,-4.301,-4.4482,-4.6115,-4.8045,-4.959,-5.0876,-5.2149,-5.307,-5.3878,-5.4802,-5.4827,-5.474,-5.4477,-5.3953,-5.3473,-5.2992,-5.2769,-5.3483,-5.4179,-5.5763,-5.7456,-5.9089,-6.0351,-6.1115,-6.1732,-6.2148,-6.2348,-6.2548,-6.2772,-6.2993,-6.3134,-6.3286,-6.358,-6.39,-6.4192,-6.4736,-6.6043,-6.7237,-6.8228,-6.8876,-6.9019,-6.912,-6.9364,-6.9191,-6.8941,-1.7066,-1.7154,-1.7039,-1.6992,-1.6992,-1.7019,-1.7019,-1.7419,-2.2193,-2.323,-2.2202,-2.387,-2.4943,-2.471,-2.3014,-2.2563,-2.3142,-2.3925,-2.4273,-2.4982,-2.6282,-2.6894,-2.7434,-2.7822,-2.8048,-2.8134,-2.8231,-2.836,-2.836,-2.836,-2.836,-2.836,-2.836,-2.8576,-2.8565,-2.8996,-2.9641,-3.0082,-3.0726,-3.1368,-3.1807,-3.1819,-3.1891,-3.2024,-3.2085,-3.2085,-3.2133,-3.2085,-3.2012,-3.1928,-3.1819,-3.1807,-3.1807,-3.1807,-3.1807,-3.1807,-3.1807,-3.1469,-3.1143,-3.0998,-3.152,-3.2149,-3.2825,-3.3773,-3.4983,-3.6385,-3.7901,-3.9661,-4.1147,-4.239,-4.3607,-4.5115,-4.6427,-4.8174,-5.0032,-5.1256,-5.262,-5.3688,-5.4525,-5.4958,-5.4783,-5.4565,-5.4019,-5.3516,-5.3254,-5.3093,-5.2866,-5.3449,-5.4432,-5.609,-5.7758,-6.0065,-6.0971,-6.1607,-6.2095,-6.2579,-6.2417,-6.2287,-6.2633,-6.3001,-6.3165,-6.3433,-6.3873,-6.4165,-6.431,-6.5163,-6.6691,-6.7777,-6.8712,-6.895,-6.8865,-6.8741,-6.8784,-6.8457,-6.8428,-1.7093,-1.7046,-1.7107,-1.7127,-1.7148,-1.7249,-1.729,-1.7918,-2.1188,-2.2651,-2.2575,-2.537,-2.6368,-2.6964,-2.6077,-2.5756,-2.5583,-2.5809,-2.592,-2.6434,-2.6667,-2.7226,-2.7768,-2.807,-2.822,-2.8274,-2.8328,-2.836,-2.836,-2.836,-2.836,-2.836,-2.836,-2.8576,-2.8996,-2.9426,-2.9868,-3.0297,-3.094,-3.138,-3.1593,-3.1807,-3.1879,-3.2,-3.1952,-3.1952,-3.2036,-3.1952,-3.1891,-3.1843,-3.1807,-3.1807,-3.1807,-3.1807,-3.1807,-3.1783,-3.1626,-3.1348,-3.1243,-3.1837,-3.2583,-3.3293,-3.4571,-3.596,-3.6765,-3.7446,-3.8568,-4.0,-4.1391,-4.2607,-4.3879,-4.527,-4.7284,-4.9435,-5.0893,-5.1938,-5.3199,-5.4272,-5.5111,-5.474,-5.4587,-5.4237,-5.3669,-5.3407,-5.3123,-5.3108,-5.3214,-5.3867,-5.4856,-5.6581,-5.8185,-6.0366,-6.1692,-6.2251,-6.2351,-6.2809,-6.2339,-6.2149,-6.2571,-6.2842,-6.3138,-6.3553,-6.4019,-6.4573,-6.5005,-6.607,-6.7391,-6.8254,-6.8781,-6.8753,-6.8689,-6.8397,-6.8264,-6.802,-6.8269,-1.7141,-1.708,-1.7154,-1.7256,-1.7593,-1.8114,-1.8582,-1.897,-2.1102,-2.2328,-2.2822,-2.5868,-2.751,-2.7725,-2.7162,-2.6969,-2.7033,-2.6617,-2.6488,-2.6745,-2.7294,-2.7628,-2.7984,-2.8231,-2.8328,-2.836,-2.836,-2.836,-2.836,-2.836,-2.836,-2.836,-2.836,-2.8576,-2.9007,-2.9438,-2.9868,-3.0082,-3.0726,-3.1368,-3.1593,-3.1593,-3.1701,-3.1976,-3.1855,-3.194,-3.2012,-3.1855,-3.1831,-3.1807,-3.1807,-3.1807,-3.1807,-3.1807,-3.1807,-3.1759,-3.1553,-3.1708,-3.2037,-3.2584,-3.3303,-3.4682,-3.6173,-3.7461,-3.834,-3.8842,-3.9636,-4.0451,-4.1619,-4.2807,-4.4101,-4.5748,-4.8248,-5.0723,-5.1738,-5.2559,-5.3745,-5.4878,-5.4802,-5.4521,-5.4194,-5.3888,-5.3582,-5.332,-5.312,-5.299,-5.3867,-5.516,-5.6206,-5.7574,-5.9072,-6.0763,-6.2146,-6.3074,-6.3045,-6.2783,-6.2391,-6.2201,-6.2693,-6.299,-6.3259,-6.37,-6.4283,-6.5121,-6.5976,-6.6959,-6.8117,-6.8123,-6.8516,-6.8369,-6.8273,-6.8024,-6.8021,-6.8107,-6.86,-1.7202,-1.7188,-1.7202,-1.7392,-1.7861,-1.9394,-2.0046,-2.0426,-2.1814,-2.2504,-2.3171,-2.5878,-2.751,-2.7736,-2.7391,-2.7251,-2.723,-2.6961,-2.6853,-2.7015,-2.7478,-2.7822,-2.8016,-2.8231,-2.835,-2.836,-2.836,-2.836,-2.836,-2.836,-2.836,-2.836,-2.836,-2.8576,-2.8792,-2.9426,-2.9641,-2.9856,-3.0285,-3.0928,-3.1368,-3.1368,-3.1154,-3.1605,-3.1819,-3.1831,-3.1831,-3.1807,-3.1807,-3.1807,-3.1807,-3.1807,-3.1807,-3.1807,-3.1807,-3.1686,-3.1481,-3.2065,-3.2801,-3.3324,-3.4875,-3.6076,-3.7568,-3.8537,-3.9267,-3.9755,-4.0142,-4.0737,-4.1944,-4.319,-4.4676,-4.5871,-4.7968,-5.0281,-5.1697,-5.2992,-5.4443,-5.5036,-5.4718,-5.4346,-5.4172,-5.38,-5.3101,-5.2817,-5.3027,-5.2892,-5.397,-5.5671,-5.7405,-5.8791,-6.0097,-6.1372,-6.2148,-6.3149,-6.294,-6.2679,-6.2417,-6.2456,-6.2746,-6.2964,-6.3111,-6.3819,-6.4663,-6.5273,-6.5838,-6.7364,-6.8374,-6.8425,-6.8154,-6.7999,-6.7775,-6.7558,-6.7673,-6.806,-6.8927,-1.7511,-1.7847,-1.796,-1.7968,-1.8012,-1.9777,-2.042,-2.0615,-2.3268,-2.4451,-2.4992,-2.6607,-2.7779,-2.7994,-2.7596,-2.7456,-2.7424,-2.7165,-2.7165,-2.7327,-2.7671,-2.7897,-2.8048,-2.8264,-2.835,-2.836,-2.836,-2.836,-2.836,-2.836,-2.836,-2.836,-2.836,-2.8576,-2.8781,-2.9426,-2.9426,-2.9641,-2.9641,-3.0285,-3.0928,-3.1154,-3.1154,-3.1593,-3.1807,-3.1807,-3.1807,-3.1807,-3.1807,-3.1807,-3.1807,-3.1807,-3.1807,-3.1807,-3.1807,-3.1722,-3.1583,-3.2357,-3.3328,-3.4233,-3.5721,-3.7234,-3.8415,-3.9402,-3.9952,-4.0245,-4.0697,-4.1361,-4.2302,-4.354,-4.4847,-4.6158,-4.7558,-4.9589,-5.1617,-5.3364,-5.5097,-5.4884,-5.4456,-5.4215,-5.4084,-5.3538,-5.2796,-5.2594,-5.2755,-5.3369,-5.4298,-5.5785,-5.8117,-5.9707,-6.1215,-6.2277,-6.2379,-6.294,-6.2731,-6.2626,-6.2391,-6.2483,-6.272,-6.2964,-6.3111,-6.3711,-6.4417,-6.4804,-6.5605,-6.7199,-6.8181,-6.8151,-6.8021,-6.7637,-6.772,-6.7559,-6.7956,-6.8499,-6.9419,-1.7648,-1.7753,-1.81,-1.8304,-1.8708,-2.0849,-2.164,-2.194,-2.4663,-2.6133,-2.6509,-2.7218,-2.7757,-2.8091,-2.7704,-2.7574,-2.7553,-2.7273,-2.7294,-2.7499,-2.7725,-2.7962,-2.8134,-2.8285,-2.8339,-2.836,-2.836,-2.836,-2.836,-2.836,-2.836,-2.836,-2.836,-2.8576,-2.8996,-2.8996,-2.9211,-2.9222,-2.9211,-2.9641,-3.05,-3.0714,-3.094,-3.138,-3.1807,-3.1807,-3.1807,-3.1807,-3.1807,-3.1807,-3.1807,-3.1807,-3.1807,-3.1807,-3.1735,-3.1753,-3.2077,-3.2776,-3.4192,-3.5319,-3.6583,-3.8157,-3.8971,-3.9927,-4.026,-4.0388,-4.112,-4.1939,-4.2471,-4.349,-4.4989,-4.6091,-4.8051,-5.0,-5.1136,-5.2477,-5.3804,-5.4519,-5.4062,-5.3669,-5.3473,-5.3145,-5.2577,-5.2424,-5.2733,-5.3423,-5.437,-5.6506,-5.8631,-6.0418,-6.1994,-6.2946,-6.2866,-6.2679,-6.2365,-6.2391,-6.2417,-6.2483,-6.2693,-6.3085,-6.3446,-6.3695,-6.4116,-6.5084,-6.6037,-6.7036,-6.78,-6.7969,-6.7516,-6.6995,-6.7332,-6.7777,-6.8292,-6.8927,-6.9943,-1.7568,-1.7689,-1.8234,-1.8608,-1.9383,-2.2292,-2.3224,-2.325,-2.5991,-2.7521,-2.7503,-2.7467,-2.7607,-2.7714,-2.7542,-2.7531,-2.7478,-2.7327,-2.7402,-2.751,-2.7736,-2.7973,-2.8167,-2.8328,-2.835,-2.836,-2.836,-2.836,-2.836,-2.836,-2.836,-2.836,-2.836,-2.836,-2.8576,-2.8792,-2.8996,-2.8792,-2.8792,-2.9438,-2.9868,-3.0082,-3.0726,-3.138,-3.1807,-3.1807,-3.1807,-3.1807,-3.1807,-3.1807,-3.1807,-3.1807,-3.1759,-3.1735,-3.2014,-3.2028,-3.254,-3.3891,-3.5487,-3.6603,-3.8037,-3.9167,-3.9573,-3.9943,-4.0276,-4.0992,-4.1712,-4.254,-4.3073,-4.3673,-4.5177,-4.6463,-4.8177,-5.0417,-5.1186,-5.2002,-5.3209,-5.4303,-5.3866,-5.3385,-5.3036,-5.2752,-5.2533,-5.2381,-5.2791,-5.3476,-5.5207,-5.7461,-5.933,-6.0679,-6.2274,-6.2761,-6.2888,-6.2522,-6.2104,-6.213,-6.2287,-6.2633,-6.2693,-6.3326,-6.3776,-6.3623,-6.4237,-6.5887,-6.6912,-6.7157,-6.7688,-6.8021,-6.7305,-6.6797,-6.7536,-6.8337,-6.8898,-6.9616,-7.0565,-1.7847,-1.8255,-1.8937,-1.9265,-1.9823,-2.263,-2.3901,-2.4242,-2.6467,-2.7811,-2.7941,-2.7596,-2.7564,-2.7994,-2.751,-2.7402,-2.751,-2.7391,-2.7348,-2.7402,-2.7876,-2.807,-2.8177,-2.8317,-2.836,-2.836,-2.836,-2.836,-2.836,-2.836,-2.836,-2.836,-2.836,-2.836,-2.836,-2.8576,-2.8576,-2.8576,-2.8792,-2.9222,-2.9868,-3.0297,-3.0737,-3.138,-3.1807,-3.1807,-3.1807,-3.1807,-3.1807,-3.1807,-3.1795,-3.1783,-3.1722,-3.1814,-3.2263,-3.2926,-3.342,-3.4977,-3.6335,-3.7323,-3.8595,-3.9557,-3.98,-4.0154,-4.0671,-4.157,-4.2476,-4.3738,-4.422,-4.4583,-4.5807,-4.6278,-4.7988,-5.0916,-5.274,-5.3263,-5.4016,-5.4281,-5.4084,-5.3582,-5.3101,-5.2774,-5.2424,-5.2375,-5.2614,-5.3715,-5.546,-5.7677,-5.9365,-6.0914,-6.2417,-6.2574,-6.2731,-6.2391,-6.1999,-6.2149,-6.2228,-6.2448,-6.2683,-6.3043,-6.3235,-6.3298,-6.4217,-6.5794,-6.6347,-6.6562,-6.7157,-6.7999,-6.781,-6.7579,-6.8249,-6.8968,-6.9603,-7.0174,-7.0988]}]]